Darstellungsparameter: Aktuell verwendete Einstellungen:
Skalierung der Graphiken ... ?
xyx+y,   Skalierungsfaktor:      Skalierung: Modus: x, Faktor: 1
Darstellungszeitraum ... ?
Vom - - bis: - -   Zeitraum: 27.12.2010 - 16.01.2011
Min/Max/Avg-Anzeige ... ?
Zeige MMA aktuell
Zeige MMA Monat
Zeige MMA alles
Zeige --A aktuell
Zeige --A Monat
Zeige --A alles
Keine MMA-Anzeige
MMA:
Keine MMA-Graphiken
MMA-Basis: 27.12.2010 - 16.01.2011
Quicknavigation für Darstellung... ?
Tage:      1T, 2T, 3T, 5T -1T -2T -3T -5T +1T +2T +3T +5T
Wochen: 1W, 2W, 3W -1W -2W -3W +1W +2W +3W
Monate: 1M, 3M, 6M -1M -3M -6M +1M +3M +6M
Jahre:    1J, 3J, 5J, 10J -1J -3J -5J -10J +1J +3J +5J +10J
Nutze für die Darstellung ... ?
Originaldaten oder Mittelwerte auf ...
Stundenbasis Tagesbasis Wochenbasis
Monatsbasis Jahresbasis      Datenbasis: Original-Daten
Darstellen als:
Statistik (Auto) Statistik J:M      Darstellung:
Zur Graphik,    zurück zur Übersicht aller Sensoren.
 
Tabellarische Datenbersicht: ?
 
Sensor: Nr:Datum:Temp:Abs-Feuchte:Windchill:Wind:
Aussen-T/F 1 27-12-2010 00:10:04 -2.7 C 3.17 g/m*3 -2.7 C 0 km/h
2 27-12-2010 00:22:04 -2.8 C 3.19 g/m*3 -2.8 C 0 km/h
3 27-12-2010 00:34:04 -2.7 C 3.21 g/m*3 -2.7 C 0 km/h
4 27-12-2010 00:46:04 -2.6 C 3.23 g/m*3 -2.6 C 0 km/h
5 27-12-2010 00:58:05 -2.4 C 3.28 g/m*3 -2.4 C 0 km/h
6 27-12-2010 01:10:05 -2.3 C 3.26 g/m*3 -2.3 C 0 km/h
7 27-12-2010 01:22:05 -1.9 C 3.35 g/m*3 -1.9 C 0 km/h
8 27-12-2010 01:34:05 -1.9 C 3.31 g/m*3 -1.9 C 0 km/h
9 27-12-2010 01:46:05 -1.8 C 3.33 g/m*3 -1.8 C 0 km/h
10 27-12-2010 01:58:05 -1.7 C 3.31 g/m*3 -1.7 C 0 km/h
11 27-12-2010 02:10:05 -1.6 C 3.34 g/m*3 -1.6 C 0 km/h
12 27-12-2010 02:22:05 -1.5 C 3.36 g/m*3 -1.5 C 0 km/h
13 27-12-2010 02:34:05 -1.6 C 3.34 g/m*3 -1.6 C 0 km/h
14 27-12-2010 02:46:05 -1.5 C 3.36 g/m*3 -1.5 C 0 km/h
15 27-12-2010 02:58:05 -1.8 C 3.33 g/m*3 -1.8 C 0 km/h
16 27-12-2010 03:10:05 -1.5 C 3.41 g/m*3 -1.5 C 0 km/h
17 27-12-2010 03:22:05 -1.4 C 3.43 g/m*3 -1.4 C 0 km/h
18 27-12-2010 03:34:05 -1.4 C 3.39 g/m*3 -1.4 C 0 km/h
19 27-12-2010 03:46:05 -1.3 C 3.41 g/m*3 -1.3 C 0 km/h
20 27-12-2010 03:58:05 -1.3 C 3.41 g/m*3 -1.3 C 0 km/h
21 27-12-2010 04:10:05 -1.3 C 3.36 g/m*3 -1.3 C 0 km/h
22 27-12-2010 04:22:05 -1.3 C 3.36 g/m*3 -1.3 C 0 km/h
23 27-12-2010 04:34:05 -1.3 C 3.36 g/m*3 -1.3 C 0 km/h
24 27-12-2010 04:46:05 -1.3 C 3.36 g/m*3 -1.3 C 0 km/h
25 27-12-2010 04:58:05 -1.3 C 3.36 g/m*3 -1.3 C 0 km/h
Sensor: Nr:Datum:Temp:Abs-Feuchte:Windchill:Wind:
Aussen-T/F 26 27-12-2010 05:10:06 -1.3 C 3.36 g/m*3 -1.3 C 0 km/h
27 27-12-2010 05:22:06 -1.3 C 3.36 g/m*3 -1.3 C 0 km/h
28 27-12-2010 05:34:06 -1.3 C 3.36 g/m*3 -1.3 C 0 km/h
29 27-12-2010 05:46:06 -1.3 C 3.36 g/m*3 -1.3 C 0 km/h
30 27-12-2010 05:58:06 -1.4 C 3.39 g/m*3 -1.4 C 0 km/h
31 27-12-2010 06:10:06 -1.4 C 3.39 g/m*3 -1.4 C 0 km/h
32 27-12-2010 06:22:06 -1.4 C 3.39 g/m*3 -1.4 C 0 km/h
33 27-12-2010 06:34:06 -1.5 C 3.36 g/m*3 -1.5 C 0 km/h
34 27-12-2010 06:46:06 -1.4 C 3.39 g/m*3 -1.4 C 0 km/h
35 27-12-2010 06:58:06 -1.5 C 3.36 g/m*3 -1.5 C 0 km/h
36 27-12-2010 07:10:06 -1.6 C 3.34 g/m*3 -1.6 C 0 km/h
37 27-12-2010 07:22:06 -1.5 C 3.36 g/m*3 -1.5 C 0 km/h
38 27-12-2010 07:34:06 -1.5 C 3.36 g/m*3 -1.5 C 0 km/h
39 27-12-2010 07:46:06 -1.7 C 3.31 g/m*3 -1.7 C 0 km/h
40 27-12-2010 07:58:06 -1.8 C 3.29 g/m*3 -1.8 C 0 km/h
41 27-12-2010 08:10:06 -1.8 C 3.33 g/m*3 -1.8 C 0 km/h
42 27-12-2010 08:22:06 -1.8 C 3.29 g/m*3 -1.8 C 0 km/h
43 27-12-2010 08:34:06 -1.9 C 3.27 g/m*3 -1.9 C 0 km/h
44 27-12-2010 08:46:02 -1.9 C 3.27 g/m*3 -1.9 C 0 km/h
45 27-12-2010 08:58:02 -1.9 C 3.27 g/m*3 -1.9 C 0 km/h
46 27-12-2010 09:10:02 -1.8 C 3.25 g/m*3 -1.8 C 0 km/h
47 27-12-2010 09:22:02 -1.8 C 3.25 g/m*3 -1.8 C 0 km/h
48 27-12-2010 09:34:02 -1.8 C 3.25 g/m*3 -1.8 C 0 km/h
49 27-12-2010 09:46:02 -1.8 C 3.25 g/m*3 -1.8 C 0 km/h
50 27-12-2010 09:58:02 -1.7 C 3.23 g/m*3 -1.7 C 0 km/h
Sensor: Nr:Datum:Temp:Abs-Feuchte:Windchill:Wind:
Aussen-T/F 51 27-12-2010 10:10:02 -1.6 C 3.25 g/m*3 -1.6 C 0 km/h
52 27-12-2010 10:22:03 -1.4 C 3.3 g/m*3 -1.4 C 0 km/h
53 27-12-2010 10:34:02 -1.4 C 3.3 g/m*3 -1.4 C 0 km/h
54 27-12-2010 10:46:02 -1.4 C 3.25 g/m*3 -1.4 C 0 km/h
55 27-12-2010 10:58:02 -1.3 C 3.28 g/m*3 -1.3 C 0 km/h
56 27-12-2010 11:10:02 -1.2 C 3.3 g/m*3 -1.2 C 0 km/h
57 27-12-2010 11:22:02 -1.2 C 3.25 g/m*3 -1.2 C 0 km/h
58 27-12-2010 11:34:02 -1.2 C 3.25 g/m*3 -1.2 C 0 km/h
59 27-12-2010 11:46:02 -1 C 3.3 g/m*3 -1 C 0 km/h
60 27-12-2010 11:58:02 -1.2 C 3.21 g/m*3 -1.2 C 0 km/h
61 27-12-2010 12:10:02 -0.8 C 3.25 g/m*3 -0.8 C 0 km/h
62 27-12-2010 12:22:02 -1 C 3.21 g/m*3 -1 C 0 km/h
63 27-12-2010 12:34:01 -1.1 C 3.19 g/m*3 -1.1 C 0 km/h
64 27-12-2010 12:46:02 -1.1 C 3.23 g/m*3 -1.1 C 0 km/h
65 27-12-2010 12:58:02 -1.1 C 3.23 g/m*3 -1.1 C 0 km/h
66 27-12-2010 13:10:01 -1.2 C 3.25 g/m*3 -1.2 C 0 km/h
67 27-12-2010 13:22:02 -0.9 C 3.32 g/m*3 -0.9 C 0 km/h
68 27-12-2010 13:34:02 -1 C 3.25 g/m*3 -1 C 0 km/h
69 27-12-2010 13:46:02 -0.8 C 3.3 g/m*3 -0.8 C 0 km/h
70 27-12-2010 13:58:02 -0.5 C 3.32 g/m*3 -0.5 C 0 km/h
71 27-12-2010 14:10:03 -0.9 C 3.23 g/m*3 -0.9 C 0 km/h
72 27-12-2010 14:22:02 -1.1 C 3.23 g/m*3 -1.1 C 0 km/h
73 27-12-2010 14:34:02 -1 C 3.3 g/m*3 -1 C 0 km/h
74 27-12-2010 14:46:01 -1.1 C 3.28 g/m*3 -1.1 C 0 km/h
75 27-12-2010 14:58:01 -1.1 C 3.32 g/m*3 -1.1 C 0 km/h
Sensor: Nr:Datum:Temp:Abs-Feuchte:Windchill:Wind:
Aussen-T/F 76 27-12-2010 15:10:02 -1.2 C 3.3 g/m*3 -1.2 C 0 km/h
77 27-12-2010 15:22:01 -1.3 C 3.32 g/m*3 -1.3 C 0 km/h
78 27-12-2010 15:34:01 -1.3 C 3.36 g/m*3 -1.3 C 0 km/h
79 27-12-2010 15:46:01 -1.2 C 3.34 g/m*3 -1.2 C 0 km/h
80 27-12-2010 15:58:01 -1.5 C 3.32 g/m*3 -1.5 C 0 km/h
81 27-12-2010 16:10:02 -1.9 C 3.23 g/m*3 -1.9 C 0 km/h
82 27-12-2010 16:22:01 -2.1 C 3.26 g/m*3 -2.1 C 0 km/h
83 27-12-2010 16:34:01 -2.3 C 3.26 g/m*3 -2.3 C 0 km/h
84 27-12-2010 16:46:01 -2.5 C 3.26 g/m*3 -2.5 C 0 km/h
85 27-12-2010 16:58:01 -2.7 C 3.25 g/m*3 -2.7 C 0 km/h
86 27-12-2010 17:10:02 -3 C 3.22 g/m*3 -3 C 0 km/h
87 27-12-2010 17:22:02 -3.3 C 3.19 g/m*3 -3.3 C 0 km/h
88 27-12-2010 17:34:01 -3.3 C 3.23 g/m*3 -3.3 C 0 km/h
89 27-12-2010 17:46:02 -3.1 C 3.32 g/m*3 -3.1 C 0 km/h
90 27-12-2010 17:58:02 -3.1 C 3.32 g/m*3 -3.1 C 0 km/h
91 27-12-2010 18:10:01 -3.1 C 3.35 g/m*3 -3.1 C 0 km/h
92 27-12-2010 18:22:02 -3.2 C 3.33 g/m*3 -3.2 C 0 km/h
93 27-12-2010 18:34:01 -3.2 C 3.33 g/m*3 -3.2 C 0 km/h
94 27-12-2010 18:46:02 -3.2 C 3.33 g/m*3 -3.2 C 0 km/h
95 27-12-2010 18:58:02 -3.2 C 3.33 g/m*3 -3.2 C 0 km/h
96 27-12-2010 19:10:02 -3.4 C 3.28 g/m*3 -3.4 C 0 km/h
97 27-12-2010 19:22:02 -3.6 C 3.24 g/m*3 -3.6 C 0 km/h
98 27-12-2010 19:34:03 -3.7 C 3.21 g/m*3 -3.7 C 0 km/h
99 27-12-2010 19:46:02 -4 C 3.15 g/m*3 -4 C 0 km/h
100 27-12-2010 19:58:02 -4 C 3.15 g/m*3 -4 C 0 km/h
Sensor: Nr:Datum:Temp:Abs-Feuchte:Windchill:Wind:
Aussen-T/F 101 27-12-2010 20:10:01 -4.1 C 3.16 g/m*3 -4.1 C 0 km/h
102 27-12-2010 20:22:02 -4.1 C 3.16 g/m*3 -4.1 C 0 km/h
103 27-12-2010 20:34:02 -4.4 C 3.09 g/m*3 -4.4 C 0 km/h
104 27-12-2010 20:46:02 -4.3 C 3.12 g/m*3 -4.3 C 0 km/h
105 27-12-2010 20:58:02 -4.6 C 3.05 g/m*3 -4.6 C 0 km/h
106 27-12-2010 21:10:02 -4.6 C 3.05 g/m*3 -4.6 C 0 km/h
107 27-12-2010 21:22:02 -4.5 C 3.07 g/m*3 -4.5 C 0 km/h
108 27-12-2010 21:34:02 -4.5 C 3.07 g/m*3 -4.5 C 0 km/h
109 27-12-2010 21:46:02 -4.5 C 3.07 g/m*3 -4.5 C 0 km/h
110 27-12-2010 21:58:02 -3.9 C 3.24 g/m*3 -3.9 C 0 km/h
111 27-12-2010 22:10:02 -3.8 C 3.27 g/m*3 -3.8 C 0 km/h
112 27-12-2010 22:23:02 -4.5 C 3.07 g/m*3 -4.5 C 0 km/h
113 27-12-2010 22:35:02 -4.5 C 3.07 g/m*3 -4.5 C 0 km/h
114 27-12-2010 22:47:02 -3.9 C 3.21 g/m*3 -3.9 C 0 km/h
115 27-12-2010 22:59:02 -4 C 3.18 g/m*3 -4 C 0 km/h
116 27-12-2010 23:11:03 -3.9 C 3.24 g/m*3 -3.9 C 0 km/h
117 27-12-2010 23:23:03 -3.9 C 3.21 g/m*3 -3.9 C 0 km/h
118 27-12-2010 23:35:03 -4.3 C 3.12 g/m*3 -4.3 C 0 km/h
119 27-12-2010 23:47:03 -4.7 C 3.03 g/m*3 -4.7 C 0 km/h
120 27-12-2010 23:59:03 -4.9 C 2.95 g/m*3 -4.9 C 0 km/h
121 28-12-2010 00:11:03 -4.7 C 3.03 g/m*3 -4.7 C 0 km/h
122 28-12-2010 00:23:03 -4.5 C 3.07 g/m*3 -4.5 C 0 km/h
123 28-12-2010 00:35:03 -4.5 C 3.07 g/m*3 -4.5 C 0 km/h
124 28-12-2010 00:47:03 -4.3 C 3.12 g/m*3 -4.3 C 0 km/h
125 28-12-2010 00:59:03 -4.3 C 3.12 g/m*3 -4.3 C 0 km/h
Sensor: Nr:Datum:Temp:Abs-Feuchte:Windchill:Wind:
Aussen-T/F 126 28-12-2010 01:11:03 -4.1 C 3.16 g/m*3 -4.1 C 0 km/h
127 28-12-2010 01:23:03 -4.4 C 3.09 g/m*3 -4.4 C 0 km/h
128 28-12-2010 01:35:03 -4.4 C 3.09 g/m*3 -4.4 C 0 km/h
129 28-12-2010 01:47:03 -4.3 C 3.12 g/m*3 -4.3 C 0 km/h
130 28-12-2010 01:59:03 -4.3 C 3.12 g/m*3 -4.3 C 0 km/h
131 28-12-2010 02:11:03 -4.1 C 3.16 g/m*3 -4.1 C 0 km/h
132 28-12-2010 02:23:03 -4 C 3.18 g/m*3 -4 C 0 km/h
133 28-12-2010 02:35:03 -4.1 C 3.16 g/m*3 -4.1 C 0 km/h
134 28-12-2010 02:47:03 -4.2 C 3.14 g/m*3 -4.2 C 0 km/h
135 28-12-2010 02:59:03 -4.4 C 3.09 g/m*3 -4.4 C 0 km/h
136 28-12-2010 03:11:03 -4.2 C 3.14 g/m*3 -4.2 C 0 km/h
137 28-12-2010 03:23:04 -4.2 C 3.14 g/m*3 -4.2 C 0 km/h
138 28-12-2010 03:35:04 -4.5 C 3.04 g/m*3 -4.5 C 0 km/h
139 28-12-2010 03:47:04 -4.5 C 3.04 g/m*3 -4.5 C 0 km/h
140 28-12-2010 03:59:04 -4.4 C 3.06 g/m*3 -4.4 C 0 km/h
141 28-12-2010 04:11:04 -4.2 C 3.14 g/m*3 -4.2 C 0 km/h
142 28-12-2010 04:23:04 -4.2 C 3.14 g/m*3 -4.2 C 0 km/h
143 28-12-2010 04:35:04 -4.2 C 3.14 g/m*3 -4.2 C 0 km/h
144 28-12-2010 04:47:04 -4.2 C 3.14 g/m*3 -4.2 C 0 km/h
145 28-12-2010 04:59:04 -4 C 3.18 g/m*3 -4 C 0 km/h
146 28-12-2010 05:11:04 -3.9 C 3.21 g/m*3 -3.9 C 0 km/h
147 28-12-2010 05:23:04 -3.8 C 3.23 g/m*3 -3.8 C 0 km/h
148 28-12-2010 05:35:04 -3.8 C 3.23 g/m*3 -3.8 C 0 km/h
149 28-12-2010 05:47:04 -3.6 C 3.27 g/m*3 -3.6 C 0 km/h
150 28-12-2010 05:59:04 -3.8 C 3.23 g/m*3 -3.8 C 0 km/h
Sensor: Nr:Datum:Temp:Abs-Feuchte:Windchill:Wind:
Aussen-T/F 151 28-12-2010 06:11:04 -3.6 C 3.27 g/m*3 -3.6 C 0 km/h
152 28-12-2010 06:23:04 -3.7 C 3.25 g/m*3 -3.7 C 0 km/h
153 28-12-2010 06:35:04 -3.8 C 3.23 g/m*3 -3.8 C 0 km/h
154 28-12-2010 06:47:04 -3.8 C 3.23 g/m*3 -3.8 C 0 km/h
155 28-12-2010 06:59:04 -3.8 C 3.23 g/m*3 -3.8 C 0 km/h
156 28-12-2010 07:11:04 -3.7 C 3.25 g/m*3 -3.7 C 0 km/h
157 28-12-2010 07:23:05 -3.7 C 3.21 g/m*3 -3.7 C 0 km/h
158 28-12-2010 07:35:05 -3.7 C 3.21 g/m*3 -3.7 C 0 km/h
159 28-12-2010 07:47:05 -3.7 C 3.21 g/m*3 -3.7 C 0 km/h
160 28-12-2010 07:59:05 -3.8 C 3.19 g/m*3 -3.8 C 0 km/h
161 28-12-2010 08:11:05 -3.7 C 3.21 g/m*3 -3.7 C 0 km/h
162 28-12-2010 08:23:05 -3.7 C 3.21 g/m*3 -3.7 C 0 km/h
163 28-12-2010 08:35:05 -3.6 C 3.24 g/m*3 -3.6 C 0 km/h
164 28-12-2010 08:47:05 -3.5 C 3.26 g/m*3 -3.5 C 0 km/h
165 28-12-2010 08:59:05 -3.3 C 3.31 g/m*3 -3.3 C 0 km/h
166 28-12-2010 09:11:05 -3.1 C 3.35 g/m*3 -3.1 C 0 km/h
167 28-12-2010 09:23:05 -3 C 3.38 g/m*3 -3 C 0 km/h
168 28-12-2010 09:35:05 -2.7 C 3.45 g/m*3 -2.7 C 0 km/h
169 28-12-2010 09:47:05 -2.5 C 3.46 g/m*3 -2.5 C 0 km/h
170 28-12-2010 09:59:05 -2.1 C 3.56 g/m*3 -2.1 C 0 km/h
171 28-12-2010 10:11:02 -1.7 C 3.62 g/m*3 -1.7 C 0 km/h
172 28-12-2010 10:23:02 -1.4 C 3.65 g/m*3 -1.4 C 0 km/h
173 28-12-2010 10:35:02 -1.1 C 3.68 g/m*3 -1.1 C 0 km/h
174 28-12-2010 10:47:01 -0.7 C 3.6 g/m*3 -0.7 C 0 km/h
175 28-12-2010 10:59:01 -0.7 C 3.51 g/m*3 -0.7 C 0 km/h
Sensor: Nr:Datum:Temp:Abs-Feuchte:Windchill:Wind:
Aussen-T/F 176 28-12-2010 11:11:02 -0.8 C 3.44 g/m*3 -0.8 C 0 km/h
177 28-12-2010 11:23:01 -0.7 C 3.51 g/m*3 -0.7 C 0 km/h
178 28-12-2010 11:35:01 -0.6 C 3.49 g/m*3 -0.6 C 0 km/h
179 28-12-2010 11:47:01 -0.3 C 3.46 g/m*3 -0.3 C 0 km/h
180 28-12-2010 11:59:01 -0.3 C 3.42 g/m*3 -0.3 C 0 km/h
181 28-12-2010 12:11:02 0.1 C 3.46 g/m*3 0.1 C 0 km/h
182 28-12-2010 12:23:01 0.2 C 3.39 g/m*3 0.2 C 0 km/h
183 28-12-2010 12:35:02 0.5 C 3.26 g/m*3 0.5 C 0 km/h
184 28-12-2010 12:47:01 0.3 C 3.22 g/m*3 0.3 C 0 km/h
185 28-12-2010 12:59:01 0.4 C 3.24 g/m*3 0.4 C 0 km/h
186 28-12-2010 13:11:02 0.2 C 3.24 g/m*3 0.2 C 0 km/h
187 28-12-2010 13:23:01 0.5 C 3.36 g/m*3 0.5 C 0 km/h
188 28-12-2010 13:35:01 0.7 C 3.41 g/m*3 0.7 C 0 km/h
189 28-12-2010 13:47:01 0.4 C 3.34 g/m*3 0.4 C 0 km/h
190 28-12-2010 13:59:01 0 C 3.25 g/m*3 0 C 0 km/h
191 28-12-2010 14:11:01 0.3 C 3.36 g/m*3 0.3 C 0 km/h
192 28-12-2010 14:23:02 0 C 3.29 g/m*3 0 C 0 km/h
193 28-12-2010 14:35:01 -0.1 C 3.27 g/m*3 -0.1 C 0 km/h
194 28-12-2010 14:47:02 0 C 3.34 g/m*3 0 C 0 km/h
195 28-12-2010 14:59:02 -0.2 C 3.39 g/m*3 -0.2 C 0 km/h
196 28-12-2010 15:11:01 -0.4 C 3.39 g/m*3 -0.4 C 0 km/h
197 28-12-2010 15:23:01 -0.5 C 3.42 g/m*3 -0.5 C 0 km/h
198 28-12-2010 15:35:01 -0.6 C 3.44 g/m*3 -0.6 C 0 km/h
199 28-12-2010 15:47:02 -0.6 C 3.44 g/m*3 -0.6 C 0 km/h
200 28-12-2010 15:59:02 -0.6 C 3.39 g/m*3 -0.6 C 0 km/h
Sensor: Nr:Datum:Temp:Abs-Feuchte:Windchill:Wind:
Aussen-T/F 201 28-12-2010 16:11:01 -0.6 C 3.39 g/m*3 -0.6 C 0 km/h
202 28-12-2010 16:23:02 -0.7 C 3.37 g/m*3 -0.7 C 0 km/h
203 28-12-2010 16:35:02 -0.7 C 3.37 g/m*3 -0.7 C 0 km/h
204 28-12-2010 16:47:01 -0.7 C 3.42 g/m*3 -0.7 C 0 km/h
205 28-12-2010 16:59:01 -0.7 C 3.42 g/m*3 -0.7 C 0 km/h
206 28-12-2010 17:11:02 -0.7 C 3.42 g/m*3 -0.7 C 0 km/h
207 28-12-2010 17:23:01 -0.7 C 3.42 g/m*3 -0.7 C 0 km/h
208 28-12-2010 17:35:02 -0.7 C 3.42 g/m*3 -0.7 C 0 km/h
209 28-12-2010 17:47:02 -0.7 C 3.42 g/m*3 -0.7 C 0 km/h
210 28-12-2010 17:59:02 -0.7 C 3.42 g/m*3 -0.7 C 0 km/h
211 28-12-2010 18:11:02 -0.8 C 3.44 g/m*3 -0.8 C 0 km/h
212 28-12-2010 18:23:01 -0.8 C 3.44 g/m*3 -0.8 C 0 km/h
213 28-12-2010 18:35:02 -0.8 C 3.35 g/m*3 -0.8 C 0 km/h
214 28-12-2010 18:47:01 -0.9 C 3.32 g/m*3 -0.9 C 0 km/h
215 28-12-2010 18:59:01 -1.1 C 3.37 g/m*3 -1.1 C 0 km/h
216 28-12-2010 19:11:02 -1.1 C 3.41 g/m*3 -1.1 C 0 km/h
217 28-12-2010 19:23:01 -1.1 C 3.41 g/m*3 -1.1 C 0 km/h
218 28-12-2010 19:35:02 -1.2 C 3.43 g/m*3 -1.2 C 0 km/h
219 28-12-2010 19:47:01 -1.2 C 3.52 g/m*3 -1.2 C 0 km/h
220 28-12-2010 19:59:01 -1.4 C 3.47 g/m*3 -1.4 C 0 km/h
221 28-12-2010 20:11:02 -1.2 C 3.48 g/m*3 -1.2 C 0 km/h
222 28-12-2010 20:23:02 -1.2 C 3.48 g/m*3 -1.2 C 0 km/h
223 28-12-2010 20:35:01 -1.4 C 3.43 g/m*3 -1.4 C 0 km/h
224 28-12-2010 20:47:02 -1.5 C 3.41 g/m*3 -1.5 C 0 km/h
225 28-12-2010 20:59:02 -1.7 C 3.36 g/m*3 -1.7 C 0 km/h
Sensor: Nr:Datum:Temp:Abs-Feuchte:Windchill:Wind:
Aussen-T/F 226 28-12-2010 21:11:01 -1.9 C 3.31 g/m*3 -1.9 C 0 km/h
227 28-12-2010 21:23:02 -2 C 3.33 g/m*3 -2 C 0 km/h
228 28-12-2010 21:35:01 -2.1 C 3.35 g/m*3 -2.1 C 0 km/h
229 28-12-2010 21:47:02 -1.8 C 3.46 g/m*3 -1.8 C 0 km/h
230 28-12-2010 21:59:02 -1.5 C 3.54 g/m*3 -1.5 C 0 km/h
231 28-12-2010 22:11:02 -1.2 C 3.61 g/m*3 -1.2 C 0 km/h
232 28-12-2010 22:24:03 -1.3 C 3.59 g/m*3 -1.3 C 0 km/h
233 28-12-2010 22:36:03 -1.3 C 3.59 g/m*3 -1.3 C 0 km/h
234 28-12-2010 22:48:03 -1.3 C 3.59 g/m*3 -1.3 C 0 km/h
235 28-12-2010 23:00:03 -1.3 C 3.54 g/m*3 -1.3 C 0 km/h
236 28-12-2010 23:12:03 -1.3 C 3.59 g/m*3 -1.3 C 0 km/h
237 28-12-2010 23:24:03 -1.3 C 3.59 g/m*3 -1.3 C 0 km/h
238 28-12-2010 23:36:03 -1.3 C 3.59 g/m*3 -1.3 C 0 km/h
239 28-12-2010 23:48:03 -1.2 C 3.61 g/m*3 -1.2 C 0 km/h
240 29-12-2010 00:00:03 -1.3 C 3.54 g/m*3 -1.3 C 0 km/h
241 29-12-2010 00:12:03 -1.4 C 3.52 g/m*3 -1.4 C 0 km/h
242 29-12-2010 00:24:03 -1.3 C 3.59 g/m*3 -1.3 C 0 km/h
243 29-12-2010 00:36:03 -1.3 C 3.59 g/m*3 -1.3 C 0 km/h
244 29-12-2010 00:48:03 -1.3 C 3.59 g/m*3 -1.3 C 0 km/h
245 29-12-2010 01:00:03 -1.3 C 3.59 g/m*3 -1.3 C 0 km/h
246 29-12-2010 01:12:03 -1.3 C 3.63 g/m*3 -1.3 C 0 km/h
247 29-12-2010 01:24:03 -1.3 C 3.63 g/m*3 -1.3 C 0 km/h
248 29-12-2010 01:36:03 -1.3 C 3.63 g/m*3 -1.3 C 0 km/h
249 29-12-2010 01:48:03 -1.3 C 3.63 g/m*3 -1.3 C 0 km/h
250 29-12-2010 02:00:03 -1.3 C 3.63 g/m*3 -1.3 C 0 km/h
Sensor: Nr:Datum:Temp:Abs-Feuchte:Windchill:Wind:
Aussen-T/F 251 29-12-2010 02:12:04 -1.3 C 3.63 g/m*3 -1.3 C 0 km/h
252 29-12-2010 02:24:04 -1.3 C 3.63 g/m*3 -1.3 C 0 km/h
253 29-12-2010 02:36:04 -1.3 C 3.63 g/m*3 -1.3 C 0 km/h
254 29-12-2010 02:48:04 -1.3 C 3.67 g/m*3 -1.3 C 0 km/h
255 29-12-2010 03:00:04 -1.2 C 3.66 g/m*3 -1.2 C 0 km/h
256 29-12-2010 03:12:04 -1.3 C 3.63 g/m*3 -1.3 C 0 km/h
257 29-12-2010 03:24:04 -1.2 C 3.7 g/m*3 -1.2 C 0 km/h
258 29-12-2010 03:36:04 -1.2 C 3.7 g/m*3 -1.2 C 0 km/h
259 29-12-2010 03:48:04 -1.2 C 3.7 g/m*3 -1.2 C 0 km/h
260 29-12-2010 04:00:04 -1.2 C 3.7 g/m*3 -1.2 C 0 km/h
261 29-12-2010 04:12:04 -1.2 C 3.7 g/m*3 -1.2 C 0 km/h
262 29-12-2010 04:24:04 -1.3 C 3.63 g/m*3 -1.3 C 0 km/h
263 29-12-2010 04:36:04 -1.3 C 3.63 g/m*3 -1.3 C 0 km/h
264 29-12-2010 04:48:04 -1.4 C 3.65 g/m*3 -1.4 C 0 km/h
265 29-12-2010 05:00:04 -1.4 C 3.65 g/m*3 -1.4 C 0 km/h
266 29-12-2010 05:12:04 -1.3 C 3.67 g/m*3 -1.3 C 0 km/h
267 29-12-2010 05:24:04 -1.3 C 3.67 g/m*3 -1.3 C 0 km/h
268 29-12-2010 05:36:04 -1.3 C 3.67 g/m*3 -1.3 C 0 km/h
269 29-12-2010 05:48:04 -1.2 C 3.7 g/m*3 -1.2 C 0 km/h
270 29-12-2010 06:00:04 -1.2 C 3.7 g/m*3 -1.2 C 0 km/h
271 29-12-2010 06:12:05 -1.3 C 3.67 g/m*3 -1.3 C 0 km/h
272 29-12-2010 06:24:05 -1.2 C 3.74 g/m*3 -1.2 C 0 km/h
273 29-12-2010 06:36:05 -1.2 C 3.74 g/m*3 -1.2 C 0 km/h
274 29-12-2010 06:48:05 -1.1 C 3.77 g/m*3 -1.1 C 0 km/h
275 29-12-2010 07:00:05 -1.1 C 3.77 g/m*3 -1.1 C 0 km/h
Sensor: Nr:Datum:Temp:Abs-Feuchte:Windchill:Wind:
Aussen-T/F 276 29-12-2010 07:12:05 -1.1 C 3.77 g/m*3 -1.1 C 0 km/h
277 29-12-2010 07:24:05 -1.1 C 3.77 g/m*3 -1.1 C 0 km/h
278 29-12-2010 07:36:05 -1.1 C 3.82 g/m*3 -1.1 C 0 km/h
279 29-12-2010 07:48:01 -1.1 C 3.82 g/m*3 -1.1 C 0 km/h
280 29-12-2010 08:00:01 -1.1 C 3.82 g/m*3 -1.1 C 0 km/h
281 29-12-2010 08:12:02 -1.1 C 3.82 g/m*3 -1.1 C 0 km/h
282 29-12-2010 08:24:01 -1.2 C 3.79 g/m*3 -1.2 C 0 km/h
283 29-12-2010 08:36:01 -1.1 C 3.86 g/m*3 -1.1 C 0 km/h
284 29-12-2010 08:48:01 -1 C 3.89 g/m*3 -1 C 0 km/h
285 29-12-2010 09:00:01 -0.9 C 3.91 g/m*3 -0.9 C 0 km/h
286 29-12-2010 09:12:02 -0.9 C 3.87 g/m*3 -0.9 C 0 km/h
287 29-12-2010 09:24:02 -0.7 C 3.92 g/m*3 -0.7 C 0 km/h
288 29-12-2010 09:36:01 -0.7 C 3.88 g/m*3 -0.7 C 0 km/h
289 29-12-2010 09:48:01 -0.5 C 3.84 g/m*3 -0.5 C 0 km/h
290 29-12-2010 10:00:01 -0.2 C 3.87 g/m*3 -0.2 C 0 km/h
291 29-12-2010 10:12:02 0 C 3.78 g/m*3 0 C 0 km/h
292 29-12-2010 10:24:01 0.2 C 3.73 g/m*3 0.2 C 0 km/h
293 29-12-2010 10:36:01 0.3 C 3.71 g/m*3 0.3 C 0 km/h
294 29-12-2010 10:48:01 0.4 C 3.64 g/m*3 0.4 C 0 km/h
295 29-12-2010 11:00:01 0.4 C 3.64 g/m*3 0.4 C 0 km/h
296 29-12-2010 11:12:02 0.6 C 3.64 g/m*3 0.6 C 0 km/h
297 29-12-2010 11:24:01 0.6 C 3.59 g/m*3 0.6 C 0 km/h
298 29-12-2010 11:36:01 0.7 C 3.61 g/m*3 0.7 C 0 km/h
299 29-12-2010 11:48:01 0.6 C 3.53 g/m*3 0.6 C 0 km/h
300 29-12-2010 12:00:01 0.9 C 3.66 g/m*3 0.9 C 0 km/h
Sensor: Nr:Datum:Temp:Abs-Feuchte:Windchill:Wind:
Aussen-T/F 301 29-12-2010 12:12:01 0.9 C 3.61 g/m*3 0.9 C 0 km/h
302 29-12-2010 12:24:02 0.7 C 3.56 g/m*3 0.7 C 0 km/h
303 29-12-2010 12:36:01 1 C 3.53 g/m*3 1 C 0 km/h
304 29-12-2010 12:48:03 0.9 C 3.56 g/m*3 0.9 C 0 km/h
305 29-12-2010 13:00:03 1.3 C 3.66 g/m*3 1.3 C 0 km/h
306 29-12-2010 13:12:02 1.2 C 3.58 g/m*3 1.2 C 0 km/h
307 29-12-2010 13:24:02 1.4 C 3.63 g/m*3 1.4 C 0 km/h
308 29-12-2010 13:36:02 1.5 C 3.6 g/m*3 1.5 C 0 km/h
309 29-12-2010 13:48:02 1.3 C 3.6 g/m*3 1.3 C 0 km/h
310 29-12-2010 14:00:02 1.6 C 3.68 g/m*3 1.6 C 0 km/h
311 29-12-2010 14:12:01 1.7 C 3.65 g/m*3 1.7 C 0 km/h
312 29-12-2010 14:24:02 1.7 C 3.65 g/m*3 1.7 C 0 km/h
313 29-12-2010 14:36:02 2.1 C 3.69 g/m*3 2.1 C 0 km/h
314 29-12-2010 14:48:01 1.7 C 3.65 g/m*3 1.7 C 0 km/h
315 29-12-2010 15:00:01 1.3 C 3.66 g/m*3 1.3 C 0 km/h
316 29-12-2010 15:12:02 1.3 C 3.71 g/m*3 1.3 C 0 km/h
317 29-12-2010 15:24:01 1.2 C 3.74 g/m*3 1.2 C 0 km/h
318 29-12-2010 15:36:01 1.1 C 3.76 g/m*3 1.1 C 0 km/h
319 29-12-2010 15:48:01 1 C 3.79 g/m*3 1 C 0 km/h
320 29-12-2010 16:00:01 0.8 C 3.84 g/m*3 0.8 C 0 km/h
321 29-12-2010 16:12:02 0.7 C 3.81 g/m*3 0.7 C 0 km/h
322 29-12-2010 16:24:01 0.6 C 3.89 g/m*3 0.6 C 0 km/h
323 29-12-2010 16:36:02 0.5 C 3.86 g/m*3 0.5 C 0 km/h
324 29-12-2010 16:48:01 0.5 C 3.86 g/m*3 0.5 C 0 km/h
325 29-12-2010 17:00:01 0.4 C 3.84 g/m*3 0.4 C 0 km/h
Sensor: Nr:Datum:Temp:Abs-Feuchte:Windchill:Wind:
Aussen-T/F 326 29-12-2010 17:12:02 0.3 C 3.81 g/m*3 0.3 C 0 km/h
327 29-12-2010 17:24:01 0.3 C 3.86 g/m*3 0.3 C 0 km/h
328 29-12-2010 17:36:02 0.2 C 3.88 g/m*3 0.2 C 0 km/h
329 29-12-2010 17:48:01 0.2 C 3.88 g/m*3 0.2 C 0 km/h
330 29-12-2010 18:00:01 0.2 C 3.88 g/m*3 0.2 C 0 km/h
331 29-12-2010 18:12:02 0.2 C 3.88 g/m*3 0.2 C 0 km/h
332 29-12-2010 18:24:02 0.1 C 3.85 g/m*3 0.1 C 0 km/h
333 29-12-2010 18:36:01 0.1 C 3.9 g/m*3 0.1 C 0 km/h
334 29-12-2010 18:48:02 0.1 C 3.95 g/m*3 0.1 C 0 km/h
335 29-12-2010 19:00:02 0.1 C 3.95 g/m*3 0.1 C 0 km/h
336 29-12-2010 19:12:01 0.1 C 3.95 g/m*3 0.1 C 0 km/h
337 29-12-2010 19:24:02 0.1 C 4 g/m*3 0.1 C 0 km/h
338 29-12-2010 19:36:01 0 C 3.97 g/m*3 0 C 0 km/h
339 29-12-2010 19:48:02 0 C 3.97 g/m*3 0 C 0 km/h
340 29-12-2010 20:00:02 0 C 3.97 g/m*3 0 C 0 km/h
341 29-12-2010 20:12:01 0 C 3.97 g/m*3 0 C 0 km/h
342 29-12-2010 20:24:01 0 C 3.97 g/m*3 0 C 0 km/h
343 29-12-2010 20:36:01 -0.1 C 3.95 g/m*3 -0.1 C 0 km/h
344 29-12-2010 20:48:02 -0.1 C 3.95 g/m*3 -0.1 C 0 km/h
345 29-12-2010 21:00:02 -0.1 C 3.95 g/m*3 -0.1 C 0 km/h
346 29-12-2010 21:12:02 -0.2 C 3.92 g/m*3 -0.2 C 0 km/h
347 29-12-2010 21:24:02 -0.2 C 3.92 g/m*3 -0.2 C 0 km/h
348 29-12-2010 21:36:02 -0.2 C 3.92 g/m*3 -0.2 C 0 km/h
349 29-12-2010 21:48:01 -0.2 C 3.92 g/m*3 -0.2 C 0 km/h
350 29-12-2010 22:00:01 -0.2 C 3.92 g/m*3 -0.2 C 0 km/h
Sensor: Nr:Datum:Temp:Abs-Feuchte:Windchill:Wind:
Aussen-T/F 351 29-12-2010 22:12:02 -0.3 C 3.89 g/m*3 -0.3 C 0 km/h
352 29-12-2010 22:24:01 -0.3 C 3.84 g/m*3 -0.3 C 0 km/h
353 29-12-2010 22:36:01 -0.3 C 3.8 g/m*3 -0.3 C 0 km/h
354 29-12-2010 22:48:01 -0.5 C 3.74 g/m*3 -0.5 C 0 km/h
355 29-12-2010 23:00:01 -0.6 C 3.76 g/m*3 -0.6 C 0 km/h
356 29-12-2010 23:12:02 -0.6 C 3.81 g/m*3 -0.6 C 0 km/h
357 29-12-2010 23:24:02 -0.7 C 3.78 g/m*3 -0.7 C 0 km/h
358 29-12-2010 23:36:01 -0.7 C 3.83 g/m*3 -0.7 C 0 km/h
359 29-12-2010 23:49:59 -0.9 C 3.78 g/m*3 -0.9 C 0 km/h
360 30-12-2010 00:12:59 -0.9 C 3.78 g/m*3 -0.9 C 0 km/h
361 30-12-2010 00:24:59 -0.9 C 3.82 g/m*3 -0.9 C 0 km/h
362 30-12-2010 00:36:59 -0.9 C 3.82 g/m*3 -0.9 C 0 km/h
363 30-12-2010 00:48:59 -1 C 3.75 g/m*3 -1 C 0 km/h
364 30-12-2010 01:00:59 -1.1 C 3.73 g/m*3 -1.1 C 0 km/h
365 30-12-2010 01:12:59 -1.4 C 3.65 g/m*3 -1.4 C 0 km/h
366 30-12-2010 01:24:59 -1.3 C 3.72 g/m*3 -1.3 C 0 km/h
367 30-12-2010 01:36:59 -1.3 C 3.72 g/m*3 -1.3 C 0 km/h
368 30-12-2010 01:49:00 -1.5 C 3.67 g/m*3 -1.5 C 0 km/h
369 30-12-2010 02:01:00 -1.5 C 3.71 g/m*3 -1.5 C 0 km/h
370 30-12-2010 02:13:00 -1.6 C 3.68 g/m*3 -1.6 C 0 km/h
371 30-12-2010 02:25:00 -1.5 C 3.75 g/m*3 -1.5 C 0 km/h
372 30-12-2010 02:37:00 -1.4 C 3.78 g/m*3 -1.4 C 0 km/h
373 30-12-2010 02:49:00 -1.3 C 3.81 g/m*3 -1.3 C 0 km/h
374 30-12-2010 03:01:00 -1.2 C 3.83 g/m*3 -1.2 C 0 km/h
375 30-12-2010 03:13:00 -1.2 C 3.83 g/m*3 -1.2 C 0 km/h
Sensor: Nr:Datum:Temp:Abs-Feuchte:Windchill:Wind:
Aussen-T/F 376 30-12-2010 03:25:00 -1.1 C 3.86 g/m*3 -1.1 C 0 km/h
377 30-12-2010 03:37:00 -1.1 C 3.86 g/m*3 -1.1 C 0 km/h
378 30-12-2010 03:49:00 -1.1 C 3.86 g/m*3 -1.1 C 0 km/h
379 30-12-2010 04:01:00 -1.1 C 3.82 g/m*3 -1.1 C 0 km/h
380 30-12-2010 04:13:00 -1.1 C 3.82 g/m*3 -1.1 C 0 km/h
381 30-12-2010 04:25:00 -1.1 C 3.77 g/m*3 -1.1 C 0 km/h
382 30-12-2010 04:37:00 -1.2 C 3.7 g/m*3 -1.2 C 0 km/h
383 30-12-2010 04:49:00 -1.2 C 3.7 g/m*3 -1.2 C 0 km/h
384 30-12-2010 05:01:00 -1.2 C 3.7 g/m*3 -1.2 C 0 km/h
385 30-12-2010 05:13:00 -1.2 C 3.66 g/m*3 -1.2 C 0 km/h
386 30-12-2010 05:25:00 -1.2 C 3.61 g/m*3 -1.2 C 0 km/h
387 30-12-2010 05:37:00 -1.2 C 3.61 g/m*3 -1.2 C 0 km/h
388 30-12-2010 05:49:01 -9.3 C 2.01 g/m*3 -9.3 C 0 km/h
389 30-12-2010 06:01:01 -1.2 C 3.57 g/m*3 -1.2 C 0 km/h
390 30-12-2010 06:13:01 -1.2 C 3.57 g/m*3 -1.2 C 0 km/h
391 30-12-2010 06:25:01 -1.2 C 3.52 g/m*3 -1.2 C 0 km/h
392 30-12-2010 06:37:01 -1.3 C 3.5 g/m*3 -1.3 C 0 km/h
393 30-12-2010 06:49:01 -1.3 C 3.5 g/m*3 -1.3 C 0 km/h
394 30-12-2010 07:01:01 -1.3 C 3.45 g/m*3 -1.3 C 0 km/h
395 30-12-2010 07:13:01 -1.3 C 3.45 g/m*3 -1.3 C 0 km/h
396 30-12-2010 07:25:01 -1.3 C 3.45 g/m*3 -1.3 C 0 km/h
397 30-12-2010 07:37:01 -1.4 C 3.43 g/m*3 -1.4 C 0 km/h
398 30-12-2010 07:49:01 -1.4 C 3.43 g/m*3 -1.4 C 0 km/h
399 30-12-2010 08:01:01 -1.4 C 3.43 g/m*3 -1.4 C 0 km/h
400 30-12-2010 08:13:01 -1.4 C 3.43 g/m*3 -1.4 C 0 km/h
Sensor: Nr:Datum:Temp:Abs-Feuchte:Windchill:Wind:
Aussen-T/F 401 30-12-2010 08:25:01 -1.4 C 3.43 g/m*3 -1.4 C 0 km/h
402 30-12-2010 08:37:01 -1.4 C 3.47 g/m*3 -1.4 C 0 km/h
403 30-12-2010 08:49:01 -1.4 C 3.47 g/m*3 -1.4 C 0 km/h
404 30-12-2010 09:01:01 -1.3 C 3.45 g/m*3 -1.3 C 0 km/h
405 30-12-2010 09:13:01 -1.2 C 3.48 g/m*3 -1.2 C 0 km/h
406 30-12-2010 09:25:01 -1.1 C 3.5 g/m*3 -1.1 C 0 km/h
407 30-12-2010 09:37:01 -1 C 3.44 g/m*3 -1 C 0 km/h
408 30-12-2010 09:49:02 -0.9 C 3.46 g/m*3 -0.9 C 0 km/h
409 30-12-2010 10:01:02 -0.7 C 3.46 g/m*3 -0.7 C 0 km/h
410 30-12-2010 10:01:03 -0.8 C 3.39 g/m*3 -0.8 C 0 km/h
411 30-12-2010 10:13:03 -0.6 C 3.44 g/m*3 -0.6 C 0 km/h
412 30-12-2010 10:25:02 -0.3 C 3.51 g/m*3 -0.3 C 0 km/h
413 30-12-2010 10:37:03 -0.3 C 3.46 g/m*3 -0.3 C 0 km/h
414 30-12-2010 10:49:01 0 C 3.49 g/m*3 0 C 0 km/h
415 30-12-2010 11:01:02 0.1 C 3.51 g/m*3 0.1 C 0 km/h
416 30-12-2010 11:13:02 -0.1 C 3.51 g/m*3 -0.1 C 0 km/h
417 30-12-2010 11:25:02 0 C 3.54 g/m*3 0 C 0 km/h
418 30-12-2010 11:37:02 0.1 C 3.51 g/m*3 0.1 C 0 km/h
419 30-12-2010 11:49:02 0.3 C 3.56 g/m*3 0.3 C 0 km/h
420 30-12-2010 12:01:02 0.4 C 3.59 g/m*3 0.4 C 0 km/h
421 30-12-2010 12:13:02 0.3 C 3.56 g/m*3 0.3 C 0 km/h
422 30-12-2010 12:25:02 0.5 C 3.61 g/m*3 0.5 C 0 km/h
423 30-12-2010 12:37:01 0.7 C 3.56 g/m*3 0.7 C 0 km/h
424 30-12-2010 12:49:02 1.1 C 3.61 g/m*3 1.1 C 0 km/h
425 30-12-2010 13:01:01 0.9 C 3.51 g/m*3 0.9 C 0 km/h
Sensor: Nr:Datum:Temp:Abs-Feuchte:Windchill:Wind:
Aussen-T/F 426 30-12-2010 13:13:01 1 C 3.58 g/m*3 1 C 0 km/h
427 30-12-2010 13:25:02 1.1 C 3.61 g/m*3 1.1 C 0 km/h
428 30-12-2010 13:37:02 1.5 C 3.65 g/m*3 1.5 C 0 km/h
429 30-12-2010 13:49:02 1.5 C 3.6 g/m*3 1.5 C 0 km/h
430 30-12-2010 14:01:02 1.5 C 3.6 g/m*3 1.5 C 0 km/h
431 30-12-2010 14:13:02 1.4 C 3.57 g/m*3 1.4 C 0 km/h
432 30-12-2010 14:25:02 1 C 3.53 g/m*3 1 C 0 km/h
433 30-12-2010 14:37:02 1.3 C 3.66 g/m*3 1.3 C 0 km/h
434 30-12-2010 14:49:01 1.4 C 3.68 g/m*3 1.4 C 0 km/h
435 30-12-2010 15:01:02 1.4 C 3.68 g/m*3 1.4 C 0 km/h
436 30-12-2010 15:13:02 1.1 C 3.61 g/m*3 1.1 C 0 km/h
437 30-12-2010 15:25:01 0.9 C 3.66 g/m*3 0.9 C 0 km/h
438 30-12-2010 15:37:02 0.8 C 3.69 g/m*3 0.8 C 0 km/h
439 30-12-2010 15:49:01 0.7 C 3.71 g/m*3 0.7 C 0 km/h
440 30-12-2010 16:01:02 0.6 C 3.74 g/m*3 0.6 C 0 km/h
441 30-12-2010 16:13:03 0.3 C 3.71 g/m*3 0.3 C 0 km/h
442 30-12-2010 16:25:01 0.3 C 3.76 g/m*3 0.3 C 0 km/h
443 30-12-2010 16:37:02 0.2 C 3.68 g/m*3 0.2 C 0 km/h
444 30-12-2010 16:49:01 0.1 C 3.76 g/m*3 0.1 C 0 km/h
445 30-12-2010 17:01:02 0.1 C 3.76 g/m*3 0.1 C 0 km/h
446 30-12-2010 17:13:02 0.1 C 3.76 g/m*3 0.1 C 0 km/h
447 30-12-2010 17:25:02 0.1 C 3.76 g/m*3 0.1 C 0 km/h
448 30-12-2010 17:37:01 0.1 C 3.76 g/m*3 0.1 C 0 km/h
449 30-12-2010 17:49:02 -0.2 C 3.68 g/m*3 -0.2 C 0 km/h
450 30-12-2010 18:01:01 -0.1 C 3.71 g/m*3 -0.1 C 0 km/h
Sensor: Nr:Datum:Temp:Abs-Feuchte:Windchill:Wind:
Aussen-T/F 451 30-12-2010 18:13:01 -0.2 C 3.68 g/m*3 -0.2 C 0 km/h
452 30-12-2010 18:25:02 -0.4 C 3.63 g/m*3 -0.4 C 0 km/h
453 30-12-2010 18:37:01 -0.4 C 3.68 g/m*3 -0.4 C 0 km/h
454 30-12-2010 18:49:03 -0.4 C 3.72 g/m*3 -0.4 C 0 km/h
455 30-12-2010 19:01:02 -0.4 C 3.72 g/m*3 -0.4 C 0 km/h
456 30-12-2010 19:13:02 -0.4 C 3.77 g/m*3 -0.4 C 0 km/h
457 30-12-2010 19:25:02 -0.5 C 3.74 g/m*3 -0.5 C 0 km/h
458 30-12-2010 19:37:03 -0.5 C 3.74 g/m*3 -0.5 C 0 km/h
459 30-12-2010 19:49:02 -0.4 C 3.77 g/m*3 -0.4 C 0 km/h
460 30-12-2010 20:01:01 -0.4 C 3.72 g/m*3 -0.4 C 0 km/h
461 30-12-2010 20:13:01 -0.5 C 3.7 g/m*3 -0.5 C 0 km/h
462 30-12-2010 20:25:02 -0.5 C 3.7 g/m*3 -0.5 C 0 km/h
463 30-12-2010 20:37:02 -0.5 C 3.74 g/m*3 -0.5 C 0 km/h
464 30-12-2010 20:49:01 -0.5 C 3.7 g/m*3 -0.5 C 0 km/h
465 30-12-2010 21:01:02 -0.5 C 3.65 g/m*3 -0.5 C 0 km/h
466 30-12-2010 21:13:02 -0.6 C 3.63 g/m*3 -0.6 C 0 km/h
467 30-12-2010 21:25:01 -0.6 C 3.63 g/m*3 -0.6 C 0 km/h
468 30-12-2010 21:37:02 -0.7 C 3.6 g/m*3 -0.7 C 0 km/h
469 30-12-2010 21:49:02 -0.6 C 3.63 g/m*3 -0.6 C 0 km/h
470 30-12-2010 22:01:02 -0.7 C 3.65 g/m*3 -0.7 C 0 km/h
471 30-12-2010 22:13:03 -0.7 C 3.6 g/m*3 -0.7 C 0 km/h
472 30-12-2010 22:25:01 -0.8 C 3.58 g/m*3 -0.8 C 0 km/h
473 30-12-2010 22:37:02 -0.8 C 3.58 g/m*3 -0.8 C 0 km/h
474 30-12-2010 22:49:01 -0.9 C 3.55 g/m*3 -0.9 C 0 km/h
475 30-12-2010 23:01:02 -0.9 C 3.55 g/m*3 -0.9 C 0 km/h
Sensor: Nr:Datum:Temp:Abs-Feuchte:Windchill:Wind:
Aussen-T/F 476 30-12-2010 23:13:02 -0.9 C 3.55 g/m*3 -0.9 C 0 km/h
477 30-12-2010 23:25:02 -0.9 C 3.51 g/m*3 -0.9 C 0 km/h
478 30-12-2010 23:37:01 -1 C 3.48 g/m*3 -1 C 0 km/h
479 30-12-2010 23:49:02 -1.1 C 3.46 g/m*3 -1.1 C 0 km/h
480 31-12-2010 00:01:01 -1.1 C 3.46 g/m*3 -1.1 C 0 km/h
481 31-12-2010 00:13:01 -1.1 C 3.5 g/m*3 -1.1 C 0 km/h
482 31-12-2010 00:25:02 -1.1 C 3.5 g/m*3 -1.1 C 0 km/h
483 31-12-2010 00:37:01 -1.1 C 3.5 g/m*3 -1.1 C 0 km/h
484 31-12-2010 00:49:03 -1.1 C 3.5 g/m*3 -1.1 C 0 km/h
485 31-12-2010 01:01:02 -1.1 C 3.55 g/m*3 -1.1 C 0 km/h
486 31-12-2010 01:13:02 -1.1 C 3.55 g/m*3 -1.1 C 0 km/h
487 31-12-2010 01:25:02 -1.1 C 3.55 g/m*3 -1.1 C 0 km/h
488 31-12-2010 01:37:03 -1.2 C 3.52 g/m*3 -1.2 C 0 km/h
489 31-12-2010 01:49:02 -1.2 C 3.52 g/m*3 -1.2 C 0 km/h
490 31-12-2010 02:01:02 -1.3 C 3.5 g/m*3 -1.3 C 0 km/h
491 31-12-2010 02:13:02 -1.3 C 3.5 g/m*3 -1.3 C 0 km/h
492 31-12-2010 02:25:02 -1.2 C 3.52 g/m*3 -1.2 C 0 km/h
493 31-12-2010 02:37:02 -1.4 C 3.47 g/m*3 -1.4 C 0 km/h
494 31-12-2010 02:50:04 -1.5 C 3.45 g/m*3 -1.5 C 0 km/h
495 31-12-2010 03:02:04 -1.6 C 3.42 g/m*3 -1.6 C 0 km/h
496 31-12-2010 03:14:05 -1.6 C 3.42 g/m*3 -1.6 C 0 km/h
497 31-12-2010 03:26:05 -1.8 C 3.38 g/m*3 -1.8 C 0 km/h
498 31-12-2010 03:38:02 -1.9 C 3.4 g/m*3 -1.9 C 0 km/h
499 31-12-2010 03:50:03 -1.9 C 3.4 g/m*3 -1.9 C 0 km/h
500 31-12-2010 04:02:01 -1.9 C 3.4 g/m*3 -1.9 C 0 km/h
Sensor: Nr:Datum:Temp:Abs-Feuchte:Windchill:Wind:
Aussen-T/F 501 31-12-2010 04:14:01 -2 C 3.37 g/m*3 -2 C 0 km/h
502 31-12-2010 04:26:02 -2 C 3.37 g/m*3 -2 C 0 km/h
503 31-12-2010 04:38:02 -2 C 3.37 g/m*3 -2 C 0 km/h
504 31-12-2010 04:50:01 -2 C 3.37 g/m*3 -2 C 0 km/h
505 31-12-2010 05:02:02 -2.1 C 3.35 g/m*3 -2.1 C 0 km/h
506 31-12-2010 05:14:02 -2.1 C 3.35 g/m*3 -2.1 C 0 km/h
507 31-12-2010 05:26:01 -2.1 C 3.35 g/m*3 -2.1 C 0 km/h
508 31-12-2010 05:38:02 -2.1 C 3.35 g/m*3 -2.1 C 0 km/h
509 31-12-2010 05:50:02 -2.2 C 3.28 g/m*3 -2.2 C 0 km/h
510 31-12-2010 06:02:02 -2.3 C 3.26 g/m*3 -2.3 C 0 km/h
511 31-12-2010 06:14:02 -2.3 C 3.26 g/m*3 -2.3 C 0 km/h
512 31-12-2010 06:26:01 -2.3 C 3.3 g/m*3 -2.3 C 0 km/h
513 31-12-2010 06:38:02 -2.2 C 3.33 g/m*3 -2.2 C 0 km/h
514 31-12-2010 06:50:02 -2.2 C 3.33 g/m*3 -2.2 C 0 km/h
515 31-12-2010 07:02:02 -2.2 C 3.33 g/m*3 -2.2 C 0 km/h
516 31-12-2010 07:14:02 -2.1 C 3.35 g/m*3 -2.1 C 0 km/h
517 31-12-2010 07:26:01 -2 C 3.41 g/m*3 -2 C 0 km/h
518 31-12-2010 07:38:02 -2.1 C 3.39 g/m*3 -2.1 C 0 km/h
519 31-12-2010 07:50:01 -2.2 C 3.33 g/m*3 -2.2 C 0 km/h
520 31-12-2010 08:02:02 -2.2 C 3.37 g/m*3 -2.2 C 0 km/h
521 31-12-2010 08:14:02 -2.1 C 3.39 g/m*3 -2.1 C 0 km/h
522 31-12-2010 08:26:02 -2.1 C 3.39 g/m*3 -2.1 C 0 km/h
523 31-12-2010 08:38:01 -2.1 C 3.39 g/m*3 -2.1 C 0 km/h
524 31-12-2010 08:50:02 -2.1 C 3.39 g/m*3 -2.1 C 0 km/h
525 31-12-2010 09:02:01 -2 C 3.41 g/m*3 -2 C 0 km/h
Sensor: Nr:Datum:Temp:Abs-Feuchte:Windchill:Wind:
Aussen-T/F 526 31-12-2010 09:14:01 -2.1 C 3.39 g/m*3 -2.1 C 0 km/h
527 31-12-2010 09:26:01 -2.2 C 3.37 g/m*3 -2.2 C 0 km/h
528 31-12-2010 09:38:01 -2.3 C 3.3 g/m*3 -2.3 C 0 km/h
529 31-12-2010 09:50:02 -2.3 C 3.3 g/m*3 -2.3 C 0 km/h
530 31-12-2010 10:02:01 -2.1 C 3.35 g/m*3 -2.1 C 0 km/h
531 31-12-2010 10:14:01 -2.1 C 3.35 g/m*3 -2.1 C 0 km/h
532 31-12-2010 10:26:02 -1.9 C 3.35 g/m*3 -1.9 C 0 km/h
533 31-12-2010 10:38:02 -1.7 C 3.36 g/m*3 -1.7 C 0 km/h
534 31-12-2010 10:50:02 -1.7 C 3.36 g/m*3 -1.7 C 0 km/h
535 31-12-2010 11:02:02 -1.5 C 3.36 g/m*3 -1.5 C 0 km/h
536 31-12-2010 11:14:02 -1.5 C 3.32 g/m*3 -1.5 C 0 km/h
537 31-12-2010 11:26:02 -1.2 C 3.39 g/m*3 -1.2 C 0 km/h
538 31-12-2010 11:38:02 -1 C 3.44 g/m*3 -1 C 0 km/h
539 31-12-2010 11:50:02 -0.9 C 3.41 g/m*3 -0.9 C 0 km/h
540 31-12-2010 12:02:02 -1.2 C 3.34 g/m*3 -1.2 C 0 km/h
541 31-12-2010 12:14:02 -1.1 C 3.41 g/m*3 -1.1 C 0 km/h
542 31-12-2010 12:26:02 -1.1 C 3.37 g/m*3 -1.1 C 0 km/h
543 31-12-2010 12:38:02 -0.7 C 3.42 g/m*3 -0.7 C 0 km/h
544 31-12-2010 12:50:01 -0.5 C 3.51 g/m*3 -0.5 C 0 km/h
545 31-12-2010 13:02:01 -0.6 C 3.44 g/m*3 -0.6 C 0 km/h
546 31-12-2010 13:14:01 -0.6 C 3.39 g/m*3 -0.6 C 0 km/h
547 31-12-2010 13:26:01 -0.2 C 3.49 g/m*3 -0.2 C 0 km/h
548 31-12-2010 13:38:01 0.1 C 3.51 g/m*3 0.1 C 0 km/h
549 31-12-2010 13:50:01 0.4 C 3.49 g/m*3 0.4 C 0 km/h
550 31-12-2010 14:02:01 0.2 C 3.29 g/m*3 0.2 C 0 km/h
Sensor: Nr:Datum:Temp:Abs-Feuchte:Windchill:Wind:
Aussen-T/F 551 31-12-2010 14:14:01 0.7 C 3.46 g/m*3 0.7 C 0 km/h
552 31-12-2010 14:26:02 0.4 C 3.39 g/m*3 0.4 C 0 km/h
553 31-12-2010 14:38:01 0.1 C 3.37 g/m*3 0.1 C 0 km/h
554 31-12-2010 14:50:02 -0.2 C 3.35 g/m*3 -0.2 C 0 km/h
555 31-12-2010 15:02:02 -0.3 C 3.37 g/m*3 -0.3 C 0 km/h
556 31-12-2010 15:14:02 -0.4 C 3.39 g/m*3 -0.4 C 0 km/h
557 31-12-2010 15:26:02 -0.4 C 3.44 g/m*3 -0.4 C 0 km/h
558 31-12-2010 15:38:01 -0.3 C 3.46 g/m*3 -0.3 C 0 km/h
559 31-12-2010 15:50:02 -0.3 C 3.46 g/m*3 -0.3 C 0 km/h
560 31-12-2010 16:02:01 -0.5 C 3.46 g/m*3 -0.5 C 0 km/h
561 31-12-2010 16:14:01 -0.5 C 3.51 g/m*3 -0.5 C 0 km/h
562 31-12-2010 16:26:02 -0.6 C 3.53 g/m*3 -0.6 C 0 km/h
563 31-12-2010 16:38:02 -0.6 C 3.53 g/m*3 -0.6 C 0 km/h
564 31-12-2010 16:50:02 -0.6 C 3.58 g/m*3 -0.6 C 0 km/h
565 31-12-2010 17:02:02 -0.6 C 3.58 g/m*3 -0.6 C 0 km/h
566 31-12-2010 17:14:02 -0.6 C 3.58 g/m*3 -0.6 C 0 km/h
567 31-12-2010 17:26:02 -0.6 C 3.63 g/m*3 -0.6 C 0 km/h
568 31-12-2010 17:38:03 -0.6 C 3.67 g/m*3 -0.6 C 0 km/h
569 31-12-2010 17:50:02 -0.6 C 3.67 g/m*3 -0.6 C 0 km/h
570 31-12-2010 18:02:02 -0.6 C 3.67 g/m*3 -0.6 C 0 km/h
571 31-12-2010 18:14:02 -0.6 C 3.72 g/m*3 -0.6 C 0 km/h
572 31-12-2010 18:26:02 -0.5 C 3.79 g/m*3 -0.5 C 0 km/h
573 31-12-2010 18:38:02 -0.5 C 3.79 g/m*3 -0.5 C 0 km/h
574 31-12-2010 18:50:02 -0.5 C 3.84 g/m*3 -0.5 C 0 km/h
575 31-12-2010 19:02:02 -0.5 C 3.84 g/m*3 -0.5 C 0 km/h
Sensor: Nr:Datum:Temp:Abs-Feuchte:Windchill:Wind:
Aussen-T/F 576 31-12-2010 19:14:02 -0.6 C 3.81 g/m*3 -0.6 C 0 km/h
577 31-12-2010 19:26:02 -0.6 C 3.81 g/m*3 -0.6 C 0 km/h
578 31-12-2010 19:38:02 -0.6 C 3.81 g/m*3 -0.6 C 0 km/h
579 31-12-2010 19:50:02 -0.7 C 3.83 g/m*3 -0.7 C 0 km/h
580 31-12-2010 20:02:02 -0.7 C 3.88 g/m*3 -0.7 C 0 km/h
581 31-12-2010 20:14:03 -0.7 C 3.92 g/m*3 -0.7 C 0 km/h
582 31-12-2010 20:26:02 -0.7 C 3.92 g/m*3 -0.7 C 0 km/h
583 31-12-2010 20:38:02 -0.6 C 3.95 g/m*3 -0.6 C 0 km/h
584 31-12-2010 20:50:01 -0.5 C 4.03 g/m*3 -0.5 C 0 km/h
585 31-12-2010 21:02:01 -0.6 C 4 g/m*3 -0.6 C 0 km/h
586 31-12-2010 21:14:01 -0.6 C 4 g/m*3 -0.6 C 0 km/h
587 31-12-2010 21:26:02 -0.6 C 4 g/m*3 -0.6 C 0 km/h
588 31-12-2010 21:38:01 -0.6 C 4.04 g/m*3 -0.6 C 0 km/h
589 31-12-2010 21:50:02 -0.5 C 4.07 g/m*3 -0.5 C 0 km/h
590 31-12-2010 22:02:02 -0.4 C 4.1 g/m*3 -0.4 C 0 km/h
591 31-12-2010 22:14:02 -0.4 C 4.1 g/m*3 -0.4 C 0 km/h
592 31-12-2010 22:26:01 -0.4 C 4.1 g/m*3 -0.4 C 0 km/h
593 31-12-2010 22:38:01 -0.4 C 4.1 g/m*3 -0.4 C 0 km/h
594 31-12-2010 22:50:01 -0.3 C 4.13 g/m*3 -0.3 C 0 km/h
595 31-12-2010 23:02:02 -0.3 C 4.13 g/m*3 -0.3 C 0 km/h
596 31-12-2010 23:14:02 -0.3 C 4.13 g/m*3 -0.3 C 0 km/h
597 31-12-2010 23:26:01 -0.3 C 4.13 g/m*3 -0.3 C 0 km/h
598 31-12-2010 23:38:02 -0.4 C 4.1 g/m*3 -0.4 C 0 km/h
599 31-12-2010 23:38:02 -0.3 C 4.13 g/m*3 -0.3 C 0 km/h
600 31-12-2010 23:38:02 -0.4 C 4.1 g/m*3 -0.4 C 0 km/h
Sensor: Nr:Datum:Temp:Abs-Feuchte:Windchill:Wind:
Aussen-T/F 601 31-12-2010 23:38:02 -0.3 C 4.13 g/m*3 -0.3 C 0 km/h
602 31-12-2010 23:50:02 -0.3 C 4.13 g/m*3 -0.3 C 0 km/h
603 01-01-2011 00:02:02 -0.3 C 4.13 g/m*3 -0.3 C 0 km/h
604 01-01-2011 00:14:02 -0.3 C 4.13 g/m*3 -0.3 C 0 km/h
605 01-01-2011 00:26:02 -0.3 C 4.13 g/m*3 -0.3 C 0 km/h
606 01-01-2011 00:38:02 -0.3 C 4.13 g/m*3 -0.3 C 0 km/h
607 01-01-2011 00:50:02 -0.4 C 4.1 g/m*3 -0.4 C 0 km/h
608 01-01-2011 01:02:02 -0.4 C 4.15 g/m*3 -0.4 C 0 km/h
609 01-01-2011 01:14:02 -0.3 C 4.18 g/m*3 -0.3 C 0 km/h
610 01-01-2011 01:26:02 -0.3 C 4.18 g/m*3 -0.3 C 0 km/h
611 01-01-2011 01:38:02 -0.2 C 4.21 g/m*3 -0.2 C 0 km/h
612 01-01-2011 01:50:02 -0.2 C 4.21 g/m*3 -0.2 C 0 km/h
613 01-01-2011 02:02:02 -0.2 C 4.21 g/m*3 -0.2 C 0 km/h
614 01-01-2011 02:14:02 -0.2 C 4.21 g/m*3 -0.2 C 0 km/h
615 01-01-2011 02:26:02 -0.1 C 4.23 g/m*3 -0.1 C 0 km/h
616 01-01-2011 02:38:02 -0.1 C 4.23 g/m*3 -0.1 C 0 km/h
617 01-01-2011 02:50:03 -0.1 C 4.23 g/m*3 -0.1 C 0 km/h
618 01-01-2011 03:02:03 -0.2 C 4.21 g/m*3 -0.2 C 0 km/h
619 01-01-2011 03:12:01 -0.1 C 4.23 g/m*3 -0.1 C 0 km/h
620 01-01-2011 03:24:01 -0.1 C 4.23 g/m*3 -0.1 C 0 km/h
621 01-01-2011 03:34:02 -0.1 C 4.23 g/m*3 -0.1 C 0 km/h
622 01-01-2011 03:46:02 -0.2 C 4.21 g/m*3 -0.2 C 0 km/h
623 01-01-2011 03:58:02 -0.1 C 4.23 g/m*3 -0.1 C 0 km/h
624 01-01-2011 04:08:01 -0.2 C 4.21 g/m*3 -0.2 C 0 km/h
625 01-01-2011 04:19:01 -0.2 C 4.21 g/m*3 -0.2 C 0 km/h
Sensor: Nr:Datum:Temp:Abs-Feuchte:Windchill:Wind:
Aussen-T/F 626 01-01-2011 04:51:59 -0.2 C 4.21 g/m*3 -0.2 C 0 km/h
627 01-01-2011 05:03:59 -0.2 C 4.25 g/m*3 -0.2 C 0 km/h
628 01-01-2011 05:15:25 -0.2 C 4.25 g/m*3 -0.2 C 0 km/h
629 01-01-2011 05:27:41 0 C 4.31 g/m*3 0 C 0 km/h
630 01-01-2011 05:39:09 0.1 C 4.34 g/m*3 0.1 C 0 km/h
631 01-01-2011 05:51:09 0.2 C 4.32 g/m*3 0.2 C 0 km/h
632 01-01-2011 06:03:26 0.3 C 4.35 g/m*3 0.3 C 0 km/h
633 01-01-2011 06:15:52 0.3 C 4.3 g/m*3 0.3 C 0 km/h
634 01-01-2011 06:27:48 0.4 C 4.28 g/m*3 0.4 C 0 km/h
635 01-01-2011 06:39:48 0.4 C 4.28 g/m*3 0.4 C 0 km/h
636 01-01-2011 06:51:33 0.4 C 4.23 g/m*3 0.4 C 0 km/h
637 01-01-2011 07:03:29 0.4 C 4.23 g/m*3 0.4 C 0 km/h
638 01-01-2011 07:15:15 0.5 C 4.26 g/m*3 0.5 C 0 km/h
639 01-01-2011 07:27:11 0.5 C 4.26 g/m*3 0.5 C 0 km/h
640 01-01-2011 07:39:56 0.5 C 4.26 g/m*3 0.5 C 0 km/h
641 01-01-2011 07:51:52 0.6 C 4.24 g/m*3 0.6 C 0 km/h
642 01-01-2011 08:03:38 0.6 C 4.24 g/m*3 0.6 C 0 km/h
643 01-01-2011 08:15:38 0.7 C 4.27 g/m*3 0.7 C 0 km/h
644 01-01-2011 08:27:34 0.8 C 4.3 g/m*3 0.8 C 0 km/h
645 01-01-2011 08:39:19 1 C 4.36 g/m*3 1 C 0 km/h
646 01-01-2011 08:51:15 1 C 4.31 g/m*3 1 C 0 km/h
647 01-01-2011 09:03:01 0.8 C 4.3 g/m*3 0.8 C 0 km/h
648 01-01-2011 09:15:57 0.9 C 4.38 g/m*3 0.9 C 0 km/h
649 01-01-2011 09:27:43 1.2 C 4.42 g/m*3 1.2 C 0 km/h
650 01-01-2011 09:39:43 1.3 C 4.4 g/m*3 1.3 C 0 km/h
Sensor: Nr:Datum:Temp:Abs-Feuchte:Windchill:Wind:
Aussen-T/F 651 01-01-2011 09:51:38 1.2 C 4.42 g/m*3 1.2 C 0 km/h
652 01-01-2011 10:03:25 1.2 C 4.47 g/m*3 1.2 C 0 km/h
653 01-01-2011 10:15:19 1.3 C 4.56 g/m*3 1.3 C 0 km/h
654 01-01-2011 10:27:06 1.2 C 4.58 g/m*3 1.2 C 0 km/h
655 01-01-2011 10:39:01 1.5 C 4.67 g/m*3 1.5 C 0 km/h
656 01-01-2011 10:51:48 1.6 C 4.65 g/m*3 1.6 C 0 km/h
657 01-01-2011 11:03:48 1.8 C 4.71 g/m*3 1.8 C 0 km/h
658 01-01-2011 11:15:42 1.8 C 4.66 g/m*3 1.8 C 0 km/h
659 01-01-2011 11:27:29 1.8 C 4.66 g/m*3 1.8 C 0 km/h
660 01-01-2011 11:39:24 2 C 4.67 g/m*3 2 C 0 km/h
661 01-01-2011 11:51:01 2.3 C 4.71 g/m*3 2.3 C 0 km/h
662 01-01-2011 12:03:02 2.4 C 4.68 g/m*3 2.4 C 0 km/h
663 01-01-2011 12:15:01 2.5 C 4.66 g/m*3 2.5 C 0 km/h
664 01-01-2011 12:27:01 2.6 C 4.63 g/m*3 2.6 C 0 km/h
665 01-01-2011 12:39:02 2.4 C 4.57 g/m*3 2.4 C 0 km/h
666 01-01-2011 12:51:01 2.3 C 4.59 g/m*3 2.3 C 0 km/h
667 01-01-2011 13:03:02 2.6 C 4.69 g/m*3 2.6 C 0 km/h
668 01-01-2011 13:15:01 3 C 4.7 g/m*3 3 C 0 km/h
669 01-01-2011 13:27:01 3 C 4.58 g/m*3 3 C 0 km/h
670 01-01-2011 13:39:02 2.9 C 4.61 g/m*3 2.9 C 0 km/h
671 01-01-2011 13:51:01 3.1 C 4.55 g/m*3 3.1 C 0 km/h
672 01-01-2011 14:03:02 2.8 C 4.58 g/m*3 2.8 C 0 km/h
673 01-01-2011 14:15:02 2.7 C 4.6 g/m*3 2.7 C 0 km/h
674 01-01-2011 14:27:02 2.3 C 4.59 g/m*3 2.3 C 0 km/h
675 01-01-2011 14:39:02 2.5 C 4.71 g/m*3 2.5 C 0 km/h
Sensor: Nr:Datum:Temp:Abs-Feuchte:Windchill:Wind:
Aussen-T/F 676 01-01-2011 14:51:01 2.4 C 4.68 g/m*3 2.4 C 0 km/h
677 01-01-2011 15:03:01 2.4 C 4.68 g/m*3 2.4 C 0 km/h
678 01-01-2011 15:15:02 2.1 C 4.59 g/m*3 2.1 C 0 km/h
679 01-01-2011 15:27:02 2 C 4.61 g/m*3 2 C 0 km/h
680 01-01-2011 15:39:01 1.8 C 4.6 g/m*3 1.8 C 0 km/h
681 01-01-2011 15:51:01 1.8 C 4.71 g/m*3 1.8 C 0 km/h
682 01-01-2011 16:03:01 1.7 C 4.68 g/m*3 1.7 C 0 km/h
683 01-01-2011 16:15:02 1.6 C 4.7 g/m*3 1.6 C 0 km/h
684 01-01-2011 16:27:02 1.7 C 4.79 g/m*3 1.7 C 0 km/h
685 01-01-2011 16:39:01 1.4 C 4.69 g/m*3 1.4 C 0 km/h
686 01-01-2011 16:51:01 1.5 C 4.78 g/m*3 1.5 C 0 km/h
687 01-01-2011 17:03:01 1.5 C 4.78 g/m*3 1.5 C 0 km/h
688 01-01-2011 17:15:02 1.4 C 4.75 g/m*3 1.4 C 0 km/h
689 01-01-2011 17:27:02 1.3 C 4.72 g/m*3 1.3 C 0 km/h
690 01-01-2011 17:39:01 1.3 C 4.77 g/m*3 1.3 C 0 km/h
691 01-01-2011 17:51:03 1.2 C 4.74 g/m*3 1.2 C 0 km/h
692 01-01-2011 18:03:02 1.4 C 4.8 g/m*3 1.4 C 0 km/h
693 01-01-2011 18:15:02 1.4 C 4.85 g/m*3 1.4 C 0 km/h
694 01-01-2011 18:27:02 1.3 C 4.82 g/m*3 1.3 C 0 km/h
695 01-01-2011 18:39:02 1.4 C 4.85 g/m*3 1.4 C 0 km/h
696 01-01-2011 18:51:02 1.8 C 5.04 g/m*3 1.8 C 0 km/h
697 01-01-2011 19:03:02 2 C 5.06 g/m*3 2 C 0 km/h
698 01-01-2011 19:15:02 2 C 5.06 g/m*3 2 C 0 km/h
699 01-01-2011 19:27:02 2 C 5.06 g/m*3 2 C 0 km/h
700 01-01-2011 19:39:02 1.9 C 5.08 g/m*3 1.9 C 0 km/h
Sensor: Nr:Datum:Temp:Abs-Feuchte:Windchill:Wind:
Aussen-T/F 701 01-01-2011 19:51:02 1.9 C 5.02 g/m*3 1.9 C 0 km/h
702 01-01-2011 20:03:01 1.9 C 5.02 g/m*3 1.9 C 0 km/h
703 01-01-2011 20:15:01 1.7 C 4.95 g/m*3 1.7 C 0 km/h
704 01-01-2011 20:27:01 1.7 C 4.9 g/m*3 1.7 C 0 km/h
705 01-01-2011 20:39:02 1.8 C 4.93 g/m*3 1.8 C 0 km/h
706 01-01-2011 20:51:02 1.5 C 4.83 g/m*3 1.5 C 0 km/h
707 01-01-2011 21:03:02 1.4 C 4.8 g/m*3 1.4 C 0 km/h
708 01-01-2011 21:15:02 1.2 C 4.74 g/m*3 1.2 C 0 km/h
709 01-01-2011 21:27:02 1.2 C 4.74 g/m*3 1.2 C 0 km/h
710 01-01-2011 21:39:02 1.1 C 4.7 g/m*3 1.1 C 0 km/h
711 01-01-2011 21:52:23 1 C 4.67 g/m*3 1 C 0 km/h
712 01-01-2011 22:04:23 1 C 4.67 g/m*3 1 C 0 km/h
713 01-01-2011 22:16:23 1 C 4.72 g/m*3 1 C 0 km/h
714 01-01-2011 22:28:23 1.3 C 4.82 g/m*3 1.3 C 0 km/h
715 01-01-2011 22:40:24 1.4 C 4.85 g/m*3 1.4 C 0 km/h
716 01-01-2011 22:52:24 0.6 C 4.6 g/m*3 0.6 C 0 km/h
717 01-01-2011 23:04:24 0.3 C 4.5 g/m*3 0.3 C 0 km/h
718 01-01-2011 23:16:01 0.6 C 4.6 g/m*3 0.6 C 0 km/h
719 01-01-2011 23:28:01 0.2 C 4.47 g/m*3 0.2 C 0 km/h
720 01-01-2011 23:40:01 0.2 C 4.47 g/m*3 0.2 C 0 km/h
721 01-01-2011 23:52:01 0.2 C 4.47 g/m*3 0.2 C 0 km/h
722 02-01-2011 00:04:01 -0.1 C 4.38 g/m*3 -0.1 C 0 km/h
723 02-01-2011 00:16:01 0.1 C 4.49 g/m*3 0.1 C 0 km/h
724 02-01-2011 00:28:01 0.3 C 4.55 g/m*3 0.3 C 0 km/h
725 02-01-2011 00:40:01 0.3 C 4.55 g/m*3 0.3 C 0 km/h
Sensor: Nr:Datum:Temp:Abs-Feuchte:Windchill:Wind:
Aussen-T/F 726 02-01-2011 00:52:01 0.3 C 4.55 g/m*3 0.3 C 0 km/h
727 02-01-2011 01:04:01 0.3 C 4.55 g/m*3 0.3 C 0 km/h
728 02-01-2011 01:16:01 0.4 C 4.58 g/m*3 0.4 C 0 km/h
729 02-01-2011 01:28:02 0.2 C 4.52 g/m*3 0.2 C 0 km/h
730 02-01-2011 01:40:02 0.3 C 4.55 g/m*3 0.3 C 0 km/h
731 02-01-2011 01:52:02 0.4 C 4.63 g/m*3 0.4 C 0 km/h
732 02-01-2011 02:04:02 0.5 C 4.66 g/m*3 0.5 C 0 km/h
733 02-01-2011 02:16:02 0.4 C 4.63 g/m*3 0.4 C 0 km/h
734 02-01-2011 02:28:02 0 C 4.46 g/m*3 0 C 0 km/h
735 02-01-2011 02:40:02 0.3 C 4.6 g/m*3 0.3 C 0 km/h
736 02-01-2011 02:52:02 0.6 C 4.7 g/m*3 0.6 C 0 km/h
737 02-01-2011 03:04:02 0.6 C 4.7 g/m*3 0.6 C 0 km/h
738 02-01-2011 03:16:02 0.3 C 4.6 g/m*3 0.3 C 0 km/h
739 02-01-2011 03:28:02 0.3 C 4.6 g/m*3 0.3 C 0 km/h
740 02-01-2011 03:40:02 0.4 C 4.63 g/m*3 0.4 C 0 km/h
741 02-01-2011 03:52:02 0.6 C 4.7 g/m*3 0.6 C 0 km/h
742 02-01-2011 04:04:02 0.5 C 4.66 g/m*3 0.5 C 0 km/h
743 02-01-2011 04:16:02 0.5 C 4.66 g/m*3 0.5 C 0 km/h
744 02-01-2011 04:28:02 0.6 C 4.7 g/m*3 0.6 C 0 km/h
745 02-01-2011 04:40:02 0.6 C 4.7 g/m*3 0.6 C 0 km/h
746 02-01-2011 04:52:02 0.3 C 4.55 g/m*3 0.3 C 0 km/h
747 02-01-2011 05:04:02 0.2 C 4.52 g/m*3 0.2 C 0 km/h
748 02-01-2011 05:16:02 0.3 C 4.55 g/m*3 0.3 C 0 km/h
749 02-01-2011 05:28:03 0.2 C 4.52 g/m*3 0.2 C 0 km/h
750 02-01-2011 05:40:03 0.3 C 4.55 g/m*3 0.3 C 0 km/h
Sensor: Nr:Datum:Temp:Abs-Feuchte:Windchill:Wind:
Aussen-T/F 751 02-01-2011 05:52:03 0.4 C 4.58 g/m*3 0.4 C 0 km/h
752 02-01-2011 06:04:03 0.3 C 4.55 g/m*3 0.3 C 0 km/h
753 02-01-2011 06:16:03 0.3 C 4.55 g/m*3 0.3 C 0 km/h
754 02-01-2011 06:28:03 0.5 C 4.61 g/m*3 0.5 C 0 km/h
755 02-01-2011 06:40:03 0.4 C 4.58 g/m*3 0.4 C 0 km/h
756 02-01-2011 06:52:03 0 C 4.41 g/m*3 0 C 0 km/h
757 02-01-2011 07:04:03 0.2 C 4.47 g/m*3 0.2 C 0 km/h
758 02-01-2011 07:16:03 0.4 C 4.53 g/m*3 0.4 C 0 km/h
759 02-01-2011 07:28:03 0.4 C 4.48 g/m*3 0.4 C 0 km/h
760 02-01-2011 07:40:03 0.2 C 4.42 g/m*3 0.2 C 0 km/h
761 02-01-2011 07:52:03 0.3 C 4.45 g/m*3 0.3 C 0 km/h
762 02-01-2011 08:04:03 0.4 C 4.43 g/m*3 0.4 C 0 km/h
763 02-01-2011 08:16:03 0 C 4.31 g/m*3 0 C 0 km/h
764 02-01-2011 08:28:03 -0.4 C 4.15 g/m*3 -0.4 C 0 km/h
765 02-01-2011 08:40:03 0.2 C 4.37 g/m*3 0.2 C 0 km/h
766 02-01-2011 08:52:03 0.4 C 4.43 g/m*3 0.4 C 0 km/h
767 02-01-2011 09:04:03 0.3 C 4.4 g/m*3 0.3 C 0 km/h
768 02-01-2011 09:16:03 0.3 C 4.4 g/m*3 0.3 C 0 km/h
769 02-01-2011 09:28:04 0.5 C 4.46 g/m*3 0.5 C 0 km/h
770 02-01-2011 09:40:04 0.7 C 4.53 g/m*3 0.7 C 0 km/h
771 02-01-2011 09:52:02 0.9 C 4.59 g/m*3 0.9 C 0 km/h
772 02-01-2011 10:04:02 1.1 C 4.6 g/m*3 1.1 C 0 km/h
773 02-01-2011 10:16:02 1.5 C 4.67 g/m*3 1.5 C 0 km/h
774 02-01-2011 10:28:02 1.3 C 4.45 g/m*3 1.3 C 0 km/h
775 02-01-2011 10:40:02 1.6 C 4.38 g/m*3 1.6 C 0 km/h
Sensor: Nr:Datum:Temp:Abs-Feuchte:Windchill:Wind:
Aussen-T/F 776 02-01-2011 10:52:01 1.6 C 4.22 g/m*3 1.6 C 0 km/h
777 02-01-2011 11:04:02 1.9 C 4.19 g/m*3 1.9 C 0 km/h
778 02-01-2011 11:16:01 1.5 C 4.08 g/m*3 1.5 C 0 km/h
779 02-01-2011 11:28:01 1.5 C 4.14 g/m*3 1.5 C 0 km/h
780 02-01-2011 11:40:01 2.1 C 4.25 g/m*3 2.1 C 0 km/h
781 02-01-2011 11:52:02 2 C 4.11 g/m*3 2 C 0 km/h
782 02-01-2011 12:04:01 1.9 C 4.19 g/m*3 1.9 C 0 km/h
783 02-01-2011 12:16:02 1.9 C 4.19 g/m*3 1.9 C 0 km/h
784 02-01-2011 12:28:02 2.2 C 4.11 g/m*3 2.2 C 0 km/h
785 02-01-2011 12:40:01 2.1 C 4.14 g/m*3 2.1 C 0 km/h
786 02-01-2011 12:52:03 2.2 C 4.17 g/m*3 2.2 C 0 km/h
787 02-01-2011 13:04:02 2 C 4.06 g/m*3 2 C 0 km/h
788 02-01-2011 13:16:02 2.6 C 4.28 g/m*3 2.6 C 0 km/h
789 02-01-2011 13:28:02 2.7 C 4.2 g/m*3 2.7 C 0 km/h
790 02-01-2011 13:40:02 2.6 C 4.11 g/m*3 2.6 C 0 km/h
791 02-01-2011 13:52:02 2.6 C 4.05 g/m*3 2.6 C 0 km/h
792 02-01-2011 14:04:02 2.5 C 4.08 g/m*3 2.5 C 0 km/h
793 02-01-2011 14:16:02 2.1 C 3.97 g/m*3 2.1 C 0 km/h
794 02-01-2011 14:28:02 1.6 C 4 g/m*3 1.6 C 0 km/h
795 02-01-2011 14:40:03 2.2 C 4.17 g/m*3 2.2 C 0 km/h
796 02-01-2011 14:52:02 2.7 C 4.14 g/m*3 2.7 C 0 km/h
797 02-01-2011 15:04:02 2.2 C 4 g/m*3 2.2 C 0 km/h
798 02-01-2011 15:16:03 2.2 C 4.06 g/m*3 2.2 C 0 km/h
799 02-01-2011 15:28:03 1.9 C 4.03 g/m*3 1.9 C 0 km/h
800 02-01-2011 15:40:02 0.6 C 3.79 g/m*3 0.6 C 0 km/h
Sensor: Nr:Datum:Temp:Abs-Feuchte:Windchill:Wind:
Aussen-T/F 801 02-01-2011 15:52:02 1.6 C 4.27 g/m*3 1.6 C 0 km/h
802 02-01-2011 16:04:02 1.8 C 4.28 g/m*3 1.8 C 0 km/h
803 02-01-2011 16:16:02 1.8 C 4.22 g/m*3 1.8 C 0 km/h
804 02-01-2011 16:28:02 1.5 C 4.14 g/m*3 1.5 C 0 km/h
805 02-01-2011 16:40:03 1.3 C 4.13 g/m*3 1.3 C 0 km/h
806 02-01-2011 16:52:03 0.8 C 4.2 g/m*3 0.8 C 0 km/h
807 02-01-2011 17:04:02 0.6 C 4.24 g/m*3 0.6 C 0 km/h
808 02-01-2011 17:16:01 0.8 C 4.4 g/m*3 0.8 C 0 km/h
809 02-01-2011 17:28:01 0.7 C 4.37 g/m*3 0.7 C 0 km/h
810 02-01-2011 17:40:02 0.7 C 4.42 g/m*3 0.7 C 0 km/h
811 02-01-2011 17:52:02 0.5 C 4.36 g/m*3 0.5 C 0 km/h
812 02-01-2011 18:04:02 0.5 C 4.41 g/m*3 0.5 C 0 km/h
813 02-01-2011 18:16:01 0.6 C 4.44 g/m*3 0.6 C 0 km/h
814 02-01-2011 18:28:01 0.6 C 4.44 g/m*3 0.6 C 0 km/h
815 02-01-2011 18:40:02 0.7 C 4.47 g/m*3 0.7 C 0 km/h
816 02-01-2011 18:52:02 0.7 C 4.47 g/m*3 0.7 C 0 km/h
817 02-01-2011 19:04:02 0.5 C 4.41 g/m*3 0.5 C 0 km/h
818 02-01-2011 19:16:03 0.6 C 4.44 g/m*3 0.6 C 0 km/h
819 02-01-2011 19:28:03 0.6 C 4.44 g/m*3 0.6 C 0 km/h
820 02-01-2011 19:40:02 0.7 C 4.47 g/m*3 0.7 C 0 km/h
821 02-01-2011 19:52:02 0.5 C 4.41 g/m*3 0.5 C 0 km/h
822 02-01-2011 20:04:02 0.6 C 4.44 g/m*3 0.6 C 0 km/h
823 02-01-2011 20:16:02 0.6 C 4.44 g/m*3 0.6 C 0 km/h
824 02-01-2011 20:28:02 0.5 C 4.36 g/m*3 0.5 C 0 km/h
825 02-01-2011 20:40:02 0.3 C 4.3 g/m*3 0.3 C 0 km/h
Sensor: Nr:Datum:Temp:Abs-Feuchte:Windchill:Wind:
Aussen-T/F 826 02-01-2011 20:52:02 0.1 C 4.24 g/m*3 0.1 C 0 km/h
827 02-01-2011 21:04:02 0.2 C 4.32 g/m*3 0.2 C 0 km/h
828 02-01-2011 21:16:02 0.3 C 4.35 g/m*3 0.3 C 0 km/h
829 02-01-2011 21:28:03 0.3 C 4.35 g/m*3 0.3 C 0 km/h
830 02-01-2011 21:40:02 0.1 C 4.29 g/m*3 0.1 C 0 km/h
831 02-01-2011 21:52:02 0 C 4.26 g/m*3 0 C 0 km/h
832 02-01-2011 22:04:02 0.3 C 4.35 g/m*3 0.3 C 0 km/h
833 02-01-2011 22:17:03 0.3 C 4.35 g/m*3 0.3 C 0 km/h
834 02-01-2011 22:29:03 0.1 C 4.24 g/m*3 0.1 C 0 km/h
835 02-01-2011 22:41:03 0.2 C 4.27 g/m*3 0.2 C 0 km/h
836 02-01-2011 22:53:03 0.1 C 4.24 g/m*3 0.1 C 0 km/h
837 02-01-2011 23:05:03 0.2 C 4.32 g/m*3 0.2 C 0 km/h
838 02-01-2011 23:17:03 0.1 C 4.29 g/m*3 0.1 C 0 km/h
839 02-01-2011 23:29:03 0.1 C 4.29 g/m*3 0.1 C 0 km/h
840 02-01-2011 23:41:03 0.1 C 4.29 g/m*3 0.1 C 0 km/h
841 02-01-2011 23:53:03 0.1 C 4.29 g/m*3 0.1 C 0 km/h
842 03-01-2011 00:05:03 0.1 C 4.34 g/m*3 0.1 C 0 km/h
843 03-01-2011 00:17:03 0.1 C 4.34 g/m*3 0.1 C 0 km/h
844 03-01-2011 00:29:03 0.2 C 4.37 g/m*3 0.2 C 0 km/h
845 03-01-2011 00:41:03 0.1 C 4.34 g/m*3 0.1 C 0 km/h
846 03-01-2011 00:53:03 0.1 C 4.29 g/m*3 0.1 C 0 km/h
847 03-01-2011 01:05:03 0 C 4.26 g/m*3 0 C 0 km/h
848 03-01-2011 01:17:03 0.1 C 4.29 g/m*3 0.1 C 0 km/h
849 03-01-2011 01:29:03 0.1 C 4.29 g/m*3 0.1 C 0 km/h
850 03-01-2011 01:41:03 0 C 4.26 g/m*3 0 C 0 km/h
Sensor: Nr:Datum:Temp:Abs-Feuchte:Windchill:Wind:
Aussen-T/F 851 03-01-2011 01:53:03 0.1 C 4.29 g/m*3 0.1 C 0 km/h
852 03-01-2011 02:05:04 0 C 4.26 g/m*3 0 C 0 km/h
853 03-01-2011 02:17:04 0 C 4.26 g/m*3 0 C 0 km/h
854 03-01-2011 02:29:04 -0.2 C 4.21 g/m*3 -0.2 C 0 km/h
855 03-01-2011 02:41:04 -0.2 C 4.21 g/m*3 -0.2 C 0 km/h
856 03-01-2011 02:53:04 -0.4 C 4.15 g/m*3 -0.4 C 0 km/h
857 03-01-2011 03:05:04 -0.2 C 4.21 g/m*3 -0.2 C 0 km/h
858 03-01-2011 03:17:04 -0.2 C 4.21 g/m*3 -0.2 C 0 km/h
859 03-01-2011 03:29:04 -0.3 C 4.13 g/m*3 -0.3 C 0 km/h
860 03-01-2011 03:41:04 -0.4 C 4.05 g/m*3 -0.4 C 0 km/h
861 03-01-2011 03:53:04 -0.4 C 4.01 g/m*3 -0.4 C 0 km/h
862 03-01-2011 04:05:04 -0.6 C 3.9 g/m*3 -0.6 C 0 km/h
863 03-01-2011 04:17:04 -1.1 C 3.77 g/m*3 -1.1 C 0 km/h
864 03-01-2011 04:29:04 -0.9 C 3.87 g/m*3 -0.9 C 0 km/h
865 03-01-2011 04:41:04 -0.9 C 3.82 g/m*3 -0.9 C 0 km/h
866 03-01-2011 04:53:04 -0.9 C 3.87 g/m*3 -0.9 C 0 km/h
867 03-01-2011 05:05:04 -0.9 C 3.87 g/m*3 -0.9 C 0 km/h
868 03-01-2011 05:17:04 -1 C 3.89 g/m*3 -1 C 0 km/h
869 03-01-2011 05:29:04 -1.1 C 3.82 g/m*3 -1.1 C 0 km/h
870 03-01-2011 05:41:04 -1.1 C 3.82 g/m*3 -1.1 C 0 km/h
871 03-01-2011 05:53:04 -1.1 C 3.82 g/m*3 -1.1 C 0 km/h
872 03-01-2011 06:05:04 -1.1 C 3.82 g/m*3 -1.1 C 0 km/h
873 03-01-2011 06:17:05 -1.1 C 3.86 g/m*3 -1.1 C 0 km/h
874 03-01-2011 06:29:05 -1.1 C 3.91 g/m*3 -1.1 C 0 km/h
875 03-01-2011 06:41:05 -1.2 C 3.88 g/m*3 -1.2 C 0 km/h
Sensor: Nr:Datum:Temp:Abs-Feuchte:Windchill:Wind:
Aussen-T/F 876 03-01-2011 06:53:05 -1.1 C 3.95 g/m*3 -1.1 C 0 km/h
877 03-01-2011 07:05:05 -1.1 C 3.95 g/m*3 -1.1 C 0 km/h
878 03-01-2011 07:17:03 -1.1 C 4 g/m*3 -1.1 C 0 km/h
879 03-01-2011 07:29:03 -1.1 C 4 g/m*3 -1.1 C 0 km/h
880 03-01-2011 07:41:03 -1 C 4.02 g/m*3 -1 C 0 km/h
881 03-01-2011 07:53:02 -1.1 C 4 g/m*3 -1.1 C 0 km/h
882 03-01-2011 08:05:03 -1.4 C 3.87 g/m*3 -1.4 C 0 km/h
883 03-01-2011 08:17:02 -1.4 C 3.87 g/m*3 -1.4 C 0 km/h
884 03-01-2011 08:29:02 -1.3 C 3.94 g/m*3 -1.3 C 0 km/h
885 03-01-2011 08:41:02 -1.2 C 3.92 g/m*3 -1.2 C 0 km/h
886 03-01-2011 08:53:02 -1.2 C 3.92 g/m*3 -1.2 C 0 km/h
887 03-01-2011 09:05:02 -1.3 C 3.94 g/m*3 -1.3 C 0 km/h
888 03-01-2011 09:17:01 -1.3 C 3.94 g/m*3 -1.3 C 0 km/h
889 03-01-2011 09:29:01 -1.2 C 3.92 g/m*3 -1.2 C 0 km/h
890 03-01-2011 09:41:02 -1.2 C 3.92 g/m*3 -1.2 C 0 km/h
891 03-01-2011 09:53:02 -1.1 C 3.91 g/m*3 -1.1 C 0 km/h
892 03-01-2011 10:05:03 -1.1 C 3.91 g/m*3 -1.1 C 0 km/h
893 03-01-2011 10:17:02 -1.1 C 3.86 g/m*3 -1.1 C 0 km/h
894 03-01-2011 10:29:02 -1.2 C 3.79 g/m*3 -1.2 C 0 km/h
895 03-01-2011 10:41:02 -0.8 C 3.9 g/m*3 -0.8 C 0 km/h
896 03-01-2011 10:53:02 -0.9 C 3.82 g/m*3 -0.9 C 0 km/h
897 03-01-2011 11:05:02 -0.6 C 3.81 g/m*3 -0.6 C 0 km/h
898 03-01-2011 11:17:01 -0.4 C 3.77 g/m*3 -0.4 C 0 km/h
899 03-01-2011 11:29:01 -0.2 C 3.73 g/m*3 -0.2 C 0 km/h
900 03-01-2011 11:41:02 -0.2 C 3.63 g/m*3 -0.2 C 0 km/h
Sensor: Nr:Datum:Temp:Abs-Feuchte:Windchill:Wind:
Aussen-T/F 901 03-01-2011 11:53:02 -0.1 C 3.71 g/m*3 -0.1 C 0 km/h
902 03-01-2011 12:05:02 0 C 3.68 g/m*3 0 C 0 km/h
903 03-01-2011 12:17:01 0.2 C 3.73 g/m*3 0.2 C 0 km/h
904 03-01-2011 12:29:01 0.3 C 3.76 g/m*3 0.3 C 0 km/h
905 03-01-2011 12:41:02 0.3 C 3.71 g/m*3 0.3 C 0 km/h
906 03-01-2011 12:53:01 0.5 C 3.76 g/m*3 0.5 C 0 km/h
907 03-01-2011 13:05:02 1 C 3.84 g/m*3 1 C 0 km/h
908 03-01-2011 13:17:02 0.9 C 3.81 g/m*3 0.9 C 0 km/h
909 03-01-2011 13:29:02 0.9 C 3.81 g/m*3 0.9 C 0 km/h
910 03-01-2011 13:41:02 1.1 C 3.81 g/m*3 1.1 C 0 km/h
911 03-01-2011 13:53:02 0.7 C 3.76 g/m*3 0.7 C 0 km/h
912 03-01-2011 14:05:01 0.8 C 3.84 g/m*3 0.8 C 0 km/h
913 03-01-2011 14:17:02 0.7 C 3.81 g/m*3 0.7 C 0 km/h
914 03-01-2011 14:29:03 0.7 C 3.86 g/m*3 0.7 C 0 km/h
915 03-01-2011 14:41:01 1.1 C 3.92 g/m*3 1.1 C 0 km/h
916 03-01-2011 14:53:02 1 C 3.84 g/m*3 1 C 0 km/h
917 03-01-2011 15:05:02 1 C 3.84 g/m*3 1 C 0 km/h
918 03-01-2011 15:17:02 0.4 C 3.79 g/m*3 0.4 C 0 km/h
919 03-01-2011 15:29:02 -0.1 C 3.75 g/m*3 -0.1 C 0 km/h
920 03-01-2011 15:41:03 -0.6 C 3.67 g/m*3 -0.6 C 0 km/h
921 03-01-2011 15:53:02 -1.1 C 3.64 g/m*3 -1.1 C 0 km/h
922 03-01-2011 16:05:02 -1.3 C 3.63 g/m*3 -1.3 C 0 km/h
923 03-01-2011 16:17:01 -1.5 C 3.62 g/m*3 -1.5 C 0 km/h
924 03-01-2011 16:29:01 -2 C 3.5 g/m*3 -2 C 0 km/h
925 03-01-2011 16:41:02 -1.7 C 3.66 g/m*3 -1.7 C 0 km/h
Sensor: Nr:Datum:Temp:Abs-Feuchte:Windchill:Wind:
Aussen-T/F 926 03-01-2011 16:53:02 -1.2 C 3.83 g/m*3 -1.2 C 0 km/h
927 03-01-2011 17:05:02 -1.9 C 3.65 g/m*3 -1.9 C 0 km/h
928 03-01-2011 17:17:02 -2.6 C 3.48 g/m*3 -2.6 C 0 km/h
929 03-01-2011 17:29:02 -2.5 C 3.5 g/m*3 -2.5 C 0 km/h
930 03-01-2011 17:41:02 -2.9 C 3.44 g/m*3 -2.9 C 0 km/h
931 03-01-2011 17:53:02 -2.4 C 3.57 g/m*3 -2.4 C 0 km/h
932 03-01-2011 18:05:01 -1.7 C 3.79 g/m*3 -1.7 C 0 km/h
933 03-01-2011 18:17:01 -1.4 C 3.91 g/m*3 -1.4 C 0 km/h
934 03-01-2011 18:29:01 -1.3 C 3.94 g/m*3 -1.3 C 0 km/h
935 03-01-2011 18:41:02 -1.1 C 4 g/m*3 -1.1 C 0 km/h
936 03-01-2011 18:53:02 -1 C 4.02 g/m*3 -1 C 0 km/h
937 03-01-2011 19:05:02 -1.1 C 4 g/m*3 -1.1 C 0 km/h
938 03-01-2011 19:17:02 -1.1 C 4 g/m*3 -1.1 C 0 km/h
939 03-01-2011 19:29:02 -1.1 C 4.04 g/m*3 -1.1 C 0 km/h
940 03-01-2011 19:41:02 -1.2 C 4.01 g/m*3 -1.2 C 0 km/h
941 03-01-2011 19:53:02 -1.6 C 3.86 g/m*3 -1.6 C 0 km/h
942 03-01-2011 20:05:02 -2.1 C 3.73 g/m*3 -2.1 C 0 km/h
943 03-01-2011 20:17:02 -2.3 C 3.67 g/m*3 -2.3 C 0 km/h
944 03-01-2011 20:29:02 -1.8 C 3.8 g/m*3 -1.8 C 0 km/h
945 03-01-2011 20:41:01 -1.8 C 3.85 g/m*3 -1.8 C 0 km/h
946 03-01-2011 20:53:02 -2 C 3.75 g/m*3 -2 C 0 km/h
947 03-01-2011 21:05:02 -2.3 C 3.67 g/m*3 -2.3 C 0 km/h
948 03-01-2011 21:17:03 -2.7 C 3.57 g/m*3 -2.7 C 0 km/h
949 03-01-2011 21:29:03 -3 C 3.5 g/m*3 -3 C 0 km/h
950 03-01-2011 21:41:02 -2.5 C 3.62 g/m*3 -2.5 C 0 km/h
Sensor: Nr:Datum:Temp:Abs-Feuchte:Windchill:Wind:
Aussen-T/F 951 03-01-2011 21:53:02 -2 C 3.79 g/m*3 -2 C 0 km/h
952 03-01-2011 22:05:02 -1.7 C 3.87 g/m*3 -1.7 C 0 km/h
953 03-01-2011 22:18:03 -1.4 C 3.96 g/m*3 -1.4 C 0 km/h
954 03-01-2011 22:30:03 -1.5 C 3.93 g/m*3 -1.5 C 0 km/h
955 03-01-2011 22:42:03 -1.6 C 3.9 g/m*3 -1.6 C 0 km/h
956 03-01-2011 22:54:03 -1.8 C 3.85 g/m*3 -1.8 C 0 km/h
957 03-01-2011 23:06:03 -2.4 C 3.69 g/m*3 -2.4 C 0 km/h
958 03-01-2011 23:18:03 -2.9 C 3.56 g/m*3 -2.9 C 0 km/h
959 03-01-2011 23:30:03 -3.1 C 3.51 g/m*3 -3.1 C 0 km/h
960 03-01-2011 23:42:03 -3.2 C 3.49 g/m*3 -3.2 C 0 km/h
961 03-01-2011 23:54:03 -3.4 C 3.4 g/m*3 -3.4 C 0 km/h
962 04-01-2011 00:06:03 -3.4 C 3.44 g/m*3 -3.4 C 0 km/h
963 04-01-2011 00:18:03 -3.4 C 3.44 g/m*3 -3.4 C 0 km/h
964 04-01-2011 00:30:03 -3.8 C 3.34 g/m*3 -3.8 C 0 km/h
965 04-01-2011 00:42:03 -3.8 C 3.34 g/m*3 -3.8 C 0 km/h
966 04-01-2011 00:54:03 -3.8 C 3.34 g/m*3 -3.8 C 0 km/h
967 04-01-2011 01:06:03 -3.4 C 3.44 g/m*3 -3.4 C 0 km/h
968 04-01-2011 01:18:03 -3.9 C 3.32 g/m*3 -3.9 C 0 km/h
969 04-01-2011 01:30:04 -4.3 C 3.19 g/m*3 -4.3 C 0 km/h
970 04-01-2011 01:42:04 -4.2 C 3.21 g/m*3 -4.2 C 0 km/h
971 04-01-2011 01:54:04 -3.9 C 3.32 g/m*3 -3.9 C 0 km/h
972 04-01-2011 02:06:04 -3.4 C 3.44 g/m*3 -3.4 C 0 km/h
973 04-01-2011 02:18:04 -3.4 C 3.44 g/m*3 -3.4 C 0 km/h
974 04-01-2011 02:30:04 -3 C 3.54 g/m*3 -3 C 0 km/h
975 04-01-2011 02:42:04 -3.4 C 3.44 g/m*3 -3.4 C 0 km/h
Sensor: Nr:Datum:Temp:Abs-Feuchte:Windchill:Wind:
Aussen-T/F 976 04-01-2011 02:54:04 -3.3 C 3.46 g/m*3 -3.3 C 0 km/h
977 04-01-2011 03:06:04 -3.2 C 3.49 g/m*3 -3.2 C 0 km/h
978 04-01-2011 03:18:04 -3.4 C 3.4 g/m*3 -3.4 C 0 km/h
979 04-01-2011 03:30:04 -3.2 C 3.45 g/m*3 -3.2 C 0 km/h
980 04-01-2011 03:42:04 -3.1 C 3.51 g/m*3 -3.1 C 0 km/h
981 04-01-2011 03:54:04 -3 C 3.54 g/m*3 -3 C 0 km/h
982 04-01-2011 04:06:04 -3 C 3.54 g/m*3 -3 C 0 km/h
983 04-01-2011 04:18:04 -3.2 C 3.45 g/m*3 -3.2 C 0 km/h
984 04-01-2011 04:30:04 -3.5 C 3.37 g/m*3 -3.5 C 0 km/h
985 04-01-2011 04:42:04 -3.7 C 3.33 g/m*3 -3.7 C 0 km/h
986 04-01-2011 04:54:04 -3.8 C 3.3 g/m*3 -3.8 C 0 km/h
987 04-01-2011 05:06:04 -3.5 C 3.37 g/m*3 -3.5 C 0 km/h
988 04-01-2011 05:18:04 -3.4 C 3.4 g/m*3 -3.4 C 0 km/h
989 04-01-2011 05:30:04 -3.5 C 3.37 g/m*3 -3.5 C 0 km/h
990 04-01-2011 05:42:05 -4 C 3.22 g/m*3 -4 C 0 km/h
991 04-01-2011 05:54:05 -4.3 C 3.15 g/m*3 -4.3 C 0 km/h
992 04-01-2011 06:06:05 -4.5 C 3.11 g/m*3 -4.5 C 0 km/h
993 04-01-2011 06:18:05 -4.3 C 3.15 g/m*3 -4.3 C 0 km/h
994 04-01-2011 06:30:05 -4.1 C 3.2 g/m*3 -4.1 C 0 km/h
995 04-01-2011 06:42:05 -3.2 C 3.45 g/m*3 -3.2 C 0 km/h
996 04-01-2011 06:54:05 -3.1 C 3.47 g/m*3 -3.1 C 0 km/h
997 04-01-2011 07:06:05 -2.9 C 3.52 g/m*3 -2.9 C 0 km/h
998 04-01-2011 07:18:05 -2.9 C 3.52 g/m*3 -2.9 C 0 km/h
999 04-01-2011 07:30:05 -2.7 C 3.57 g/m*3 -2.7 C 0 km/h
1000 04-01-2011 07:42:03 -2.6 C 3.6 g/m*3 -2.6 C 0 km/h
Sensor: Nr:Datum:Temp:Abs-Feuchte:Windchill:Wind:
Aussen-T/F 1001 04-01-2011 07:54:02 -2.5 C 3.62 g/m*3 -2.5 C 0 km/h
1002 04-01-2011 08:06:02 -2.3 C 3.71 g/m*3 -2.3 C 0 km/h
1003 04-01-2011 08:18:02 -2.2 C 3.74 g/m*3 -2.2 C 0 km/h
1004 04-01-2011 08:30:02 -2.1 C 3.77 g/m*3 -2.1 C 0 km/h
1005 04-01-2011 08:42:02 -2.1 C 3.77 g/m*3 -2.1 C 0 km/h
1006 04-01-2011 08:54:02 -2 C 3.79 g/m*3 -2 C 0 km/h
1007 04-01-2011 09:06:02 -2 C 3.79 g/m*3 -2 C 0 km/h
1008 04-01-2011 09:18:02 -1.9 C 3.82 g/m*3 -1.9 C 0 km/h
1009 04-01-2011 09:30:02 -1.8 C 3.85 g/m*3 -1.8 C 0 km/h
1010 04-01-2011 09:42:02 -1.9 C 3.82 g/m*3 -1.9 C 0 km/h
1011 04-01-2011 09:54:02 -1.8 C 3.85 g/m*3 -1.8 C 0 km/h
1012 04-01-2011 10:06:02 -1.4 C 3.96 g/m*3 -1.4 C 0 km/h
1013 04-01-2011 10:18:02 -1.4 C 3.96 g/m*3 -1.4 C 0 km/h
1014 04-01-2011 10:30:03 -1 C 4.07 g/m*3 -1 C 0 km/h
1015 04-01-2011 10:42:02 -0.7 C 4.15 g/m*3 -0.7 C 0 km/h
1016 04-01-2011 10:54:02 -0.6 C 4.18 g/m*3 -0.6 C 0 km/h
1017 04-01-2011 11:06:01 -0.4 C 4.19 g/m*3 -0.4 C 0 km/h
1018 04-01-2011 11:18:02 -0.3 C 4.22 g/m*3 -0.3 C 0 km/h
1019 04-01-2011 11:30:02 -0.7 C 4.02 g/m*3 -0.7 C 0 km/h
1020 04-01-2011 11:42:02 -0.3 C 3.99 g/m*3 -0.3 C 0 km/h
1021 04-01-2011 11:54:03 -0.4 C 3.82 g/m*3 -0.4 C 0 km/h
1022 04-01-2011 12:06:03 -0.4 C 3.63 g/m*3 -0.4 C 0 km/h
1023 04-01-2011 12:18:03 -0.2 C 3.54 g/m*3 -0.2 C 0 km/h
1024 04-01-2011 12:30:03 -0.2 C 3.44 g/m*3 -0.2 C 0 km/h
1025 04-01-2011 12:42:03 -0.3 C 3.37 g/m*3 -0.3 C 0 km/h
Sensor: Nr:Datum:Temp:Abs-Feuchte:Windchill:Wind:
Aussen-T/F 1026 04-01-2011 12:54:03 -0.2 C 3.35 g/m*3 -0.2 C 0 km/h
1027 04-01-2011 13:06:03 -0.2 C 3.35 g/m*3 -0.2 C 0 km/h
1028 04-01-2011 13:18:03 0 C 3.34 g/m*3 0 C 0 km/h
1029 04-01-2011 13:30:03 0 C 3.39 g/m*3 0 C 0 km/h
1030 04-01-2011 13:42:03 0.2 C 3.39 g/m*3 0.2 C 0 km/h
1031 04-01-2011 13:54:03 0.5 C 3.51 g/m*3 0.5 C 0 km/h
1032 04-01-2011 14:06:04 0.2 C 3.39 g/m*3 0.2 C 0 km/h
1033 04-01-2011 14:18:04 0.2 C 3.34 g/m*3 0.2 C 0 km/h
1034 04-01-2011 14:30:04 0.2 C 3.34 g/m*3 0.2 C 0 km/h
1035 04-01-2011 14:42:04 0 C 3.29 g/m*3 0 C 0 km/h
1036 04-01-2011 14:54:04 -0.3 C 3.27 g/m*3 -0.3 C 0 km/h
1037 04-01-2011 15:06:04 -0.4 C 3.3 g/m*3 -0.4 C 0 km/h
1038 04-01-2011 15:18:04 -0.9 C 3.19 g/m*3 -0.9 C 0 km/h
1039 04-01-2011 15:30:04 -1.1 C 3.23 g/m*3 -1.1 C 0 km/h
1040 04-01-2011 15:42:04 -1.1 C 3.28 g/m*3 -1.1 C 0 km/h
1041 04-01-2011 15:54:04 -1.1 C 3.28 g/m*3 -1.1 C 0 km/h
1042 04-01-2011 16:06:04 -1.1 C 3.28 g/m*3 -1.1 C 0 km/h
1043 04-01-2011 16:18:04 -1.1 C 3.28 g/m*3 -1.1 C 0 km/h
1044 04-01-2011 16:30:04 -1.2 C 3.25 g/m*3 -1.2 C 0 km/h
1045 04-01-2011 16:42:04 -1.2 C 3.25 g/m*3 -1.2 C 0 km/h
1046 04-01-2011 16:54:04 -1.3 C 3.23 g/m*3 -1.3 C 0 km/h
1047 04-01-2011 17:06:04 -1.5 C 3.23 g/m*3 -1.5 C 0 km/h
1048 04-01-2011 17:18:04 -1.9 C 3.18 g/m*3 -1.9 C 0 km/h
1049 04-01-2011 17:30:04 -2.3 C 3.14 g/m*3 -2.3 C 0 km/h
1050 04-01-2011 17:42:04 -2.2 C 3.24 g/m*3 -2.2 C 0 km/h
Sensor: Nr:Datum:Temp:Abs-Feuchte:Windchill:Wind:
Aussen-T/F 1051 04-01-2011 17:54:03 -2.1 C 3.26 g/m*3 -2.1 C 0 km/h
1052 04-01-2011 18:06:02 -2.1 C 3.22 g/m*3 -2.1 C 0 km/h
1053 04-01-2011 18:18:03 -2.2 C 3.2 g/m*3 -2.2 C 0 km/h
1054 04-01-2011 18:30:03 -2.1 C 3.22 g/m*3 -2.1 C 0 km/h
1055 04-01-2011 18:42:03 -2.3 C 3.14 g/m*3 -2.3 C 0 km/h
1056 04-01-2011 18:54:02 -2.4 C 3.11 g/m*3 -2.4 C 0 km/h
1057 04-01-2011 19:06:02 -2.7 C 3.05 g/m*3 -2.7 C 0 km/h
1058 04-01-2011 19:18:02 -3.4 C 2.94 g/m*3 -3.4 C 0 km/h
1059 04-01-2011 19:30:02 -3.8 C 2.89 g/m*3 -3.8 C 0 km/h
1060 04-01-2011 19:42:03 -4 C 2.89 g/m*3 -4 C 0 km/h
1061 04-01-2011 19:54:02 -3.9 C 2.95 g/m*3 -3.9 C 0 km/h
1062 04-01-2011 20:06:02 -3.7 C 2.99 g/m*3 -3.7 C 0 km/h
1063 04-01-2011 20:18:02 -4 C 2.93 g/m*3 -4 C 0 km/h
1064 04-01-2011 20:30:02 -4.2 C 2.89 g/m*3 -4.2 C 0 km/h
1065 04-01-2011 20:42:02 -4.4 C 2.84 g/m*3 -4.4 C 0 km/h
1066 04-01-2011 20:54:02 -4.7 C 2.78 g/m*3 -4.7 C 0 km/h
1067 04-01-2011 21:06:03 -4.8 C 2.76 g/m*3 -4.8 C 0 km/h
1068 04-01-2011 21:18:02 -4.1 C 2.98 g/m*3 -4.1 C 0 km/h
1069 04-01-2011 21:30:02 -3.5 C 3.11 g/m*3 -3.5 C 0 km/h
1070 04-01-2011 21:43:03 -3.2 C 3.06 g/m*3 -3.2 C 0 km/h
1071 04-01-2011 21:55:03 -3 C 2.99 g/m*3 -3 C 0 km/h
1072 04-01-2011 22:07:03 -2.9 C 2.93 g/m*3 -2.9 C 0 km/h
1073 04-01-2011 22:19:03 -2.8 C 2.87 g/m*3 -2.8 C 0 km/h
1074 04-01-2011 22:31:03 -2.8 C 2.87 g/m*3 -2.8 C 0 km/h
1075 04-01-2011 22:43:03 -2.8 C 2.83 g/m*3 -2.8 C 0 km/h
Sensor: Nr:Datum:Temp:Abs-Feuchte:Windchill:Wind:
Aussen-T/F 1076 04-01-2011 22:55:03 -2.8 C 2.83 g/m*3 -2.8 C 0 km/h
1077 04-01-2011 23:07:03 -2.8 C 2.83 g/m*3 -2.8 C 0 km/h
1078 04-01-2011 23:19:03 -2.8 C 2.83 g/m*3 -2.8 C 0 km/h
1079 04-01-2011 23:31:03 -2.8 C 2.83 g/m*3 -2.8 C 0 km/h
1080 04-01-2011 23:43:04 -2.8 C 2.83 g/m*3 -2.8 C 0 km/h
1081 04-01-2011 23:55:04 -2.9 C 2.85 g/m*3 -2.9 C 0 km/h
1082 05-01-2011 00:07:04 -2.8 C 2.87 g/m*3 -2.8 C 0 km/h
1083 05-01-2011 00:19:04 -2.8 C 2.87 g/m*3 -2.8 C 0 km/h
1084 05-01-2011 00:31:04 -2.9 C 2.89 g/m*3 -2.9 C 0 km/h
1085 05-01-2011 00:43:04 -2.9 C 2.89 g/m*3 -2.9 C 0 km/h
1086 05-01-2011 00:55:04 -3 C 2.87 g/m*3 -3 C 0 km/h
1087 05-01-2011 01:07:04 -3 C 2.83 g/m*3 -3 C 0 km/h
1088 05-01-2011 01:19:04 -3 C 2.75 g/m*3 -3 C 0 km/h
1089 05-01-2011 01:31:04 -2.9 C 2.73 g/m*3 -2.9 C 0 km/h
1090 05-01-2011 01:43:04 -3 C 2.67 g/m*3 -3 C 0 km/h
1091 05-01-2011 01:55:04 -3 C 2.71 g/m*3 -3 C 0 km/h
1092 05-01-2011 02:07:04 -3 C 2.75 g/m*3 -3 C 0 km/h
1093 05-01-2011 02:19:04 -2.9 C 2.73 g/m*3 -2.9 C 0 km/h
1094 05-01-2011 02:31:04 -2.9 C 2.73 g/m*3 -2.9 C 0 km/h
1095 05-01-2011 02:43:04 -2.9 C 2.77 g/m*3 -2.9 C 0 km/h
1096 05-01-2011 02:55:04 -2.9 C 2.77 g/m*3 -2.9 C 0 km/h
1097 05-01-2011 03:07:04 -3 C 2.75 g/m*3 -3 C 0 km/h
1098 05-01-2011 03:19:04 -3 C 2.79 g/m*3 -3 C 0 km/h
1099 05-01-2011 03:31:04 -2.9 C 2.77 g/m*3 -2.9 C 0 km/h
1100 05-01-2011 03:43:05 -2.9 C 2.77 g/m*3 -2.9 C 0 km/h
Sensor: Nr:Datum:Temp:Abs-Feuchte:Windchill:Wind:
Aussen-T/F 1101 05-01-2011 03:55:05 -3 C 2.71 g/m*3 -3 C 0 km/h
1102 05-01-2011 04:07:05 -3.2 C 2.63 g/m*3 -3.2 C 0 km/h
1103 05-01-2011 04:19:05 -3.4 C 2.6 g/m*3 -3.4 C 0 km/h
1104 05-01-2011 04:31:05 -3.7 C 2.5 g/m*3 -3.7 C 0 km/h
1105 05-01-2011 04:43:05 -3.7 C 2.5 g/m*3 -3.7 C 0 km/h
1106 05-01-2011 04:55:05 -3.8 C 2.49 g/m*3 -3.8 C 0 km/h
1107 05-01-2011 05:07:05 -3.9 C 2.51 g/m*3 -3.9 C 0 km/h
1108 05-01-2011 05:19:05 -3.9 C 2.54 g/m*3 -3.9 C 0 km/h
1109 05-01-2011 05:31:05 -4 C 2.52 g/m*3 -4 C 0 km/h
1110 05-01-2011 05:43:05 -4.1 C 2.51 g/m*3 -4.1 C 0 km/h
1111 05-01-2011 05:55:05 -4.4 C 2.42 g/m*3 -4.4 C 0 km/h
1112 05-01-2011 06:07:05 -4.5 C 2.4 g/m*3 -4.5 C 0 km/h
1113 05-01-2011 06:19:05 -4.7 C 2.37 g/m*3 -4.7 C 0 km/h
1114 05-01-2011 06:31:05 -4.8 C 2.38 g/m*3 -4.8 C 0 km/h
1115 05-01-2011 06:43:05 -5.2 C 2.32 g/m*3 -5.2 C 0 km/h
1116 05-01-2011 06:55:05 -5.2 C 2.35 g/m*3 -5.2 C 0 km/h
1117 05-01-2011 07:07:05 -5.3 C 2.33 g/m*3 -5.3 C 0 km/h
1118 05-01-2011 07:19:05 -5.7 C 2.27 g/m*3 -5.7 C 0 km/h
1119 05-01-2011 07:31:03 -6.1 C 2.2 g/m*3 -6.1 C 0 km/h
1120 05-01-2011 07:43:03 -6.2 C 2.25 g/m*3 -6.2 C 0 km/h
1121 05-01-2011 07:55:02 -6.9 C 2.14 g/m*3 -6.9 C 0 km/h
1122 05-01-2011 08:07:02 -7.1 C 2.16 g/m*3 -7.1 C 0 km/h
1123 05-01-2011 08:19:02 -7.2 C 2.18 g/m*3 -7.2 C 0 km/h
1124 05-01-2011 08:31:02 -7.4 C 2.17 g/m*3 -7.4 C 0 km/h
1125 05-01-2011 08:43:02 -7.6 C 2.17 g/m*3 -7.6 C 0 km/h
Sensor: Nr:Datum:Temp:Abs-Feuchte:Windchill:Wind:
Aussen-T/F 1126 05-01-2011 08:55:02 -8 C 2.11 g/m*3 -8 C 0 km/h
1127 05-01-2011 09:07:01 -7.5 C 2.21 g/m*3 -7.5 C 0 km/h
1128 05-01-2011 09:19:02 -7.4 C 2.23 g/m*3 -7.4 C 0 km/h
1129 05-01-2011 09:31:02 -6.6 C 2.36 g/m*3 -6.6 C 0 km/h
1130 05-01-2011 09:43:02 -6.1 C 2.45 g/m*3 -6.1 C 0 km/h
1131 05-01-2011 09:55:01 -5.6 C 2.48 g/m*3 -5.6 C 0 km/h
1132 05-01-2011 10:07:02 -5 C 2.49 g/m*3 -5 C 0 km/h
1133 05-01-2011 10:19:02 -4.7 C 2.44 g/m*3 -4.7 C 0 km/h
1134 05-01-2011 10:31:01 -4.2 C 2.42 g/m*3 -4.2 C 0 km/h
1135 05-01-2011 10:43:01 -3.9 C 2.43 g/m*3 -3.9 C 0 km/h
1136 05-01-2011 10:55:02 -3.5 C 2.43 g/m*3 -3.5 C 0 km/h
1137 05-01-2011 11:07:01 -3.3 C 2.42 g/m*3 -3.3 C 0 km/h
1138 05-01-2011 11:19:02 -2.8 C 2.43 g/m*3 -2.8 C 0 km/h
1139 05-01-2011 11:31:01 -3.4 C 2.33 g/m*3 -3.4 C 0 km/h
1140 05-01-2011 11:43:01 -3.5 C 2.31 g/m*3 -3.5 C 0 km/h
1141 05-01-2011 11:55:03 -3 C 2.4 g/m*3 -3 C 0 km/h
1142 05-01-2011 12:07:02 -3.2 C 2.28 g/m*3 -3.2 C 0 km/h
1143 05-01-2011 12:19:02 -3.7 C 2.32 g/m*3 -3.7 C 0 km/h
1144 05-01-2011 12:31:03 -3.8 C 2.34 g/m*3 -3.8 C 0 km/h
1145 05-01-2011 12:43:03 -3.9 C 2.36 g/m*3 -3.9 C 0 km/h
1146 05-01-2011 12:55:02 -3.8 C 2.41 g/m*3 -3.8 C 0 km/h
1147 05-01-2011 13:07:02 -3.7 C 2.47 g/m*3 -3.7 C 0 km/h
1148 05-01-2011 13:19:02 -3.6 C 2.41 g/m*3 -3.6 C 0 km/h
1149 05-01-2011 13:31:02 -3.7 C 2.39 g/m*3 -3.7 C 0 km/h
1150 05-01-2011 13:43:02 -4 C 2.41 g/m*3 -4 C 0 km/h
Sensor: Nr:Datum:Temp:Abs-Feuchte:Windchill:Wind:
Aussen-T/F 1151 05-01-2011 13:55:02 -3.8 C 2.45 g/m*3 -3.8 C 0 km/h
1152 05-01-2011 14:07:02 -3.7 C 2.47 g/m*3 -3.7 C 0 km/h
1153 05-01-2011 14:19:02 -3.3 C 2.54 g/m*3 -3.3 C 0 km/h
1154 05-01-2011 14:31:02 -3.3 C 2.54 g/m*3 -3.3 C 0 km/h
1155 05-01-2011 14:43:02 -3.3 C 2.54 g/m*3 -3.3 C 0 km/h
1156 05-01-2011 14:55:01 -3.3 C 2.54 g/m*3 -3.3 C 0 km/h
1157 05-01-2011 15:07:02 -3.6 C 2.52 g/m*3 -3.6 C 0 km/h
1158 05-01-2011 15:19:01 -3.8 C 2.52 g/m*3 -3.8 C 0 km/h
1159 05-01-2011 15:31:02 -3.8 C 2.6 g/m*3 -3.8 C 0 km/h
1160 05-01-2011 15:43:02 -3.7 C 2.62 g/m*3 -3.7 C 0 km/h
1161 05-01-2011 15:55:01 -3.8 C 2.56 g/m*3 -3.8 C 0 km/h
1162 05-01-2011 16:07:02 -3.9 C 2.54 g/m*3 -3.9 C 0 km/h
1163 05-01-2011 16:19:01 -4.2 C 2.56 g/m*3 -4.2 C 0 km/h
1164 05-01-2011 16:31:02 -4.5 C 2.54 g/m*3 -4.5 C 0 km/h
1165 05-01-2011 16:43:02 -4.8 C 2.56 g/m*3 -4.8 C 0 km/h
1166 05-01-2011 16:55:01 -4.8 C 2.59 g/m*3 -4.8 C 0 km/h
1167 05-01-2011 17:07:02 -5.1 C 2.57 g/m*3 -5.1 C 0 km/h
1168 05-01-2011 17:19:02 -5.8 C 2.47 g/m*3 -5.8 C 0 km/h
1169 05-01-2011 17:31:01 -6 C 2.47 g/m*3 -6 C 0 km/h
1170 05-01-2011 17:43:01 -5.8 C 2.54 g/m*3 -5.8 C 0 km/h
1171 05-01-2011 17:55:02 -5.8 C 2.57 g/m*3 -5.8 C 0 km/h
1172 05-01-2011 18:07:01 -5.7 C 2.59 g/m*3 -5.7 C 0 km/h
1173 05-01-2011 18:19:02 -6 C 2.53 g/m*3 -6 C 0 km/h
1174 05-01-2011 18:31:01 -6.1 C 2.52 g/m*3 -6.1 C 0 km/h
1175 05-01-2011 18:43:01 -5.5 C 2.66 g/m*3 -5.5 C 0 km/h
Sensor: Nr:Datum:Temp:Abs-Feuchte:Windchill:Wind:
Aussen-T/F 1176 05-01-2011 18:55:03 -5.2 C 2.72 g/m*3 -5.2 C 0 km/h
1177 05-01-2011 19:07:02 -5.4 C 2.65 g/m*3 -5.4 C 0 km/h
1178 05-01-2011 19:19:02 -4.3 C 2.9 g/m*3 -4.3 C 0 km/h
1179 05-01-2011 19:31:02 -3.4 C 3.05 g/m*3 -3.4 C 0 km/h
1180 05-01-2011 19:43:02 -3.2 C 3.02 g/m*3 -3.2 C 0 km/h
1181 05-01-2011 19:55:02 -3 C 3.02 g/m*3 -3 C 0 km/h
1182 05-01-2011 20:07:02 -2.8 C 3.07 g/m*3 -2.8 C 0 km/h
1183 05-01-2011 20:19:02 -2.8 C 3.07 g/m*3 -2.8 C 0 km/h
1184 05-01-2011 20:31:02 -2.7 C 3.09 g/m*3 -2.7 C 0 km/h
1185 05-01-2011 20:43:02 -2.5 C 3.05 g/m*3 -2.5 C 0 km/h
1186 05-01-2011 20:55:02 -2.5 C 3.05 g/m*3 -2.5 C 0 km/h
1187 05-01-2011 21:07:01 -2.4 C 3.11 g/m*3 -2.4 C 0 km/h
1188 05-01-2011 21:19:01 -1.8 C 3.16 g/m*3 -1.8 C 0 km/h
1189 05-01-2011 21:31:02 -1.5 C 3.19 g/m*3 -1.5 C 0 km/h
1190 05-01-2011 21:43:02 -1.4 C 3.25 g/m*3 -1.4 C 0 km/h
1191 05-01-2011 21:55:02 -1.3 C 3.32 g/m*3 -1.3 C 0 km/h
1192 05-01-2011 22:07:02 -1.3 C 3.36 g/m*3 -1.3 C 0 km/h
1193 05-01-2011 22:20:04 -1.2 C 3.43 g/m*3 -1.2 C 0 km/h
1194 05-01-2011 22:32:04 -1.1 C 3.5 g/m*3 -1.1 C 0 km/h
1195 05-01-2011 22:44:04 -1 C 3.57 g/m*3 -1 C 0 km/h
1196 05-01-2011 22:56:04 -0.7 C 3.65 g/m*3 -0.7 C 0 km/h
1197 05-01-2011 23:08:04 -0.5 C 3.74 g/m*3 -0.5 C 0 km/h
1198 05-01-2011 23:20:04 -0.3 C 3.8 g/m*3 -0.3 C 0 km/h
1199 05-01-2011 23:32:04 -0.3 C 3.8 g/m*3 -0.3 C 0 km/h
1200 05-01-2011 23:44:04 -0.8 C 3.71 g/m*3 -0.8 C 0 km/h
Sensor: Nr:Datum:Temp:Abs-Feuchte:Windchill:Wind:
Aussen-T/F 1201 05-01-2011 23:56:04 -0.9 C 3.73 g/m*3 -0.9 C 0 km/h
1202 06-01-2011 00:08:04 -0.7 C 3.83 g/m*3 -0.7 C 0 km/h
1203 06-01-2011 00:20:04 -0.5 C 3.84 g/m*3 -0.5 C 0 km/h
1204 06-01-2011 00:32:04 -0.5 C 3.84 g/m*3 -0.5 C 0 km/h
1205 06-01-2011 00:44:04 -0.6 C 3.81 g/m*3 -0.6 C 0 km/h
1206 06-01-2011 00:56:04 -0.6 C 3.81 g/m*3 -0.6 C 0 km/h
1207 06-01-2011 01:08:04 -0.5 C 3.88 g/m*3 -0.5 C 0 km/h
1208 06-01-2011 01:20:04 -0.3 C 3.94 g/m*3 -0.3 C 0 km/h
1209 06-01-2011 01:32:04 -0.3 C 3.94 g/m*3 -0.3 C 0 km/h
1210 06-01-2011 01:44:04 -0.1 C 3.99 g/m*3 -0.1 C 0 km/h
1211 06-01-2011 01:56:04 0.1 C 4.1 g/m*3 0.1 C 0 km/h
1212 06-01-2011 02:08:04 0.2 C 4.18 g/m*3 0.2 C 0 km/h
1213 06-01-2011 02:20:05 0.3 C 4.25 g/m*3 0.3 C 0 km/h
1214 06-01-2011 02:32:05 0.3 C 4.3 g/m*3 0.3 C 0 km/h
1215 06-01-2011 02:44:05 0.3 C 4.35 g/m*3 0.3 C 0 km/h
1216 06-01-2011 02:56:05 0.4 C 4.38 g/m*3 0.4 C 0 km/h
1217 06-01-2011 03:08:05 0.5 C 4.46 g/m*3 0.5 C 0 km/h
1218 06-01-2011 03:20:05 0.5 C 4.46 g/m*3 0.5 C 0 km/h
1219 06-01-2011 03:32:05 0.8 C 4.61 g/m*3 0.8 C 0 km/h
1220 06-01-2011 03:44:05 0.7 C 4.58 g/m*3 0.7 C 0 km/h
1221 06-01-2011 03:56:05 0.7 C 4.58 g/m*3 0.7 C 0 km/h
1222 06-01-2011 04:08:05 0.8 C 4.66 g/m*3 0.8 C 0 km/h
1223 06-01-2011 04:20:05 0.9 C 4.69 g/m*3 0.9 C 0 km/h
1224 06-01-2011 04:32:05 0.9 C 4.69 g/m*3 0.9 C 0 km/h
1225 06-01-2011 04:44:05 0.9 C 4.69 g/m*3 0.9 C 0 km/h
Sensor: Nr:Datum:Temp:Abs-Feuchte:Windchill:Wind:
Aussen-T/F 1226 06-01-2011 04:56:05 0.9 C 4.69 g/m*3 0.9 C 0 km/h
1227 06-01-2011 05:08:05 1 C 4.72 g/m*3 1 C 0 km/h
1228 06-01-2011 05:20:05 1 C 4.72 g/m*3 1 C 0 km/h
1229 06-01-2011 05:32:05 1 C 4.72 g/m*3 1 C 0 km/h
1230 06-01-2011 05:44:05 1.1 C 4.76 g/m*3 1.1 C 0 km/h
1231 06-01-2011 05:56:05 1.1 C 4.76 g/m*3 1.1 C 0 km/h
1232 06-01-2011 06:08:05 1.3 C 4.87 g/m*3 1.3 C 0 km/h
1233 06-01-2011 06:20:05 1.2 C 4.84 g/m*3 1.2 C 0 km/h
1234 06-01-2011 06:32:06 1.2 C 4.84 g/m*3 1.2 C 0 km/h
1235 06-01-2011 06:44:06 1.3 C 4.87 g/m*3 1.3 C 0 km/h
1236 06-01-2011 06:56:02 1.3 C 4.87 g/m*3 1.3 C 0 km/h
1237 06-01-2011 07:08:03 1.4 C 4.91 g/m*3 1.4 C 0 km/h
1238 06-01-2011 07:20:02 1.4 C 4.91 g/m*3 1.4 C 0 km/h
1239 06-01-2011 07:32:02 1.3 C 4.87 g/m*3 1.3 C 0 km/h
1240 06-01-2011 07:44:02 1.4 C 4.91 g/m*3 1.4 C 0 km/h
1241 06-01-2011 07:56:02 1.4 C 4.91 g/m*3 1.4 C 0 km/h
1242 06-01-2011 08:08:02 1.4 C 4.91 g/m*3 1.4 C 0 km/h
1243 06-01-2011 08:20:01 1.4 C 4.91 g/m*3 1.4 C 0 km/h
1244 06-01-2011 08:32:02 1.5 C 4.94 g/m*3 1.5 C 0 km/h
1245 06-01-2011 08:44:02 1.5 C 4.94 g/m*3 1.5 C 0 km/h
1246 06-01-2011 08:56:02 1.9 C 5.13 g/m*3 1.9 C 0 km/h
1247 06-01-2011 09:08:02 2 C 5.11 g/m*3 2 C 0 km/h
1248 06-01-2011 09:20:01 2.2 C 5.18 g/m*3 2.2 C 0 km/h
1249 06-01-2011 09:32:02 2.3 C 5.22 g/m*3 2.3 C 0 km/h
1250 06-01-2011 09:44:02 2.5 C 5.29 g/m*3 2.5 C 0 km/h
Sensor: Nr:Datum:Temp:Abs-Feuchte:Windchill:Wind:
Aussen-T/F 1251 06-01-2011 09:56:02 3.7 C 5.73 g/m*3 3.7 C 0 km/h
1252 06-01-2011 10:08:03 3.8 C 5.83 g/m*3 3.8 C 0 km/h
1253 06-01-2011 10:20:02 4.1 C 5.89 g/m*3 4.1 C 0 km/h
1254 06-01-2011 10:32:02 4.4 C 6.01 g/m*3 4.4 C 0 km/h
1255 06-01-2011 10:44:02 5.1 C 6.22 g/m*3 5.1 C 0 km/h
1256 06-01-2011 10:56:01 5.1 C 6.22 g/m*3 5.1 C 0 km/h
1257 06-01-2011 11:08:02 5.5 C 6.32 g/m*3 5.5 C 0 km/h
1258 06-01-2011 11:20:01 5.9 C 6.35 g/m*3 5.9 C 0 km/h
1259 06-01-2011 11:32:01 6.1 C 6.21 g/m*3 6.1 C 0 km/h
1260 06-01-2011 11:44:01 6.3 C 6.22 g/m*3 6.3 C 0 km/h
1261 06-01-2011 11:56:01 6.6 C 6.27 g/m*3 6.6 C 0 km/h
1262 06-01-2011 12:08:01 5.5 C 5.69 g/m*3 5.5 C 0 km/h
1263 06-01-2011 12:20:02 5.2 C 5.71 g/m*3 5.2 C 0 km/h
1264 06-01-2011 12:32:01 5.6 C 5.94 g/m*3 5.6 C 0 km/h
1265 06-01-2011 12:44:01 5.2 C 5.78 g/m*3 5.2 C 0 km/h
1266 06-01-2011 12:56:03 5.2 C 5.85 g/m*3 5.2 C 0 km/h
1267 06-01-2011 13:08:02 4.9 C 5.81 g/m*3 4.9 C 0 km/h
1268 06-01-2011 13:20:02 4.8 C 5.83 g/m*3 4.8 C 0 km/h
1269 06-01-2011 13:32:02 4.5 C 5.65 g/m*3 4.5 C 0 km/h
1270 06-01-2011 13:44:02 4.2 C 5.61 g/m*3 4.2 C 0 km/h
1271 06-01-2011 13:56:02 4.1 C 5.57 g/m*3 4.1 C 0 km/h
1272 06-01-2011 14:08:01 4.3 C 5.64 g/m*3 4.3 C 0 km/h
1273 06-01-2011 14:20:02 4.2 C 5.61 g/m*3 4.2 C 0 km/h
1274 06-01-2011 14:32:02 4.3 C 5.64 g/m*3 4.3 C 0 km/h
1275 06-01-2011 14:44:02 4 C 5.53 g/m*3 4 C 0 km/h
Sensor: Nr:Datum:Temp:Abs-Feuchte:Windchill:Wind:
Aussen-T/F 1276 06-01-2011 14:56:02 3.8 C 5.52 g/m*3 3.8 C 0 km/h
1277 06-01-2011 15:08:03 3.9 C 5.62 g/m*3 3.9 C 0 km/h
1278 06-01-2011 15:20:02 3.8 C 5.58 g/m*3 3.8 C 0 km/h
1279 06-01-2011 15:32:02 4 C 5.59 g/m*3 4 C 0 km/h
1280 06-01-2011 15:44:02 4 C 5.66 g/m*3 4 C 0 km/h
1281 06-01-2011 15:56:01 4 C 5.66 g/m*3 4 C 0 km/h
1282 06-01-2011 16:08:02 4 C 5.66 g/m*3 4 C 0 km/h
1283 06-01-2011 16:20:01 4.2 C 5.73 g/m*3 4.2 C 0 km/h
1284 06-01-2011 16:32:01 4 C 5.66 g/m*3 4 C 0 km/h
1285 06-01-2011 16:44:01 3.7 C 5.61 g/m*3 3.7 C 0 km/h
1286 06-01-2011 16:56:01 3.7 C 5.61 g/m*3 3.7 C 0 km/h
1287 06-01-2011 17:08:02 3.8 C 5.65 g/m*3 3.8 C 0 km/h
1288 06-01-2011 17:20:02 4 C 5.72 g/m*3 4 C 0 km/h
1289 06-01-2011 17:32:01 4.2 C 5.8 g/m*3 4.2 C 0 km/h
1290 06-01-2011 17:44:01 4.1 C 5.76 g/m*3 4.1 C 0 km/h
1291 06-01-2011 17:56:01 4.6 C 6.02 g/m*3 4.6 C 0 km/h
1292 06-01-2011 18:08:01 4.6 C 6.02 g/m*3 4.6 C 0 km/h
1293 06-01-2011 18:20:02 4.3 C 5.9 g/m*3 4.3 C 0 km/h
1294 06-01-2011 18:32:01 4.6 C 6.02 g/m*3 4.6 C 0 km/h
1295 06-01-2011 18:44:01 4.5 C 5.98 g/m*3 4.5 C 0 km/h
1296 06-01-2011 18:56:02 5 C 6.18 g/m*3 5 C 0 km/h
1297 06-01-2011 19:08:02 4.7 C 6.13 g/m*3 4.7 C 0 km/h
1298 06-01-2011 19:20:02 4.6 C 6.09 g/m*3 4.6 C 0 km/h
1299 06-01-2011 19:32:03 4.9 C 6.21 g/m*3 4.9 C 0 km/h
1300 06-01-2011 19:44:03 5.3 C 6.31 g/m*3 5.3 C 0 km/h
Sensor: Nr:Datum:Temp:Abs-Feuchte:Windchill:Wind:
Aussen-T/F 1301 06-01-2011 19:56:02 5.6 C 6.43 g/m*3 5.6 C 0 km/h
1302 06-01-2011 20:08:01 7 C 7.05 g/m*3 7 C 0 km/h
1303 06-01-2011 20:20:01 8 C 7.44 g/m*3 8 C 0 km/h
1304 06-01-2011 20:32:02 6.7 C 6.91 g/m*3 6.7 C 0 km/h
1305 06-01-2011 20:44:02 8.1 C 7.41 g/m*3 8.1 C 0 km/h
1306 06-01-2011 20:56:02 7 C 6.9 g/m*3 7 C 0 km/h
1307 06-01-2011 21:08:02 7.3 C 7.03 g/m*3 7.3 C 0 km/h
1308 06-01-2011 21:20:02 8.2 C 7.37 g/m*3 8.2 C 0 km/h
1309 06-01-2011 21:32:02 9 C 7.58 g/m*3 9 C 0 km/h
1310 06-01-2011 21:44:02 8.9 C 7.36 g/m*3 8.9 C 0 km/h
1311 06-01-2011 21:56:02 9.4 C 7.42 g/m*3 9.4 C 0 km/h
1312 06-01-2011 22:08:03 9.2 C 7.14 g/m*3 9.2 C 0 km/h
1313 06-01-2011 22:21:04 10 C 7.24 g/m*3 10 C 0 km/h
1314 06-01-2011 22:33:04 9.8 C 7.33 g/m*3 9.8 C 0 km/h
1315 06-01-2011 22:45:04 9.1 C 6.92 g/m*3 9.1 C 0 km/h
1316 06-01-2011 22:57:04 9.4 C 7.05 g/m*3 9.4 C 0 km/h
1317 06-01-2011 23:09:04 8.8 C 6.7 g/m*3 8.8 C 0 km/h
1318 06-01-2011 23:21:04 9.1 C 6.83 g/m*3 9.1 C 0 km/h
1319 06-01-2011 23:33:04 9 C 7.14 g/m*3 9 C 0 km/h
1320 06-01-2011 23:45:04 9.7 C 7.47 g/m*3 9.7 C 0 km/h
1321 06-01-2011 23:57:04 8.8 C 6.88 g/m*3 8.8 C 0 km/h
1322 07-01-2011 00:09:04 8.5 C 6.83 g/m*3 8.5 C 0 km/h
1323 07-01-2011 00:21:04 7.6 C 6.61 g/m*3 7.6 C 0 km/h
1324 07-01-2011 00:33:04 7 C 6.51 g/m*3 7 C 0 km/h
1325 07-01-2011 00:45:04 7.3 C 6.79 g/m*3 7.3 C 0 km/h
Sensor: Nr:Datum:Temp:Abs-Feuchte:Windchill:Wind:
Aussen-T/F 1326 07-01-2011 00:57:04 6.5 C 6.45 g/m*3 6.5 C 0 km/h
1327 07-01-2011 01:09:04 6.4 C 6.48 g/m*3 6.4 C 0 km/h
1328 07-01-2011 01:21:04 6.5 C 6.52 g/m*3 6.5 C 0 km/h
1329 07-01-2011 01:33:04 6.8 C 6.73 g/m*3 6.8 C 0 km/h
1330 07-01-2011 01:45:05 6.9 C 6.85 g/m*3 6.9 C 0 km/h
1331 07-01-2011 01:57:05 6.6 C 6.72 g/m*3 6.6 C 0 km/h
1332 07-01-2011 02:09:05 6 C 6.46 g/m*3 6 C 0 km/h
1333 07-01-2011 02:21:05 5.8 C 6.45 g/m*3 5.8 C 0 km/h
1334 07-01-2011 02:33:05 5.7 C 6.4 g/m*3 5.7 C 0 km/h
1335 07-01-2011 02:45:05 5.8 C 6.45 g/m*3 5.8 C 0 km/h
1336 07-01-2011 02:57:05 5.8 C 6.52 g/m*3 5.8 C 0 km/h
1337 07-01-2011 03:09:05 5.7 C 6.48 g/m*3 5.7 C 0 km/h
1338 07-01-2011 03:21:05 5.6 C 6.43 g/m*3 5.6 C 0 km/h
1339 07-01-2011 03:33:05 5.6 C 6.43 g/m*3 5.6 C 0 km/h
1340 07-01-2011 03:45:05 5.6 C 6.43 g/m*3 5.6 C 0 km/h
1341 07-01-2011 03:57:05 5.6 C 6.43 g/m*3 5.6 C 0 km/h
1342 07-01-2011 04:09:05 5.6 C 6.43 g/m*3 5.6 C 0 km/h
1343 07-01-2011 04:21:05 5.5 C 6.39 g/m*3 5.5 C 0 km/h
1344 07-01-2011 04:33:05 5.2 C 6.27 g/m*3 5.2 C 0 km/h
1345 07-01-2011 04:45:05 5.2 C 6.27 g/m*3 5.2 C 0 km/h
1346 07-01-2011 04:57:05 5.3 C 6.31 g/m*3 5.3 C 0 km/h
1347 07-01-2011 05:09:05 5.6 C 6.5 g/m*3 5.6 C 0 km/h
1348 07-01-2011 05:21:05 5.2 C 6.27 g/m*3 5.2 C 0 km/h
1349 07-01-2011 05:33:05 5.3 C 6.38 g/m*3 5.3 C 0 km/h
1350 07-01-2011 05:45:05 5.2 C 6.33 g/m*3 5.2 C 0 km/h
Sensor: Nr:Datum:Temp:Abs-Feuchte:Windchill:Wind:
Aussen-T/F 1351 07-01-2011 05:57:06 5.1 C 6.22 g/m*3 5.1 C 0 km/h
1352 07-01-2011 06:09:06 4.8 C 6.17 g/m*3 4.8 C 0 km/h
1353 07-01-2011 06:21:06 4.9 C 6.21 g/m*3 4.9 C 0 km/h
1354 07-01-2011 06:33:06 5 C 6.18 g/m*3 5 C 0 km/h
1355 07-01-2011 06:45:06 5 C 6.18 g/m*3 5 C 0 km/h
1356 07-01-2011 06:57:06 4.8 C 6.17 g/m*3 4.8 C 0 km/h
1357 07-01-2011 07:09:06 5 C 6.25 g/m*3 5 C 0 km/h
1358 07-01-2011 07:21:06 5 C 6.25 g/m*3 5 C 0 km/h
1359 07-01-2011 07:33:06 5 C 6.25 g/m*3 5 C 0 km/h
1360 07-01-2011 07:45:03 5.1 C 6.29 g/m*3 5.1 C 0 km/h
1361 07-01-2011 07:57:03 5.1 C 6.29 g/m*3 5.1 C 0 km/h
1362 07-01-2011 08:09:02 4.8 C 6.17 g/m*3 4.8 C 0 km/h
1363 07-01-2011 08:21:03 4.9 C 6.21 g/m*3 4.9 C 0 km/h
1364 07-01-2011 08:33:02 5 C 6.25 g/m*3 5 C 0 km/h
1365 07-01-2011 08:45:03 4.9 C 6.21 g/m*3 4.9 C 0 km/h
1366 07-01-2011 08:57:03 4.8 C 6.17 g/m*3 4.8 C 0 km/h
1367 07-01-2011 09:09:02 4.7 C 6.13 g/m*3 4.7 C 0 km/h
1368 07-01-2011 09:21:02 4.7 C 6.13 g/m*3 4.7 C 0 km/h
1369 07-01-2011 09:33:02 4.9 C 6.21 g/m*3 4.9 C 0 km/h
1370 07-01-2011 09:45:02 5 C 6.25 g/m*3 5 C 0 km/h
1371 07-01-2011 09:57:02 5.2 C 6.33 g/m*3 5.2 C 0 km/h
1372 07-01-2011 10:09:02 5.3 C 6.38 g/m*3 5.3 C 0 km/h
1373 07-01-2011 10:21:03 5.3 C 6.38 g/m*3 5.3 C 0 km/h
1374 07-01-2011 10:33:02 5.6 C 6.5 g/m*3 5.6 C 0 km/h
1375 07-01-2011 10:45:03 5.6 C 6.43 g/m*3 5.6 C 0 km/h
Sensor: Nr:Datum:Temp:Abs-Feuchte:Windchill:Wind:
Aussen-T/F 1376 07-01-2011 10:57:03 5.7 C 6.48 g/m*3 5.7 C 0 km/h
1377 07-01-2011 11:09:02 6 C 6.6 g/m*3 6 C 0 km/h
1378 07-01-2011 11:21:02 6.7 C 6.91 g/m*3 6.7 C 0 km/h
1379 07-01-2011 11:33:02 7.1 C 7.1 g/m*3 7.1 C 0 km/h
1380 07-01-2011 11:45:02 7 C 7.05 g/m*3 7 C 0 km/h
1381 07-01-2011 11:57:02 7 C 7.05 g/m*3 7 C 0 km/h
1382 07-01-2011 12:09:02 7.2 C 7.14 g/m*3 7.2 C 0 km/h
1383 07-01-2011 12:21:02 7.2 C 7.06 g/m*3 7.2 C 0 km/h
1384 07-01-2011 12:33:02 7.3 C 7.11 g/m*3 7.3 C 0 km/h
1385 07-01-2011 12:45:02 7.3 C 7.11 g/m*3 7.3 C 0 km/h
1386 07-01-2011 12:57:02 7.4 C 7.16 g/m*3 7.4 C 0 km/h
1387 07-01-2011 13:09:01 7.5 C 7.2 g/m*3 7.5 C 0 km/h
1388 07-01-2011 13:21:01 7.4 C 7.16 g/m*3 7.4 C 0 km/h
1389 07-01-2011 13:33:02 7.3 C 7.11 g/m*3 7.3 C 0 km/h
1390 07-01-2011 13:45:02 7.4 C 7.08 g/m*3 7.4 C 0 km/h
1391 07-01-2011 13:57:02 7.3 C 7.03 g/m*3 7.3 C 0 km/h
1392 07-01-2011 14:09:02 7.4 C 7.08 g/m*3 7.4 C 0 km/h
1393 07-01-2011 14:21:02 7.5 C 7.12 g/m*3 7.5 C 0 km/h
1394 07-01-2011 14:33:02 7.5 C 7.2 g/m*3 7.5 C 0 km/h
1395 07-01-2011 14:45:02 7.4 C 7.16 g/m*3 7.4 C 0 km/h
1396 07-01-2011 14:57:02 7.3 C 7.11 g/m*3 7.3 C 0 km/h
1397 07-01-2011 15:09:02 7.3 C 7.11 g/m*3 7.3 C 0 km/h
1398 07-01-2011 15:21:02 7.3 C 7.11 g/m*3 7.3 C 0 km/h
1399 07-01-2011 15:33:02 7.1 C 7.02 g/m*3 7.1 C 0 km/h
1400 07-01-2011 15:45:02 7.1 C 7.02 g/m*3 7.1 C 0 km/h
Sensor: Nr:Datum:Temp:Abs-Feuchte:Windchill:Wind:
Aussen-T/F 1401 07-01-2011 15:57:02 7.1 C 7.02 g/m*3 7.1 C 0 km/h
1402 07-01-2011 16:09:02 6.9 C 7.01 g/m*3 6.9 C 0 km/h
1403 07-01-2011 16:21:02 7.2 C 7.06 g/m*3 7.2 C 0 km/h
1404 07-01-2011 16:33:03 7.1 C 7.02 g/m*3 7.1 C 0 km/h
1405 07-01-2011 16:45:02 7 C 6.97 g/m*3 7 C 0 km/h
1406 07-01-2011 16:57:02 7.1 C 7.02 g/m*3 7.1 C 0 km/h
1407 07-01-2011 17:09:03 7.3 C 7.19 g/m*3 7.3 C 0 km/h
1408 07-01-2011 17:21:02 7.3 C 7.19 g/m*3 7.3 C 0 km/h
1409 07-01-2011 17:33:02 7.5 C 7.28 g/m*3 7.5 C 0 km/h
1410 07-01-2011 17:45:01 7.7 C 7.38 g/m*3 7.7 C 0 km/h
1411 07-01-2011 17:57:01 7.8 C 7.43 g/m*3 7.8 C 0 km/h
1412 07-01-2011 18:09:02 8.3 C 7.67 g/m*3 8.3 C 0 km/h
1413 07-01-2011 18:21:01 9.3 C 8.09 g/m*3 9.3 C 0 km/h
1414 07-01-2011 18:33:01 9.3 C 8.09 g/m*3 9.3 C 0 km/h
1415 07-01-2011 18:45:01 10 C 8.36 g/m*3 10 C 0 km/h
1416 07-01-2011 18:57:01 9.7 C 8.2 g/m*3 9.7 C 0 km/h
1417 07-01-2011 19:09:01 10.3 C 8.33 g/m*3 10.3 C 0 km/h
1418 07-01-2011 19:21:02 9.8 C 7.98 g/m*3 9.8 C 0 km/h
1419 07-01-2011 19:33:01 9.6 C 7.88 g/m*3 9.6 C 0 km/h
1420 07-01-2011 19:45:03 8.9 C 7.53 g/m*3 8.9 C 0 km/h
1421 07-01-2011 19:57:03 8.6 C 7.48 g/m*3 8.6 C 0 km/h
1422 07-01-2011 20:09:03 8.5 C 7.51 g/m*3 8.5 C 0 km/h
1423 07-01-2011 20:21:02 8.9 C 7.8 g/m*3 8.9 C 0 km/h
1424 07-01-2011 20:33:03 9.2 C 7.95 g/m*3 9.2 C 0 km/h
1425 07-01-2011 20:45:02 9 C 7.85 g/m*3 9 C 0 km/h
Sensor: Nr:Datum:Temp:Abs-Feuchte:Windchill:Wind:
Aussen-T/F 1426 07-01-2011 20:57:03 8.9 C 7.8 g/m*3 8.9 C 0 km/h
1427 07-01-2011 21:09:01 8.9 C 7.8 g/m*3 8.9 C 0 km/h
1428 07-01-2011 21:21:02 8.9 C 7.88 g/m*3 8.9 C 0 km/h
1429 07-01-2011 21:33:02 9 C 7.85 g/m*3 9 C 0 km/h
1430 07-01-2011 21:45:02 9.1 C 7.9 g/m*3 9.1 C 0 km/h
1431 07-01-2011 21:57:02 9.1 C 7.9 g/m*3 9.1 C 0 km/h
1432 07-01-2011 22:09:02 9 C 7.76 g/m*3 9 C 0 km/h
1433 07-01-2011 22:22:03 8.8 C 7.75 g/m*3 8.8 C 0 km/h
1434 07-01-2011 22:34:03 8.6 C 7.65 g/m*3 8.6 C 0 km/h
1435 07-01-2011 22:46:03 8.5 C 7.51 g/m*3 8.5 C 0 km/h
1436 07-01-2011 22:58:03 8.6 C 7.65 g/m*3 8.6 C 0 km/h
1437 07-01-2011 23:10:03 8.6 C 7.65 g/m*3 8.6 C 0 km/h
1438 07-01-2011 23:22:03 8.5 C 7.6 g/m*3 8.5 C 0 km/h
1439 07-01-2011 23:34:03 8.8 C 7.75 g/m*3 8.8 C 0 km/h
1440 07-01-2011 23:46:03 8.9 C 7.8 g/m*3 8.9 C 0 km/h
1441 07-01-2011 23:58:03 9 C 7.76 g/m*3 9 C 0 km/h
1442 08-01-2011 00:10:03 9.2 C 7.77 g/m*3 9.2 C 0 km/h
1443 08-01-2011 00:22:03 8.9 C 7.62 g/m*3 8.9 C 0 km/h
1444 08-01-2011 00:34:03 8.7 C 7.52 g/m*3 8.7 C 0 km/h
1445 08-01-2011 00:46:03 8.3 C 7.33 g/m*3 8.3 C 0 km/h
1446 08-01-2011 00:58:03 8.1 C 7.24 g/m*3 8.1 C 0 km/h
1447 08-01-2011 01:10:03 8 C 7.28 g/m*3 8 C 0 km/h
1448 08-01-2011 01:22:03 7.7 C 7.22 g/m*3 7.7 C 0 km/h
1449 08-01-2011 01:34:03 7.5 C 7.12 g/m*3 7.5 C 0 km/h
1450 08-01-2011 01:46:03 7.1 C 6.94 g/m*3 7.1 C 0 km/h
Sensor: Nr:Datum:Temp:Abs-Feuchte:Windchill:Wind:
Aussen-T/F 1451 08-01-2011 01:58:04 7 C 6.9 g/m*3 7 C 0 km/h
1452 08-01-2011 02:10:04 6.9 C 6.93 g/m*3 6.9 C 0 km/h
1453 08-01-2011 02:22:04 6.6 C 6.79 g/m*3 6.6 C 0 km/h
1454 08-01-2011 02:34:04 6.7 C 6.91 g/m*3 6.7 C 0 km/h
1455 08-01-2011 02:46:04 6.6 C 6.87 g/m*3 6.6 C 0 km/h
1456 08-01-2011 02:58:04 6.8 C 6.96 g/m*3 6.8 C 0 km/h
1457 08-01-2011 03:10:04 7 C 7.05 g/m*3 7 C 0 km/h
1458 08-01-2011 03:22:04 7.9 C 7.56 g/m*3 7.9 C 0 km/h
1459 08-01-2011 03:34:04 8.1 C 7.57 g/m*3 8.1 C 0 km/h
1460 08-01-2011 03:46:04 8.5 C 7.77 g/m*3 8.5 C 0 km/h
1461 08-01-2011 03:58:04 8.1 C 7.57 g/m*3 8.1 C 0 km/h
1462 08-01-2011 04:10:04 7.9 C 7.56 g/m*3 7.9 C 0 km/h
1463 08-01-2011 04:22:04 8.2 C 7.62 g/m*3 8.2 C 0 km/h
1464 08-01-2011 04:34:04 8.1 C 7.57 g/m*3 8.1 C 0 km/h
1465 08-01-2011 04:46:04 7.9 C 7.56 g/m*3 7.9 C 0 km/h
1466 08-01-2011 04:58:04 7.3 C 7.27 g/m*3 7.3 C 0 km/h
1467 08-01-2011 05:10:04 7.5 C 7.36 g/m*3 7.5 C 0 km/h
1468 08-01-2011 05:22:04 8 C 7.52 g/m*3 8 C 0 km/h
1469 08-01-2011 05:34:04 7.9 C 7.56 g/m*3 7.9 C 0 km/h
1470 08-01-2011 05:46:04 8.1 C 7.66 g/m*3 8.1 C 0 km/h
1471 08-01-2011 05:58:05 8.2 C 7.7 g/m*3 8.2 C 0 km/h
1472 08-01-2011 06:10:05 8.2 C 7.7 g/m*3 8.2 C 0 km/h
1473 08-01-2011 06:22:05 8.2 C 7.7 g/m*3 8.2 C 0 km/h
1474 08-01-2011 06:34:05 8 C 7.61 g/m*3 8 C 0 km/h
1475 08-01-2011 06:46:05 7.8 C 7.59 g/m*3 7.8 C 0 km/h
Sensor: Nr:Datum:Temp:Abs-Feuchte:Windchill:Wind:
Aussen-T/F 1476 08-01-2011 06:58:05 7.7 C 7.54 g/m*3 7.7 C 0 km/h
1477 08-01-2011 07:10:05 8 C 7.61 g/m*3 8 C 0 km/h
1478 08-01-2011 07:22:05 8 C 7.61 g/m*3 8 C 0 km/h
1479 08-01-2011 07:34:05 7.9 C 7.64 g/m*3 7.9 C 0 km/h
1480 08-01-2011 07:46:05 8.3 C 7.75 g/m*3 8.3 C 0 km/h
1481 08-01-2011 07:58:05 8.6 C 7.91 g/m*3 8.6 C 0 km/h
1482 08-01-2011 08:10:05 8.5 C 7.85 g/m*3 8.5 C 0 km/h
1483 08-01-2011 08:22:05 8.2 C 7.7 g/m*3 8.2 C 0 km/h
1484 08-01-2011 08:34:05 7.9 C 7.64 g/m*3 7.9 C 0 km/h
1485 08-01-2011 08:46:02 8.3 C 7.75 g/m*3 8.3 C 0 km/h
1486 08-01-2011 08:58:02 8.8 C 8.09 g/m*3 8.8 C 0 km/h
1487 08-01-2011 09:10:02 8.9 C 8.06 g/m*3 8.9 C 0 km/h
1488 08-01-2011 09:22:02 9.1 C 8.07 g/m*3 9.1 C 0 km/h
1489 08-01-2011 09:34:02 8.7 C 7.96 g/m*3 8.7 C 0 km/h
1490 08-01-2011 09:46:02 8.5 C 7.85 g/m*3 8.5 C 0 km/h
1491 08-01-2011 09:58:02 8.3 C 7.75 g/m*3 8.3 C 0 km/h
1492 08-01-2011 10:10:01 8 C 7.61 g/m*3 8 C 0 km/h
1493 08-01-2011 10:22:02 7.7 C 7.46 g/m*3 7.7 C 0 km/h
1494 08-01-2011 10:34:01 7.6 C 7.41 g/m*3 7.6 C 0 km/h
1495 08-01-2011 10:46:02 7.6 C 7.41 g/m*3 7.6 C 0 km/h
1496 08-01-2011 10:58:03 8 C 7.52 g/m*3 8 C 0 km/h
1497 08-01-2011 11:10:02 8.6 C 7.82 g/m*3 8.6 C 0 km/h
1498 08-01-2011 11:22:02 9.3 C 8.09 g/m*3 9.3 C 0 km/h
1499 08-01-2011 11:34:03 10.2 C 8.09 g/m*3 10.2 C 0 km/h
1500 08-01-2011 11:46:02 10.9 C 7.96 g/m*3 10.9 C 0 km/h
Sensor: Nr:Datum:Temp:Abs-Feuchte:Windchill:Wind:
Aussen-T/F 1501 08-01-2011 11:58:02 12 C 7.25 g/m*3 12 C 0 km/h
1502 08-01-2011 12:10:02 12.1 C 6.97 g/m*3 12.1 C 0 km/h
1503 08-01-2011 12:22:01 12.7 C 6.57 g/m*3 12.7 C 0 km/h
1504 08-01-2011 12:34:02 13.1 C 6.39 g/m*3 13.1 C 0 km/h
1505 08-01-2011 12:46:02 13.8 C 6.55 g/m*3 13.8 C 0 km/h
1506 08-01-2011 12:58:02 13.8 C 6.43 g/m*3 13.8 C 0 km/h
1507 08-01-2011 13:10:02 13.9 C 6.35 g/m*3 13.9 C 0 km/h
1508 08-01-2011 13:22:01 14 C 6.27 g/m*3 14 C 0 km/h
1509 08-01-2011 13:34:02 14.1 C 5.95 g/m*3 14.1 C 0 km/h
1510 08-01-2011 13:46:02 14.4 C 5.93 g/m*3 14.4 C 0 km/h
1511 08-01-2011 13:58:02 14.5 C 5.85 g/m*3 14.5 C 0 km/h
1512 08-01-2011 14:10:02 14.5 C 5.85 g/m*3 14.5 C 0 km/h
1513 08-01-2011 14:22:02 14.7 C 5.79 g/m*3 14.7 C 0 km/h
1514 08-01-2011 14:34:02 14.5 C 5.85 g/m*3 14.5 C 0 km/h
1515 08-01-2011 14:46:02 14.3 C 5.9 g/m*3 14.3 C 0 km/h
1516 08-01-2011 14:58:02 14 C 5.91 g/m*3 14 C 0 km/h
1517 08-01-2011 15:10:02 14.3 C 5.9 g/m*3 14.3 C 0 km/h
1518 08-01-2011 15:22:02 14 C 6.03 g/m*3 14 C 0 km/h
1519 08-01-2011 15:34:01 14 C 5.79 g/m*3 14 C 0 km/h
1520 08-01-2011 15:46:02 14.2 C 5.74 g/m*3 14.2 C 0 km/h
1521 08-01-2011 15:58:02 14.1 C 5.83 g/m*3 14.1 C 0 km/h
1522 08-01-2011 16:10:01 14 C 5.79 g/m*3 14 C 0 km/h
1523 08-01-2011 16:22:02 13.8 C 5.96 g/m*3 13.8 C 0 km/h
1524 08-01-2011 16:34:02 12.8 C 6.05 g/m*3 12.8 C 0 km/h
1525 08-01-2011 16:46:02 13.7 C 5.8 g/m*3 13.7 C 0 km/h
Sensor: Nr:Datum:Temp:Abs-Feuchte:Windchill:Wind:
Aussen-T/F 1526 08-01-2011 16:58:02 13.7 C 5.68 g/m*3 13.7 C 0 km/h
1527 08-01-2011 17:10:02 13.2 C 5.86 g/m*3 13.2 C 0 km/h
1528 08-01-2011 17:22:02 13.4 C 5.93 g/m*3 13.4 C 0 km/h
1529 08-01-2011 17:34:02 13.3 C 6.01 g/m*3 13.3 C 0 km/h
1530 08-01-2011 17:46:01 13.5 C 5.85 g/m*3 13.5 C 0 km/h
1531 08-01-2011 17:58:01 13 C 5.9 g/m*3 13 C 0 km/h
1532 08-01-2011 18:10:02 13.5 C 5.97 g/m*3 13.5 C 0 km/h
1533 08-01-2011 18:22:01 13.2 C 5.86 g/m*3 13.2 C 0 km/h
1534 08-01-2011 18:34:01 13.7 C 5.8 g/m*3 13.7 C 0 km/h
1535 08-01-2011 18:46:01 13.5 C 5.85 g/m*3 13.5 C 0 km/h
1536 08-01-2011 18:58:01 13.3 C 5.89 g/m*3 13.3 C 0 km/h
1537 08-01-2011 19:10:02 13 C 6.01 g/m*3 13 C 0 km/h
1538 08-01-2011 19:22:01 13.1 C 5.93 g/m*3 13.1 C 0 km/h
1539 08-01-2011 19:34:01 13.3 C 5.89 g/m*3 13.3 C 0 km/h
1540 08-01-2011 19:46:01 13.2 C 5.86 g/m*3 13.2 C 0 km/h
1541 08-01-2011 19:58:01 13.2 C 5.97 g/m*3 13.2 C 0 km/h
1542 08-01-2011 20:10:02 13.2 C 5.97 g/m*3 13.2 C 0 km/h
1543 08-01-2011 20:22:02 12.7 C 6.12 g/m*3 12.7 C 0 km/h
1544 08-01-2011 20:34:01 11.8 C 6.53 g/m*3 11.8 C 0 km/h
1545 08-01-2011 20:46:02 12.1 C 6.54 g/m*3 12.1 C 0 km/h
1546 08-01-2011 20:58:02 11.8 C 6.53 g/m*3 11.8 C 0 km/h
1547 08-01-2011 21:10:01 11.4 C 6.57 g/m*3 11.4 C 0 km/h
1548 08-01-2011 21:22:02 11.8 C 6.63 g/m*3 11.8 C 0 km/h
1549 08-01-2011 21:34:01 12.2 C 6.58 g/m*3 12.2 C 0 km/h
1550 08-01-2011 21:46:02 12.5 C 6.82 g/m*3 12.5 C 0 km/h
Sensor: Nr:Datum:Temp:Abs-Feuchte:Windchill:Wind:
Aussen-T/F 1551 08-01-2011 21:58:02 12.3 C 6.41 g/m*3 12.3 C 0 km/h
1552 08-01-2011 22:10:03 12.5 C 6.38 g/m*3 12.5 C 0 km/h
1553 08-01-2011 22:22:02 12.3 C 6.3 g/m*3 12.3 C 0 km/h
1554 08-01-2011 22:35:03 11.8 C 6.63 g/m*3 11.8 C 0 km/h
1555 08-01-2011 22:47:03 12.2 C 6.58 g/m*3 12.2 C 0 km/h
1556 08-01-2011 22:59:03 10.9 C 6.86 g/m*3 10.9 C 0 km/h
1557 08-01-2011 23:11:03 10.5 C 6.98 g/m*3 10.5 C 0 km/h
1558 08-01-2011 23:23:03 10.6 C 7.12 g/m*3 10.6 C 0 km/h
1559 08-01-2011 23:35:03 10.3 C 7.18 g/m*3 10.3 C 0 km/h
1560 08-01-2011 23:47:03 10.2 C 7.14 g/m*3 10.2 C 0 km/h
1561 08-01-2011 23:59:03 10 C 7.24 g/m*3 10 C 0 km/h
1562 09-01-2011 00:11:03 9.8 C 7.42 g/m*3 9.8 C 0 km/h
1563 09-01-2011 00:23:04 9.7 C 7.56 g/m*3 9.7 C 0 km/h
1564 09-01-2011 00:35:04 9.6 C 7.69 g/m*3 9.6 C 0 km/h
1565 09-01-2011 00:47:04 9.6 C 7.79 g/m*3 9.6 C 0 km/h
1566 09-01-2011 00:59:04 9.5 C 7.83 g/m*3 9.5 C 0 km/h
1567 09-01-2011 01:11:04 9.5 C 7.92 g/m*3 9.5 C 0 km/h
1568 09-01-2011 01:23:04 9.7 C 8.02 g/m*3 9.7 C 0 km/h
1569 09-01-2011 01:35:04 9.6 C 7.97 g/m*3 9.6 C 0 km/h
1570 09-01-2011 01:47:04 9.7 C 8.02 g/m*3 9.7 C 0 km/h
1571 09-01-2011 01:59:04 9.6 C 7.97 g/m*3 9.6 C 0 km/h
1572 09-01-2011 02:11:04 9.8 C 8.07 g/m*3 9.8 C 0 km/h
1573 09-01-2011 02:23:04 10 C 7.99 g/m*3 10 C 0 km/h
1574 09-01-2011 02:35:04 9.8 C 7.98 g/m*3 9.8 C 0 km/h
1575 09-01-2011 02:47:04 9.7 C 7.84 g/m*3 9.7 C 0 km/h
Sensor: Nr:Datum:Temp:Abs-Feuchte:Windchill:Wind:
Aussen-T/F 1576 09-01-2011 02:59:04 9.6 C 7.79 g/m*3 9.6 C 0 km/h
1577 09-01-2011 03:11:04 9.5 C 7.83 g/m*3 9.5 C 0 km/h
1578 09-01-2011 03:23:04 9.4 C 7.78 g/m*3 9.4 C 0 km/h
1579 09-01-2011 03:35:04 9.2 C 7.68 g/m*3 9.2 C 0 km/h
1580 09-01-2011 03:47:04 9.2 C 7.77 g/m*3 9.2 C 0 km/h
1581 09-01-2011 03:59:04 9.3 C 7.82 g/m*3 9.3 C 0 km/h
1582 09-01-2011 04:11:04 9.7 C 7.93 g/m*3 9.7 C 0 km/h
1583 09-01-2011 04:23:05 10.8 C 7.91 g/m*3 10.8 C 0 km/h
1584 09-01-2011 04:35:05 11 C 7.51 g/m*3 11 C 0 km/h
1585 09-01-2011 04:47:05 11.5 C 7.23 g/m*3 11.5 C 0 km/h
1586 09-01-2011 04:59:05 11.6 C 7.28 g/m*3 11.6 C 0 km/h
1587 09-01-2011 05:11:05 11.8 C 7.26 g/m*3 11.8 C 0 km/h
1588 09-01-2011 05:23:05 11.5 C 7.23 g/m*3 11.5 C 0 km/h
1589 09-01-2011 05:35:05 11.7 C 7.22 g/m*3 11.7 C 0 km/h
1590 09-01-2011 05:47:05 11.1 C 7.15 g/m*3 11.1 C 0 km/h
1591 09-01-2011 05:59:05 9.3 C 6.65 g/m*3 9.3 C 0 km/h
1592 09-01-2011 06:11:05 8 C 6.45 g/m*3 8 C 0 km/h
1593 09-01-2011 06:23:05 7.5 C 6.48 g/m*3 7.5 C 0 km/h
1594 09-01-2011 06:35:05 7.2 C 6.52 g/m*3 7.2 C 0 km/h
1595 09-01-2011 06:47:05 7 C 6.59 g/m*3 7 C 0 km/h
1596 09-01-2011 06:59:05 6.8 C 6.65 g/m*3 6.8 C 0 km/h
1597 09-01-2011 07:11:05 6.6 C 6.57 g/m*3 6.6 C 0 km/h
1598 09-01-2011 07:23:05 6.4 C 6.48 g/m*3 6.4 C 0 km/h
1599 09-01-2011 07:35:05 6.2 C 6.4 g/m*3 6.2 C 0 km/h
1600 09-01-2011 07:47:05 5.8 C 6.3 g/m*3 5.8 C 0 km/h
Sensor: Nr:Datum:Temp:Abs-Feuchte:Windchill:Wind:
Aussen-T/F 1601 09-01-2011 07:59:05 5.6 C 6.22 g/m*3 5.6 C 0 km/h
1602 09-01-2011 08:11:05 5.5 C 6.18 g/m*3 5.5 C 0 km/h
1603 09-01-2011 08:23:05 5.3 C 6.1 g/m*3 5.3 C 0 km/h
1604 09-01-2011 08:35:06 5.3 C 6.1 g/m*3 5.3 C 0 km/h
1605 09-01-2011 08:47:02 5 C 5.98 g/m*3 5 C 0 km/h
1606 09-01-2011 08:59:03 4.7 C 5.86 g/m*3 4.7 C 0 km/h
1607 09-01-2011 09:11:02 4.3 C 5.64 g/m*3 4.3 C 0 km/h
1608 09-01-2011 09:23:02 4.3 C 5.58 g/m*3 4.3 C 0 km/h
1609 09-01-2011 09:35:03 4 C 5.47 g/m*3 4 C 0 km/h
1610 09-01-2011 09:47:01 3.8 C 5.46 g/m*3 3.8 C 0 km/h
1611 09-01-2011 09:59:01 3.5 C 5.35 g/m*3 3.5 C 0 km/h
1612 09-01-2011 10:11:02 3 C 5.17 g/m*3 3 C 0 km/h
1613 09-01-2011 10:23:01 2.9 C 5.14 g/m*3 2.9 C 0 km/h
1614 09-01-2011 10:35:01 2.8 C 5.1 g/m*3 2.8 C 0 km/h
1615 09-01-2011 10:47:01 3 C 5.17 g/m*3 3 C 0 km/h
1616 09-01-2011 10:59:01 3.4 C 5.31 g/m*3 3.4 C 0 km/h
1617 09-01-2011 11:11:01 3.9 C 5.56 g/m*3 3.9 C 0 km/h
1618 09-01-2011 11:23:02 4.1 C 5.5 g/m*3 4.1 C 0 km/h
1619 09-01-2011 11:35:01 4.1 C 5.44 g/m*3 4.1 C 0 km/h
1620 09-01-2011 11:47:02 4.1 C 5.38 g/m*3 4.1 C 0 km/h
1621 09-01-2011 11:59:02 4.3 C 5.45 g/m*3 4.3 C 0 km/h
1622 09-01-2011 12:11:01 4.3 C 5.38 g/m*3 4.3 C 0 km/h
1623 09-01-2011 12:23:02 4.5 C 5.39 g/m*3 4.5 C 0 km/h
1624 09-01-2011 12:35:01 4.6 C 5.36 g/m*3 4.6 C 0 km/h
1625 09-01-2011 12:47:02 4.8 C 5.43 g/m*3 4.8 C 0 km/h
Sensor: Nr:Datum:Temp:Abs-Feuchte:Windchill:Wind:
Aussen-T/F 1626 09-01-2011 12:59:02 4.6 C 5.36 g/m*3 4.6 C 0 km/h
1627 09-01-2011 13:11:02 4.8 C 5.43 g/m*3 4.8 C 0 km/h
1628 09-01-2011 13:23:02 5.1 C 5.34 g/m*3 5.1 C 0 km/h
1629 09-01-2011 13:35:02 5.1 C 5.34 g/m*3 5.1 C 0 km/h
1630 09-01-2011 13:47:02 5.2 C 5.23 g/m*3 5.2 C 0 km/h
1631 09-01-2011 13:59:02 5.2 C 5.3 g/m*3 5.2 C 0 km/h
1632 09-01-2011 14:11:01 5.2 C 5.23 g/m*3 5.2 C 0 km/h
1633 09-01-2011 14:23:01 5.3 C 5.27 g/m*3 5.3 C 0 km/h
1634 09-01-2011 14:35:02 5.3 C 5.27 g/m*3 5.3 C 0 km/h
1635 09-01-2011 14:47:02 5.2 C 5.3 g/m*3 5.2 C 0 km/h
1636 09-01-2011 14:59:02 5.2 C 5.23 g/m*3 5.2 C 0 km/h
1637 09-01-2011 15:11:02 5 C 5.37 g/m*3 5 C 0 km/h
1638 09-01-2011 15:23:02 4.8 C 5.5 g/m*3 4.8 C 0 km/h
1639 09-01-2011 15:35:02 4.6 C 5.49 g/m*3 4.6 C 0 km/h
1640 09-01-2011 15:47:02 4.4 C 5.42 g/m*3 4.4 C 0 km/h
1641 09-01-2011 15:59:02 4.1 C 5.38 g/m*3 4.1 C 0 km/h
1642 09-01-2011 16:11:02 3.8 C 5.4 g/m*3 3.8 C 0 km/h
1643 09-01-2011 16:23:02 3.4 C 5.31 g/m*3 3.4 C 0 km/h
1644 09-01-2011 16:35:02 3.2 C 5.24 g/m*3 3.2 C 0 km/h
1645 09-01-2011 16:47:02 3 C 5.23 g/m*3 3 C 0 km/h
1646 09-01-2011 16:59:02 2.9 C 5.26 g/m*3 2.9 C 0 km/h
1647 09-01-2011 17:11:02 3.2 C 5.36 g/m*3 3.2 C 0 km/h
1648 09-01-2011 17:23:02 2.9 C 5.26 g/m*3 2.9 C 0 km/h
1649 09-01-2011 17:35:02 2.7 C 5.19 g/m*3 2.7 C 0 km/h
1650 09-01-2011 17:47:02 2.6 C 5.21 g/m*3 2.6 C 0 km/h
Sensor: Nr:Datum:Temp:Abs-Feuchte:Windchill:Wind:
Aussen-T/F 1651 09-01-2011 17:59:02 2.5 C 5.17 g/m*3 2.5 C 0 km/h
1652 09-01-2011 18:11:02 2.2 C 5.07 g/m*3 2.2 C 0 km/h
1653 09-01-2011 18:23:03 1.9 C 5.02 g/m*3 1.9 C 0 km/h
1654 09-01-2011 18:35:02 1.7 C 4.95 g/m*3 1.7 C 0 km/h
1655 09-01-2011 18:47:02 1.5 C 4.89 g/m*3 1.5 C 0 km/h
1656 09-01-2011 18:59:02 1.5 C 4.89 g/m*3 1.5 C 0 km/h
1657 09-01-2011 19:11:02 1.6 C 4.97 g/m*3 1.6 C 0 km/h
1658 09-01-2011 19:23:02 1.7 C 5.01 g/m*3 1.7 C 0 km/h
1659 09-01-2011 19:35:02 2 C 5.11 g/m*3 2 C 0 km/h
1660 09-01-2011 19:47:02 1.9 C 5.08 g/m*3 1.9 C 0 km/h
1661 09-01-2011 19:59:02 1.8 C 5.04 g/m*3 1.8 C 0 km/h
1662 09-01-2011 20:11:02 1.4 C 4.91 g/m*3 1.4 C 0 km/h
1663 09-01-2011 20:23:02 1.5 C 4.94 g/m*3 1.5 C 0 km/h
1664 09-01-2011 20:35:02 1.5 C 4.94 g/m*3 1.5 C 0 km/h
1665 09-01-2011 20:47:02 1 C 4.72 g/m*3 1 C 0 km/h
1666 09-01-2011 20:59:02 0.8 C 4.71 g/m*3 0.8 C 0 km/h
1667 09-01-2011 21:11:02 0.5 C 4.61 g/m*3 0.5 C 0 km/h
1668 09-01-2011 21:23:02 0.3 C 4.55 g/m*3 0.3 C 0 km/h
1669 09-01-2011 21:35:01 0.9 C 4.79 g/m*3 0.9 C 0 km/h
1670 09-01-2011 21:47:02 0.8 C 4.71 g/m*3 0.8 C 0 km/h
1671 09-01-2011 21:59:02 0.7 C 4.73 g/m*3 0.7 C 0 km/h
1672 09-01-2011 22:11:02 0.2 C 4.52 g/m*3 0.2 C 0 km/h
1673 09-01-2011 22:23:02 0.3 C 4.6 g/m*3 0.3 C 0 km/h
1674 09-01-2011 22:36:02 0 C 4.46 g/m*3 0 C 0 km/h
1675 09-01-2011 22:48:02 -0.2 C 4.4 g/m*3 -0.2 C 0 km/h
Sensor: Nr:Datum:Temp:Abs-Feuchte:Windchill:Wind:
Aussen-T/F 1676 09-01-2011 23:00:02 0.1 C 4.54 g/m*3 0.1 C 0 km/h
1677 09-01-2011 23:12:02 0.2 C 4.57 g/m*3 0.2 C 0 km/h
1678 09-01-2011 23:24:02 -0.3 C 4.41 g/m*3 -0.3 C 0 km/h
1679 09-01-2011 23:36:02 0.1 C 4.54 g/m*3 0.1 C 0 km/h
1680 09-01-2011 23:48:02 0 C 4.51 g/m*3 0 C 0 km/h
1681 10-01-2011 00:00:02 0.3 C 4.6 g/m*3 0.3 C 0 km/h
1682 10-01-2011 00:12:02 0.6 C 4.7 g/m*3 0.6 C 0 km/h
1683 10-01-2011 00:24:02 0.3 C 4.6 g/m*3 0.3 C 0 km/h
1684 10-01-2011 00:36:02 -0.2 C 4.44 g/m*3 -0.2 C 0 km/h
1685 10-01-2011 00:48:02 -0.2 C 4.44 g/m*3 -0.2 C 0 km/h
1686 10-01-2011 01:00:02 0.2 C 4.57 g/m*3 0.2 C 0 km/h
1687 10-01-2011 01:12:02 0.3 C 4.6 g/m*3 0.3 C 0 km/h
1688 10-01-2011 01:24:02 0.4 C 4.63 g/m*3 0.4 C 0 km/h
1689 10-01-2011 01:36:02 0.3 C 4.65 g/m*3 0.3 C 0 km/h
1690 10-01-2011 01:48:02 0.2 C 4.62 g/m*3 0.2 C 0 km/h
1691 10-01-2011 02:00:02 0.2 C 4.62 g/m*3 0.2 C 0 km/h
1692 10-01-2011 02:12:02 0.1 C 4.54 g/m*3 0.1 C 0 km/h
1693 10-01-2011 02:24:02 0 C 4.55 g/m*3 0 C 0 km/h
1694 10-01-2011 02:36:03 -0.1 C 4.52 g/m*3 -0.1 C 0 km/h
1695 10-01-2011 02:48:03 -0.1 C 4.52 g/m*3 -0.1 C 0 km/h
1696 10-01-2011 03:00:03 0 C 4.55 g/m*3 0 C 0 km/h
1697 10-01-2011 03:12:03 0.2 C 4.62 g/m*3 0.2 C 0 km/h
1698 10-01-2011 03:24:03 0.3 C 4.65 g/m*3 0.3 C 0 km/h
1699 10-01-2011 03:36:03 0.2 C 4.62 g/m*3 0.2 C 0 km/h
1700 10-01-2011 03:48:03 0.3 C 4.65 g/m*3 0.3 C 0 km/h
Sensor: Nr:Datum:Temp:Abs-Feuchte:Windchill:Wind:
Aussen-T/F 1701 10-01-2011 04:00:03 0.4 C 4.68 g/m*3 0.4 C 0 km/h
1702 10-01-2011 04:12:03 0.4 C 4.68 g/m*3 0.4 C 0 km/h
1703 10-01-2011 04:24:03 0.4 C 4.68 g/m*3 0.4 C 0 km/h
1704 10-01-2011 04:36:03 0.4 C 4.68 g/m*3 0.4 C 0 km/h
1705 10-01-2011 04:48:03 0.3 C 4.65 g/m*3 0.3 C 0 km/h
1706 10-01-2011 05:00:03 0.3 C 4.65 g/m*3 0.3 C 0 km/h
1707 10-01-2011 05:12:03 0.3 C 4.65 g/m*3 0.3 C 0 km/h
1708 10-01-2011 05:24:03 0.2 C 4.62 g/m*3 0.2 C 0 km/h
1709 10-01-2011 05:36:03 0.3 C 4.65 g/m*3 0.3 C 0 km/h
1710 10-01-2011 05:48:03 0.2 C 4.57 g/m*3 0.2 C 0 km/h
1711 10-01-2011 06:00:03 0.2 C 4.57 g/m*3 0.2 C 0 km/h
1712 10-01-2011 06:12:03 0.2 C 4.57 g/m*3 0.2 C 0 km/h
1713 10-01-2011 06:24:03 0.2 C 4.57 g/m*3 0.2 C 0 km/h
1714 10-01-2011 06:36:04 0.2 C 4.57 g/m*3 0.2 C 0 km/h
1715 10-01-2011 06:48:04 0.2 C 4.57 g/m*3 0.2 C 0 km/h
1716 10-01-2011 07:00:04 0.2 C 4.57 g/m*3 0.2 C 0 km/h
1717 10-01-2011 07:12:01 -0.1 C 4.47 g/m*3 -0.1 C 0 km/h
1718 10-01-2011 07:24:02 0 C 4.51 g/m*3 0 C 0 km/h
1719 10-01-2011 07:36:01 0.1 C 4.54 g/m*3 0.1 C 0 km/h
1720 10-01-2011 07:48:02 0.3 C 4.6 g/m*3 0.3 C 0 km/h
1721 10-01-2011 08:00:02 0.3 C 4.6 g/m*3 0.3 C 0 km/h
1722 10-01-2011 08:12:01 0.2 C 4.52 g/m*3 0.2 C 0 km/h
1723 10-01-2011 08:24:02 0.2 C 4.52 g/m*3 0.2 C 0 km/h
1724 10-01-2011 08:36:01 0.1 C 4.44 g/m*3 0.1 C 0 km/h
1725 10-01-2011 08:48:03 0.1 C 4.44 g/m*3 0.1 C 0 km/h
Sensor: Nr:Datum:Temp:Abs-Feuchte:Windchill:Wind:
Aussen-T/F 1726 10-01-2011 09:00:03 0.2 C 4.47 g/m*3 0.2 C 0 km/h
1727 10-01-2011 09:12:02 0.3 C 4.45 g/m*3 0.3 C 0 km/h
1728 10-01-2011 09:24:02 0.4 C 4.48 g/m*3 0.4 C 0 km/h
1729 10-01-2011 09:36:02 0.3 C 4.4 g/m*3 0.3 C 0 km/h
1730 10-01-2011 09:48:02 0.4 C 4.43 g/m*3 0.4 C 0 km/h
1731 10-01-2011 10:00:02 0.5 C 4.41 g/m*3 0.5 C 0 km/h
1732 10-01-2011 10:12:02 0.2 C 4.27 g/m*3 0.2 C 0 km/h
1733 10-01-2011 10:24:02 0.5 C 4.36 g/m*3 0.5 C 0 km/h
1734 10-01-2011 10:36:02 0.7 C 4.37 g/m*3 0.7 C 0 km/h
1735 10-01-2011 10:48:02 0.8 C 4.4 g/m*3 0.8 C 0 km/h
1736 10-01-2011 11:00:02 1.1 C 4.39 g/m*3 1.1 C 0 km/h
1737 10-01-2011 11:12:01 0.5 C 4.16 g/m*3 0.5 C 0 km/h
1738 10-01-2011 11:24:01 0.8 C 4.2 g/m*3 0.8 C 0 km/h
1739 10-01-2011 11:36:02 0.8 C 4.15 g/m*3 0.8 C 0 km/h
1740 10-01-2011 11:48:02 1.2 C 4.21 g/m*3 1.2 C 0 km/h
1741 10-01-2011 12:00:02 1.3 C 4.24 g/m*3 1.3 C 0 km/h
1742 10-01-2011 12:12:02 1.7 C 4.3 g/m*3 1.7 C 0 km/h
1743 10-01-2011 12:24:01 2.1 C 4.36 g/m*3 2.1 C 0 km/h
1744 10-01-2011 12:36:02 2 C 4.33 g/m*3 2 C 0 km/h
1745 10-01-2011 12:48:02 1.8 C 4.28 g/m*3 1.8 C 0 km/h
1746 10-01-2011 13:00:02 2.1 C 4.36 g/m*3 2.1 C 0 km/h
1747 10-01-2011 13:12:02 2 C 4.33 g/m*3 2 C 0 km/h
1748 10-01-2011 13:24:01 2 C 4.39 g/m*3 2 C 0 km/h
1749 10-01-2011 13:36:02 2.2 C 4.45 g/m*3 2.2 C 0 km/h
1750 10-01-2011 13:48:02 2.2 C 4.39 g/m*3 2.2 C 0 km/h
Sensor: Nr:Datum:Temp:Abs-Feuchte:Windchill:Wind:
Aussen-T/F 1751 10-01-2011 14:00:02 2.4 C 4.45 g/m*3 2.4 C 0 km/h
1752 10-01-2011 14:12:02 2.5 C 4.48 g/m*3 2.5 C 0 km/h
1753 10-01-2011 14:24:02 2.3 C 4.48 g/m*3 2.3 C 0 km/h
1754 10-01-2011 14:36:02 2.1 C 4.36 g/m*3 2.1 C 0 km/h
1755 10-01-2011 14:48:02 2 C 4.33 g/m*3 2 C 0 km/h
1756 10-01-2011 15:00:02 2 C 4.33 g/m*3 2 C 0 km/h
1757 10-01-2011 15:12:02 2.1 C 4.36 g/m*3 2.1 C 0 km/h
1758 10-01-2011 15:24:02 2.1 C 4.36 g/m*3 2.1 C 0 km/h
1759 10-01-2011 15:36:01 2.2 C 4.39 g/m*3 2.2 C 0 km/h
1760 10-01-2011 15:48:02 2.1 C 4.36 g/m*3 2.1 C 0 km/h
1761 10-01-2011 16:00:02 2.1 C 4.36 g/m*3 2.1 C 0 km/h
1762 10-01-2011 16:12:01 2 C 4.33 g/m*3 2 C 0 km/h
1763 10-01-2011 16:24:02 1.9 C 4.36 g/m*3 1.9 C 0 km/h
1764 10-01-2011 16:36:02 1.8 C 4.33 g/m*3 1.8 C 0 km/h
1765 10-01-2011 16:48:02 1.5 C 4.24 g/m*3 1.5 C 0 km/h
1766 10-01-2011 17:00:02 1.2 C 4.21 g/m*3 1.2 C 0 km/h
1767 10-01-2011 17:12:02 0.8 C 4.2 g/m*3 0.8 C 0 km/h
1768 10-01-2011 17:24:02 0.7 C 4.22 g/m*3 0.7 C 0 km/h
1769 10-01-2011 17:36:02 0.7 C 4.27 g/m*3 0.7 C 0 km/h
1770 10-01-2011 17:48:02 0.8 C 4.3 g/m*3 0.8 C 0 km/h
1771 10-01-2011 18:00:02 0.7 C 4.27 g/m*3 0.7 C 0 km/h
1772 10-01-2011 18:12:01 0.4 C 4.18 g/m*3 0.4 C 0 km/h
1773 10-01-2011 18:24:02 0.1 C 4.1 g/m*3 0.1 C 0 km/h
1774 10-01-2011 18:36:02 -0.1 C 4.09 g/m*3 -0.1 C 0 km/h
1775 10-01-2011 18:48:02 0 C 4.17 g/m*3 0 C 0 km/h
Sensor: Nr:Datum:Temp:Abs-Feuchte:Windchill:Wind:
Aussen-T/F 1776 10-01-2011 19:00:02 0.1 C 4.24 g/m*3 0.1 C 0 km/h
1777 10-01-2011 19:12:02 0.2 C 4.27 g/m*3 0.2 C 0 km/h
1778 10-01-2011 19:24:02 0.2 C 4.32 g/m*3 0.2 C 0 km/h
1779 10-01-2011 19:36:02 0.4 C 4.38 g/m*3 0.4 C 0 km/h
1780 10-01-2011 19:48:02 0.4 C 4.38 g/m*3 0.4 C 0 km/h
1781 10-01-2011 20:00:02 0.4 C 4.38 g/m*3 0.4 C 0 km/h
1782 10-01-2011 20:12:02 0.6 C 4.39 g/m*3 0.6 C 0 km/h
1783 10-01-2011 20:24:01 0.8 C 4.4 g/m*3 0.8 C 0 km/h
1784 10-01-2011 20:36:02 0.8 C 4.3 g/m*3 0.8 C 0 km/h
1785 10-01-2011 20:48:02 0.8 C 4.25 g/m*3 0.8 C 0 km/h
1786 10-01-2011 21:00:02 0.7 C 4.12 g/m*3 0.7 C 0 km/h
1787 10-01-2011 21:12:02 0.6 C 4.04 g/m*3 0.6 C 0 km/h
1788 10-01-2011 21:24:01 0.5 C 4.01 g/m*3 0.5 C 0 km/h
1789 10-01-2011 21:36:02 0.5 C 4.01 g/m*3 0.5 C 0 km/h
1790 10-01-2011 21:48:02 0.5 C 4.01 g/m*3 0.5 C 0 km/h
1791 10-01-2011 22:00:02 0.5 C 4.06 g/m*3 0.5 C 0 km/h
1792 10-01-2011 22:12:02 0.5 C 4.06 g/m*3 0.5 C 0 km/h
1793 10-01-2011 22:25:04 0.5 C 4.06 g/m*3 0.5 C 0 km/h
1794 10-01-2011 22:37:04 0.5 C 4.06 g/m*3 0.5 C 0 km/h
1795 10-01-2011 22:49:04 0.5 C 4.01 g/m*3 0.5 C 0 km/h
1796 10-01-2011 23:01:04 0.5 C 4.01 g/m*3 0.5 C 0 km/h
1797 10-01-2011 23:13:04 0.5 C 4.01 g/m*3 0.5 C 0 km/h
1798 10-01-2011 23:25:04 0.5 C 4.01 g/m*3 0.5 C 0 km/h
1799 10-01-2011 23:37:04 0.6 C 4.09 g/m*3 0.6 C 0 km/h
1800 10-01-2011 23:49:04 0.6 C 4.09 g/m*3 0.6 C 0 km/h
Sensor: Nr:Datum:Temp:Abs-Feuchte:Windchill:Wind:
Aussen-T/F 1801 11-01-2011 00:01:04 0.6 C 4.04 g/m*3 0.6 C 0 km/h
1802 11-01-2011 00:13:05 0.5 C 3.96 g/m*3 0.5 C 0 km/h
1803 11-01-2011 00:25:05 0.3 C 3.96 g/m*3 0.3 C 0 km/h
1804 11-01-2011 00:37:05 -0.2 C 3.82 g/m*3 -0.2 C 0 km/h
1805 11-01-2011 00:49:05 -0.4 C 3.86 g/m*3 -0.4 C 0 km/h
1806 11-01-2011 01:01:05 -0.2 C 4.01 g/m*3 -0.2 C 0 km/h
1807 11-01-2011 01:13:05 -0.1 C 4.04 g/m*3 -0.1 C 0 km/h
1808 11-01-2011 01:25:05 -0.4 C 4.01 g/m*3 -0.4 C 0 km/h
1809 11-01-2011 01:37:05 -0.1 C 4.14 g/m*3 -0.1 C 0 km/h
1810 11-01-2011 01:49:05 0.2 C 4.22 g/m*3 0.2 C 0 km/h
1811 11-01-2011 02:01:05 0.6 C 4.29 g/m*3 0.6 C 0 km/h
1812 11-01-2011 02:13:05 0.7 C 4.22 g/m*3 0.7 C 0 km/h
1813 11-01-2011 02:25:05 0.8 C 4.2 g/m*3 0.8 C 0 km/h
1814 11-01-2011 02:37:05 1 C 4.1 g/m*3 1 C 0 km/h
1815 11-01-2011 02:49:05 0.8 C 4.04 g/m*3 0.8 C 0 km/h
1816 11-01-2011 03:01:05 0.8 C 4.04 g/m*3 0.8 C 0 km/h
1817 11-01-2011 03:13:05 0.8 C 4.04 g/m*3 0.8 C 0 km/h
1818 11-01-2011 03:25:05 0.6 C 4.04 g/m*3 0.6 C 0 km/h
1819 11-01-2011 03:37:05 0.8 C 4.1 g/m*3 0.8 C 0 km/h
1820 11-01-2011 03:49:05 0.6 C 4.04 g/m*3 0.6 C 0 km/h
1821 11-01-2011 04:01:05 0.3 C 3.96 g/m*3 0.3 C 0 km/h
1822 11-01-2011 04:13:06 0.2 C 3.98 g/m*3 0.2 C 0 km/h
1823 11-01-2011 04:25:06 0.1 C 4 g/m*3 0.1 C 0 km/h
1824 11-01-2011 04:37:06 0.6 C 4.14 g/m*3 0.6 C 0 km/h
1825 11-01-2011 04:49:06 0.9 C 4.18 g/m*3 0.9 C 0 km/h
Sensor: Nr:Datum:Temp:Abs-Feuchte:Windchill:Wind:
Aussen-T/F 1826 11-01-2011 05:01:06 1.1 C 4.13 g/m*3 1.1 C 0 km/h
1827 11-01-2011 05:13:06 1.1 C 4.13 g/m*3 1.1 C 0 km/h
1828 11-01-2011 05:25:06 1.1 C 4.13 g/m*3 1.1 C 0 km/h
1829 11-01-2011 05:37:06 1.1 C 4.13 g/m*3 1.1 C 0 km/h
1830 11-01-2011 05:49:06 1.1 C 4.13 g/m*3 1.1 C 0 km/h
1831 11-01-2011 06:01:06 1.2 C 4.16 g/m*3 1.2 C 0 km/h
1832 11-01-2011 06:13:06 1.2 C 4.16 g/m*3 1.2 C 0 km/h
1833 11-01-2011 06:25:06 1.3 C 4.19 g/m*3 1.3 C 0 km/h
1834 11-01-2011 06:37:06 1.3 C 4.24 g/m*3 1.3 C 0 km/h
1835 11-01-2011 06:49:06 1.3 C 4.24 g/m*3 1.3 C 0 km/h
1836 11-01-2011 07:01:06 1.4 C 4.27 g/m*3 1.4 C 0 km/h
1837 11-01-2011 07:13:06 1.4 C 4.32 g/m*3 1.4 C 0 km/h
1838 11-01-2011 07:25:03 1.4 C 4.32 g/m*3 1.4 C 0 km/h
1839 11-01-2011 07:37:03 1.4 C 4.32 g/m*3 1.4 C 0 km/h
1840 11-01-2011 07:49:02 1.5 C 4.4 g/m*3 1.5 C 0 km/h
1841 11-01-2011 08:01:02 1.5 C 4.4 g/m*3 1.5 C 0 km/h
1842 11-01-2011 08:13:02 1.5 C 4.4 g/m*3 1.5 C 0 km/h
1843 11-01-2011 08:25:03 1.5 C 4.46 g/m*3 1.5 C 0 km/h
1844 11-01-2011 08:37:02 1.5 C 4.46 g/m*3 1.5 C 0 km/h
1845 11-01-2011 08:49:03 1.5 C 4.51 g/m*3 1.5 C 0 km/h
1846 11-01-2011 09:01:02 1.6 C 4.54 g/m*3 1.6 C 0 km/h
1847 11-01-2011 09:13:02 1.8 C 4.66 g/m*3 1.8 C 0 km/h
1848 11-01-2011 09:25:02 2 C 4.67 g/m*3 2 C 0 km/h
1849 11-01-2011 09:37:02 2.3 C 4.71 g/m*3 2.3 C 0 km/h
1850 11-01-2011 09:49:02 2.6 C 4.75 g/m*3 2.6 C 0 km/h
Sensor: Nr:Datum:Temp:Abs-Feuchte:Windchill:Wind:
Aussen-T/F 1851 11-01-2011 10:01:02 2.9 C 4.72 g/m*3 2.9 C 0 km/h
1852 11-01-2011 10:13:02 3.2 C 4.7 g/m*3 3.2 C 0 km/h
1853 11-01-2011 10:25:02 3.2 C 4.58 g/m*3 3.2 C 0 km/h
1854 11-01-2011 10:37:02 3.2 C 4.58 g/m*3 3.2 C 0 km/h
1855 11-01-2011 10:49:02 2.7 C 4.54 g/m*3 2.7 C 0 km/h
1856 11-01-2011 11:01:02 2.5 C 4.6 g/m*3 2.5 C 0 km/h
1857 11-01-2011 11:13:02 2.6 C 4.75 g/m*3 2.6 C 0 km/h
1858 11-01-2011 11:25:02 2.8 C 4.87 g/m*3 2.8 C 0 km/h
1859 11-01-2011 11:37:02 3.7 C 5.17 g/m*3 3.7 C 0 km/h
1860 11-01-2011 11:49:02 4.8 C 5.1 g/m*3 4.8 C 0 km/h
1861 11-01-2011 12:01:02 5.4 C 4.74 g/m*3 5.4 C 0 km/h
1862 11-01-2011 12:13:02 5.7 C 4.63 g/m*3 5.7 C 0 km/h
1863 11-01-2011 12:25:02 5.7 C 4.55 g/m*3 5.7 C 0 km/h
1864 11-01-2011 12:37:01 5.6 C 4.6 g/m*3 5.6 C 0 km/h
1865 11-01-2011 12:49:02 5.1 C 4.58 g/m*3 5.1 C 0 km/h
1866 11-01-2011 13:01:01 5.2 C 4.75 g/m*3 5.2 C 0 km/h
1867 11-01-2011 13:13:01 5.1 C 4.72 g/m*3 5.1 C 0 km/h
1868 11-01-2011 13:25:01 5.3 C 4.71 g/m*3 5.3 C 0 km/h
1869 11-01-2011 13:37:02 5.5 C 4.85 g/m*3 5.5 C 0 km/h
1870 11-01-2011 13:49:02 5.4 C 4.74 g/m*3 5.4 C 0 km/h
1871 11-01-2011 14:01:02 5.3 C 4.85 g/m*3 5.3 C 0 km/h
1872 11-01-2011 14:13:02 5.3 C 4.92 g/m*3 5.3 C 0 km/h
1873 11-01-2011 14:25:02 5.3 C 4.85 g/m*3 5.3 C 0 km/h
1874 11-01-2011 14:37:02 5.3 C 4.92 g/m*3 5.3 C 0 km/h
1875 11-01-2011 14:49:02 5.3 C 4.92 g/m*3 5.3 C 0 km/h
Sensor: Nr:Datum:Temp:Abs-Feuchte:Windchill:Wind:
Aussen-T/F 1876 11-01-2011 15:01:02 5.3 C 5.06 g/m*3 5.3 C 0 km/h
1877 11-01-2011 15:13:02 5.5 C 5.06 g/m*3 5.5 C 0 km/h
1878 11-01-2011 15:25:02 5.6 C 5.02 g/m*3 5.6 C 0 km/h
1879 11-01-2011 15:37:02 5.3 C 5.06 g/m*3 5.3 C 0 km/h
1880 11-01-2011 15:49:01 5.1 C 5.13 g/m*3 5.1 C 0 km/h
1881 11-01-2011 16:01:01 4.8 C 5.3 g/m*3 4.8 C 0 km/h
1882 11-01-2011 16:13:01 4.6 C 5.43 g/m*3 4.6 C 0 km/h
1883 11-01-2011 16:25:02 4.5 C 5.46 g/m*3 4.5 C 0 km/h
1884 11-01-2011 16:37:01 4.5 C 5.46 g/m*3 4.5 C 0 km/h
1885 11-01-2011 16:49:03 4.5 C 5.46 g/m*3 4.5 C 0 km/h
1886 11-01-2011 17:01:02 4.7 C 5.53 g/m*3 4.7 C 0 km/h
1887 11-01-2011 17:13:02 4.7 C 5.46 g/m*3 4.7 C 0 km/h
1888 11-01-2011 17:25:02 5.2 C 5.44 g/m*3 5.2 C 0 km/h
1889 11-01-2011 17:37:02 5.4 C 5.44 g/m*3 5.4 C 0 km/h
1890 11-01-2011 17:49:02 5.5 C 5.41 g/m*3 5.5 C 0 km/h
1891 11-01-2011 18:01:02 5.3 C 5.41 g/m*3 5.3 C 0 km/h
1892 11-01-2011 18:13:02 5.3 C 5.48 g/m*3 5.3 C 0 km/h
1893 11-01-2011 18:25:02 5.4 C 5.51 g/m*3 5.4 C 0 km/h
1894 11-01-2011 18:37:02 5.6 C 5.59 g/m*3 5.6 C 0 km/h
1895 11-01-2011 18:49:02 5.8 C 5.59 g/m*3 5.8 C 0 km/h
1896 11-01-2011 19:01:01 6 C 5.52 g/m*3 6 C 0 km/h
1897 11-01-2011 19:13:01 6 C 5.52 g/m*3 6 C 0 km/h
1898 11-01-2011 19:25:01 6 C 5.59 g/m*3 6 C 0 km/h
1899 11-01-2011 19:37:02 6 C 5.59 g/m*3 6 C 0 km/h
1900 11-01-2011 19:49:02 5.9 C 5.62 g/m*3 5.9 C 0 km/h
Sensor: Nr:Datum:Temp:Abs-Feuchte:Windchill:Wind:
Aussen-T/F 1901 11-01-2011 20:01:02 6 C 5.59 g/m*3 6 C 0 km/h
1902 11-01-2011 20:13:02 6.1 C 5.63 g/m*3 6.1 C 0 km/h
1903 11-01-2011 20:25:02 6.1 C 5.63 g/m*3 6.1 C 0 km/h
1904 11-01-2011 20:37:02 6.2 C 5.59 g/m*3 6.2 C 0 km/h
1905 11-01-2011 20:49:02 6.3 C 5.55 g/m*3 6.3 C 0 km/h
1906 11-01-2011 21:01:02 6.3 C 5.63 g/m*3 6.3 C 0 km/h
1907 11-01-2011 21:13:02 6.3 C 5.63 g/m*3 6.3 C 0 km/h
1908 11-01-2011 21:25:02 6.1 C 5.63 g/m*3 6.1 C 0 km/h
1909 11-01-2011 21:37:02 6.1 C 5.7 g/m*3 6.1 C 0 km/h
1910 11-01-2011 21:50:03 6 C 5.73 g/m*3 6 C 0 km/h
1911 11-01-2011 22:02:03 5.8 C 5.8 g/m*3 5.8 C 0 km/h
1912 11-01-2011 22:14:03 5.9 C 5.91 g/m*3 5.9 C 0 km/h
1913 11-01-2011 22:26:03 5.9 C 5.91 g/m*3 5.9 C 0 km/h
1914 11-01-2011 22:38:03 6.3 C 6 g/m*3 6.3 C 0 km/h
1915 11-01-2011 22:50:03 5.9 C 5.91 g/m*3 5.9 C 0 km/h
1916 11-01-2011 23:02:03 5.9 C 6.06 g/m*3 5.9 C 0 km/h
1917 11-01-2011 23:14:03 5.9 C 6.06 g/m*3 5.9 C 0 km/h
1918 11-01-2011 23:26:03 6 C 6.02 g/m*3 6 C 0 km/h
1919 11-01-2011 23:38:03 6.1 C 5.99 g/m*3 6.1 C 0 km/h
1920 11-01-2011 23:50:03 6.1 C 5.92 g/m*3 6.1 C 0 km/h
1921 12-01-2011 00:02:03 6.3 C 5.77 g/m*3 6.3 C 0 km/h
1922 12-01-2011 00:14:03 6.5 C 5.62 g/m*3 6.5 C 0 km/h
1923 12-01-2011 00:26:03 6.2 C 5.37 g/m*3 6.2 C 0 km/h
1924 12-01-2011 00:38:03 5.9 C 5.26 g/m*3 5.9 C 0 km/h
1925 12-01-2011 00:50:04 5.8 C 5.3 g/m*3 5.8 C 0 km/h
Sensor: Nr:Datum:Temp:Abs-Feuchte:Windchill:Wind:
Aussen-T/F 1926 12-01-2011 01:02:04 5.9 C 5.34 g/m*3 5.9 C 0 km/h
1927 12-01-2011 01:14:04 5.8 C 5.3 g/m*3 5.8 C 0 km/h
1928 12-01-2011 01:26:04 6 C 5.23 g/m*3 6 C 0 km/h
1929 12-01-2011 01:38:04 6 C 5.15 g/m*3 6 C 0 km/h
1930 12-01-2011 01:50:04 6.1 C 5.11 g/m*3 6.1 C 0 km/h
1931 12-01-2011 02:02:04 6 C 5.08 g/m*3 6 C 0 km/h
1932 12-01-2011 02:14:04 6 C 5.08 g/m*3 6 C 0 km/h
1933 12-01-2011 02:26:04 5.9 C 5.12 g/m*3 5.9 C 0 km/h
1934 12-01-2011 02:38:04 5.9 C 5.05 g/m*3 5.9 C 0 km/h
1935 12-01-2011 02:50:04 5.7 C 4.98 g/m*3 5.7 C 0 km/h
1936 12-01-2011 03:02:04 5.5 C 4.99 g/m*3 5.5 C 0 km/h
1937 12-01-2011 03:14:04 5 C 5.1 g/m*3 5 C 0 km/h
1938 12-01-2011 03:26:04 4.9 C 5.27 g/m*3 4.9 C 0 km/h
1939 12-01-2011 03:38:04 4.7 C 5.26 g/m*3 4.7 C 0 km/h
1940 12-01-2011 03:50:04 4.5 C 5.26 g/m*3 4.5 C 0 km/h
1941 12-01-2011 04:02:04 4.3 C 5.32 g/m*3 4.3 C 0 km/h
1942 12-01-2011 04:14:04 4.3 C 5.32 g/m*3 4.3 C 0 km/h
1943 12-01-2011 04:26:04 4.1 C 5.31 g/m*3 4.1 C 0 km/h
1944 12-01-2011 04:38:04 3.9 C 5.37 g/m*3 3.9 C 0 km/h
1945 12-01-2011 04:50:05 3.8 C 5.4 g/m*3 3.8 C 0 km/h
1946 12-01-2011 05:02:05 3.8 C 5.33 g/m*3 3.8 C 0 km/h
1947 12-01-2011 05:14:05 3.8 C 5.27 g/m*3 3.8 C 0 km/h
1948 12-01-2011 05:26:05 3.7 C 5.23 g/m*3 3.7 C 0 km/h
1949 12-01-2011 05:38:05 3.7 C 5.17 g/m*3 3.7 C 0 km/h
1950 12-01-2011 05:50:05 3.8 C 5.21 g/m*3 3.8 C 0 km/h
Sensor: Nr:Datum:Temp:Abs-Feuchte:Windchill:Wind:
Aussen-T/F 1951 12-01-2011 06:02:05 3.6 C 5.14 g/m*3 3.6 C 0 km/h
1952 12-01-2011 06:14:05 3.5 C 5.16 g/m*3 3.5 C 0 km/h
1953 12-01-2011 06:26:05 3.6 C 5.14 g/m*3 3.6 C 0 km/h
1954 12-01-2011 06:38:05 3.6 C 5.14 g/m*3 3.6 C 0 km/h
1955 12-01-2011 06:50:05 3.5 C 5.04 g/m*3 3.5 C 0 km/h
1956 12-01-2011 07:02:02 3.5 C 5.04 g/m*3 3.5 C 0 km/h
1957 12-01-2011 07:14:02 3.6 C 5.08 g/m*3 3.6 C 0 km/h
1958 12-01-2011 07:26:02 3.3 C 4.97 g/m*3 3.3 C 0 km/h
1959 12-01-2011 07:38:02 3.1 C 4.97 g/m*3 3.1 C 0 km/h
1960 12-01-2011 07:50:01 3.1 C 5.03 g/m*3 3.1 C 0 km/h
1961 12-01-2011 08:02:01 3 C 4.99 g/m*3 3 C 0 km/h
1962 12-01-2011 08:14:01 2.8 C 4.93 g/m*3 2.8 C 0 km/h
1963 12-01-2011 08:26:01 3.1 C 5.03 g/m*3 3.1 C 0 km/h
1964 12-01-2011 08:38:01 3 C 4.99 g/m*3 3 C 0 km/h
1965 12-01-2011 08:50:01 3 C 4.99 g/m*3 3 C 0 km/h
1966 12-01-2011 09:02:01 3.5 C 5.16 g/m*3 3.5 C 0 km/h
1967 12-01-2011 09:14:01 3.5 C 5.04 g/m*3 3.5 C 0 km/h
1968 12-01-2011 09:26:02 3.7 C 5.11 g/m*3 3.7 C 0 km/h
1969 12-01-2011 09:38:01 4 C 4.96 g/m*3 4 C 0 km/h
1970 12-01-2011 09:50:02 4.5 C 4.93 g/m*3 4.5 C 0 km/h
1971 12-01-2011 10:02:02 4.6 C 4.83 g/m*3 4.6 C 0 km/h
1972 12-01-2011 10:14:02 4.7 C 4.93 g/m*3 4.7 C 0 km/h
1973 12-01-2011 10:26:01 4.9 C 4.93 g/m*3 4.9 C 0 km/h
1974 12-01-2011 10:38:02 4.9 C 4.86 g/m*3 4.9 C 0 km/h
1975 12-01-2011 10:50:02 5 C 4.82 g/m*3 5 C 0 km/h
Sensor: Nr:Datum:Temp:Abs-Feuchte:Windchill:Wind:
Aussen-T/F 1976 12-01-2011 11:02:02 5.1 C 4.86 g/m*3 5.1 C 0 km/h
1977 12-01-2011 11:14:02 5.2 C 4.82 g/m*3 5.2 C 0 km/h
1978 12-01-2011 11:26:01 5.4 C 4.81 g/m*3 5.4 C 0 km/h
1979 12-01-2011 11:38:02 5.3 C 4.85 g/m*3 5.3 C 0 km/h
1980 12-01-2011 11:50:01 5.3 C 4.92 g/m*3 5.3 C 0 km/h
1981 12-01-2011 12:02:02 5.2 C 4.96 g/m*3 5.2 C 0 km/h
1982 12-01-2011 12:14:02 5 C 5.03 g/m*3 5 C 0 km/h
1983 12-01-2011 12:26:02 4.8 C 5.1 g/m*3 4.8 C 0 km/h
1984 12-01-2011 12:38:02 4.7 C 5.13 g/m*3 4.7 C 0 km/h
1985 12-01-2011 12:50:02 4.7 C 5.2 g/m*3 4.7 C 0 km/h
1986 12-01-2011 13:02:02 4.7 C 5.2 g/m*3 4.7 C 0 km/h
1987 12-01-2011 13:14:03 4.9 C 5.33 g/m*3 4.9 C 0 km/h
1988 12-01-2011 13:26:01 5 C 5.37 g/m*3 5 C 0 km/h
1989 12-01-2011 13:38:46 5 C 5.44 g/m*3 5 C 0 km/h
1990 12-01-2011 13:50:02 4.9 C 5.54 g/m*3 4.9 C 0 km/h
1991 12-01-2011 14:02:02 5 C 5.5 g/m*3 5 C 0 km/h
1992 12-01-2011 14:14:02 5.1 C 5.47 g/m*3 5.1 C 0 km/h
1993 12-01-2011 14:26:02 5.1 C 5.54 g/m*3 5.1 C 0 km/h
1994 12-01-2011 14:38:02 5.1 C 5.54 g/m*3 5.1 C 0 km/h
1995 12-01-2011 14:50:02 5.3 C 5.54 g/m*3 5.3 C 0 km/h
1996 12-01-2011 15:02:01 5.6 C 5.51 g/m*3 5.6 C 0 km/h
1997 12-01-2011 15:14:01 5.4 C 5.44 g/m*3 5.4 C 0 km/h
1998 12-01-2011 15:26:02 5.2 C 5.44 g/m*3 5.2 C 0 km/h
1999 12-01-2011 15:38:02 5.3 C 5.54 g/m*3 5.3 C 0 km/h
2000 12-01-2011 15:50:02 5.6 C 5.59 g/m*3 5.6 C 0 km/h
Sensor: Nr:Datum:Temp:Abs-Feuchte:Windchill:Wind:
Aussen-T/F 2001 12-01-2011 16:02:02 6 C 5.44 g/m*3 6 C 0 km/h
2002 12-01-2011 16:14:02 5.9 C 5.48 g/m*3 5.9 C 0 km/h
2003 12-01-2011 16:26:02 6 C 5.44 g/m*3 6 C 0 km/h
2004 12-01-2011 16:38:02 6.1 C 5.48 g/m*3 6.1 C 0 km/h
2005 12-01-2011 16:50:02 6.2 C 5.52 g/m*3 6.2 C 0 km/h
2006 12-01-2011 17:02:02 6.2 C 5.52 g/m*3 6.2 C 0 km/h
2007 12-01-2011 17:14:02 6.3 C 5.55 g/m*3 6.3 C 0 km/h
2008 12-01-2011 17:26:02 6.4 C 5.59 g/m*3 6.4 C 0 km/h
2009 12-01-2011 17:38:02 6 C 5.59 g/m*3 6 C 0 km/h
2010 12-01-2011 17:50:01 6.1 C 5.77 g/m*3 6.1 C 0 km/h
2011 12-01-2011 18:02:02 6.3 C 5.77 g/m*3 6.3 C 0 km/h
2012 12-01-2011 18:14:02 6 C 5.81 g/m*3 6 C 0 km/h
2013 12-01-2011 18:26:01 6 C 5.88 g/m*3 6 C 0 km/h
2014 12-01-2011 18:38:01 6.2 C 6.03 g/m*3 6.2 C 0 km/h
2015 12-01-2011 18:50:01 6.1 C 6.06 g/m*3 6.1 C 0 km/h
2016 12-01-2011 19:02:01 6.1 C 6.06 g/m*3 6.1 C 0 km/h
2017 12-01-2011 19:14:01 6 C 6.1 g/m*3 6 C 0 km/h
2018 12-01-2011 19:26:02 6.3 C 6.22 g/m*3 6.3 C 0 km/h
2019 12-01-2011 19:38:01 6.5 C 6.22 g/m*3 6.5 C 0 km/h
2020 12-01-2011 19:50:02 6.6 C 6.27 g/m*3 6.6 C 0 km/h
2021 12-01-2011 20:02:02 6.9 C 6.31 g/m*3 6.9 C 0 km/h
2022 12-01-2011 20:14:02 6.8 C 6.27 g/m*3 6.8 C 0 km/h
2023 12-01-2011 20:26:02 7 C 6.28 g/m*3 7 C 0 km/h
2024 12-01-2011 20:38:02 7.1 C 6.24 g/m*3 7.1 C 0 km/h
2025 12-01-2011 20:50:02 7.1 C 6.32 g/m*3 7.1 C 0 km/h
Sensor: Nr:Datum:Temp:Abs-Feuchte:Windchill:Wind:
Aussen-T/F 2026 12-01-2011 21:02:01 7.1 C 6.4 g/m*3 7.1 C 0 km/h
2027 12-01-2011 21:14:01 7.2 C 6.44 g/m*3 7.2 C 0 km/h
2028 12-01-2011 21:26:02 7.5 C 6.64 g/m*3 7.5 C 0 km/h
2029 12-01-2011 21:38:02 7.5 C 6.56 g/m*3 7.5 C 0 km/h
2030 12-01-2011 21:50:02 7.4 C 6.52 g/m*3 7.4 C 0 km/h
2031 12-01-2011 22:02:02 7.7 C 6.73 g/m*3 7.7 C 0 km/h
2032 12-01-2011 22:14:02 7.7 C 6.65 g/m*3 7.7 C 0 km/h
2033 12-01-2011 22:26:02 7.9 C 6.74 g/m*3 7.9 C 0 km/h
2034 12-01-2011 22:38:02 8.2 C 6.7 g/m*3 8.2 C 0 km/h
2035 12-01-2011 22:50:02 8.3 C 6.74 g/m*3 8.3 C 0 km/h
2036 12-01-2011 23:02:02 8.5 C 6.74 g/m*3 8.5 C 0 km/h
2037 12-01-2011 23:14:02 8.7 C 6.83 g/m*3 8.7 C 0 km/h
2038 12-01-2011 23:26:01 8.8 C 6.88 g/m*3 8.8 C 0 km/h
2039 12-01-2011 23:38:02 8.9 C 6.83 g/m*3 8.9 C 0 km/h
2040 12-01-2011 23:50:02 8.9 C 6.83 g/m*3 8.9 C 0 km/h
2041 13-01-2011 00:02:02 9 C 6.88 g/m*3 9 C 0 km/h
2042 13-01-2011 00:14:02 9.3 C 6.92 g/m*3 9.3 C 0 km/h
2043 13-01-2011 00:26:02 9.3 C 7.01 g/m*3 9.3 C 0 km/h
2044 13-01-2011 00:38:02 9.4 C 7.05 g/m*3 9.4 C 0 km/h
2045 13-01-2011 00:50:01 9.5 C 7.1 g/m*3 9.5 C 0 km/h
2046 13-01-2011 01:02:02 9.7 C 7.19 g/m*3 9.7 C 0 km/h
2047 13-01-2011 01:14:02 9.9 C 7.28 g/m*3 9.9 C 0 km/h
2048 13-01-2011 01:26:02 10 C 7.24 g/m*3 10 C 0 km/h
2049 13-01-2011 01:38:02 10.1 C 7.28 g/m*3 10.1 C 0 km/h
2050 13-01-2011 01:50:02 10.2 C 7.33 g/m*3 10.2 C 0 km/h
Sensor: Nr:Datum:Temp:Abs-Feuchte:Windchill:Wind:
Aussen-T/F 2051 13-01-2011 02:02:02 10.5 C 7.37 g/m*3 10.5 C 0 km/h
2052 13-01-2011 02:14:02 10.7 C 7.56 g/m*3 10.7 C 0 km/h
2053 13-01-2011 02:26:02 10.7 C 7.56 g/m*3 10.7 C 0 km/h
2054 13-01-2011 02:38:01 10.7 C 7.66 g/m*3 10.7 C 0 km/h
2055 13-01-2011 02:50:02 10.4 C 7.61 g/m*3 10.4 C 0 km/h
2056 13-01-2011 03:02:02 10.4 C 7.71 g/m*3 10.4 C 0 km/h
2057 13-01-2011 03:14:01 10.3 C 7.85 g/m*3 10.3 C 0 km/h
2058 13-01-2011 03:26:01 10.3 C 7.85 g/m*3 10.3 C 0 km/h
2059 13-01-2011 03:38:02 10.3 C 7.85 g/m*3 10.3 C 0 km/h
2060 13-01-2011 03:50:02 10.3 C 7.95 g/m*3 10.3 C 0 km/h
2061 13-01-2011 04:02:01 10.5 C 8.05 g/m*3 10.5 C 0 km/h
2062 13-01-2011 04:14:01 10.6 C 8.1 g/m*3 10.6 C 0 km/h
2063 13-01-2011 04:26:02 10.9 C 8.16 g/m*3 10.9 C 0 km/h
2064 13-01-2011 04:38:01 10.7 C 7.96 g/m*3 10.7 C 0 km/h
2065 13-01-2011 04:50:02 10.8 C 8.01 g/m*3 10.8 C 0 km/h
2066 13-01-2011 05:02:01 11 C 8.01 g/m*3 11 C 0 km/h
2067 13-01-2011 05:14:01 11.1 C 8.16 g/m*3 11.1 C 0 km/h
2068 13-01-2011 05:26:01 10.7 C 8.05 g/m*3 10.7 C 0 km/h
2069 13-01-2011 05:38:02 10.8 C 8.2 g/m*3 10.8 C 0 km/h
2070 13-01-2011 05:50:01 10.6 C 8.2 g/m*3 10.6 C 0 km/h
2071 13-01-2011 06:02:02 10.7 C 8.25 g/m*3 10.7 C 0 km/h
2072 13-01-2011 06:14:02 10.5 C 8.24 g/m*3 10.5 C 0 km/h
2073 13-01-2011 06:26:01 10.6 C 8.3 g/m*3 10.6 C 0 km/h
2074 13-01-2011 06:38:02 10.6 C 8.39 g/m*3 10.6 C 0 km/h
2075 13-01-2011 06:50:01 10.5 C 8.34 g/m*3 10.5 C 0 km/h
Sensor: Nr:Datum:Temp:Abs-Feuchte:Windchill:Wind:
Aussen-T/F 2076 13-01-2011 07:02:01 10.6 C 8.39 g/m*3 10.6 C 0 km/h
2077 13-01-2011 07:14:02 10.5 C 8.44 g/m*3 10.5 C 0 km/h
2078 13-01-2011 07:26:01 10.7 C 8.55 g/m*3 10.7 C 0 km/h
2079 13-01-2011 07:38:01 10.7 C 8.45 g/m*3 10.7 C 0 km/h
2080 13-01-2011 07:50:01 10.8 C 8.5 g/m*3 10.8 C 0 km/h
2081 13-01-2011 08:02:01 10.9 C 8.55 g/m*3 10.9 C 0 km/h
2082 13-01-2011 08:14:01 10.8 C 8.5 g/m*3 10.8 C 0 km/h
2083 13-01-2011 08:26:02 10.8 C 8.4 g/m*3 10.8 C 0 km/h
2084 13-01-2011 08:38:01 10.8 C 8.4 g/m*3 10.8 C 0 km/h
2085 13-01-2011 08:50:02 10.9 C 8.45 g/m*3 10.9 C 0 km/h
2086 13-01-2011 09:02:01 10.9 C 8.45 g/m*3 10.9 C 0 km/h
2087 13-01-2011 09:14:01 11.2 C 8.51 g/m*3 11.2 C 0 km/h
2088 13-01-2011 09:26:02 11.4 C 8.52 g/m*3 11.4 C 0 km/h
2089 13-01-2011 09:38:01 11.4 C 8.42 g/m*3 11.4 C 0 km/h
2090 13-01-2011 09:50:02 11.4 C 8.31 g/m*3 11.4 C 0 km/h
2091 13-01-2011 10:02:01 11.5 C 8.37 g/m*3 11.5 C 0 km/h
2092 13-01-2011 10:14:01 11.9 C 8.47 g/m*3 11.9 C 0 km/h
2093 13-01-2011 10:26:01 11.8 C 8.31 g/m*3 11.8 C 0 km/h
2094 13-01-2011 10:38:02 12.2 C 8.2 g/m*3 12.2 C 0 km/h
2095 13-01-2011 10:50:01 12.3 C 8.25 g/m*3 12.3 C 0 km/h
2096 13-01-2011 11:02:02 12.5 C 8.36 g/m*3 12.5 C 0 km/h
2097 13-01-2011 11:14:02 12.3 C 8.25 g/m*3 12.3 C 0 km/h
2098 13-01-2011 11:26:01 12.6 C 8.19 g/m*3 12.6 C 0 km/h
2099 13-01-2011 11:38:01 12.5 C 8.25 g/m*3 12.5 C 0 km/h
2100 13-01-2011 11:50:01 12.7 C 8.24 g/m*3 12.7 C 0 km/h
Sensor: Nr:Datum:Temp:Abs-Feuchte:Windchill:Wind:
Aussen-T/F 2101 13-01-2011 12:02:01 12.6 C 8.3 g/m*3 12.6 C 0 km/h
2102 13-01-2011 12:14:02 12.5 C 8.25 g/m*3 12.5 C 0 km/h
2103 13-01-2011 12:26:01 12.4 C 8.3 g/m*3 12.4 C 0 km/h
2104 13-01-2011 12:38:01 12.4 C 8.41 g/m*3 12.4 C 0 km/h
2105 13-01-2011 12:50:01 12.4 C 8.3 g/m*3 12.4 C 0 km/h
2106 13-01-2011 13:02:01 12.2 C 8.42 g/m*3 12.2 C 0 km/h
2107 13-01-2011 13:14:01 12.2 C 8.42 g/m*3 12.2 C 0 km/h
2108 13-01-2011 13:26:02 12.7 C 8.46 g/m*3 12.7 C 0 km/h
2109 13-01-2011 13:38:01 12.7 C 8.35 g/m*3 12.7 C 0 km/h
2110 13-01-2011 13:50:02 12.9 C 8.34 g/m*3 12.9 C 0 km/h
2111 13-01-2011 14:02:01 13 C 8.28 g/m*3 13 C 0 km/h
2112 13-01-2011 14:14:01 13 C 8.28 g/m*3 13 C 0 km/h
2113 13-01-2011 14:26:02 13.2 C 8.27 g/m*3 13.2 C 0 km/h
2114 13-01-2011 14:38:01 13.4 C 8.37 g/m*3 13.4 C 0 km/h
2115 13-01-2011 14:50:01 13.3 C 8.2 g/m*3 13.3 C 0 km/h
2116 13-01-2011 15:02:01 13.1 C 8.22 g/m*3 13.1 C 0 km/h
2117 13-01-2011 15:14:01 13.2 C 8.27 g/m*3 13.2 C 0 km/h
2118 13-01-2011 15:26:01 13.1 C 8.22 g/m*3 13.1 C 0 km/h
2119 13-01-2011 15:38:02 13 C 8.28 g/m*3 13 C 0 km/h
2120 13-01-2011 15:50:01 12.9 C 8.34 g/m*3 12.9 C 0 km/h
2121 13-01-2011 16:02:02 12.9 C 8.45 g/m*3 12.9 C 0 km/h
2122 13-01-2011 16:14:02 12.9 C 8.45 g/m*3 12.9 C 0 km/h
2123 13-01-2011 16:26:01 13 C 8.39 g/m*3 13 C 0 km/h
2124 13-01-2011 16:38:01 12.8 C 8.51 g/m*3 12.8 C 0 km/h
2125 13-01-2011 16:50:01 12.9 C 8.57 g/m*3 12.9 C 0 km/h
Sensor: Nr:Datum:Temp:Abs-Feuchte:Windchill:Wind:
Aussen-T/F 2126 13-01-2011 17:02:01 12.8 C 8.51 g/m*3 12.8 C 0 km/h
2127 13-01-2011 17:14:02 12.9 C 8.57 g/m*3 12.9 C 0 km/h
2128 13-01-2011 17:26:01 12.7 C 8.46 g/m*3 12.7 C 0 km/h
2129 13-01-2011 17:38:01 12.9 C 8.57 g/m*3 12.9 C 0 km/h
2130 13-01-2011 17:50:01 13 C 8.39 g/m*3 13 C 0 km/h
2131 13-01-2011 18:02:01 13 C 8.39 g/m*3 13 C 0 km/h
2132 13-01-2011 18:14:01 12.9 C 8.45 g/m*3 12.9 C 0 km/h
2133 13-01-2011 18:26:02 12.7 C 8.35 g/m*3 12.7 C 0 km/h
2134 13-01-2011 18:38:01 12.8 C 8.51 g/m*3 12.8 C 0 km/h
2135 13-01-2011 18:50:02 12.8 C 8.4 g/m*3 12.8 C 0 km/h
2136 13-01-2011 19:02:01 12.9 C 8.57 g/m*3 12.9 C 0 km/h
2137 13-01-2011 19:14:01 12.8 C 8.51 g/m*3 12.8 C 0 km/h
2138 13-01-2011 19:26:02 12.8 C 8.51 g/m*3 12.8 C 0 km/h
2139 13-01-2011 19:38:02 12.8 C 8.51 g/m*3 12.8 C 0 km/h
2140 13-01-2011 19:50:01 12.8 C 8.4 g/m*3 12.8 C 0 km/h
2141 13-01-2011 20:02:02 12.8 C 8.51 g/m*3 12.8 C 0 km/h
2142 13-01-2011 20:14:02 12.7 C 8.46 g/m*3 12.7 C 0 km/h
2143 13-01-2011 20:26:01 12.6 C 8.52 g/m*3 12.6 C 0 km/h
2144 13-01-2011 20:38:01 12.7 C 8.57 g/m*3 12.7 C 0 km/h
2145 13-01-2011 20:50:01 12.7 C 8.57 g/m*3 12.7 C 0 km/h
2146 13-01-2011 21:02:01 12.7 C 8.46 g/m*3 12.7 C 0 km/h
2147 13-01-2011 21:14:01 12.7 C 8.46 g/m*3 12.7 C 0 km/h
2148 13-01-2011 21:26:01 12.8 C 8.51 g/m*3 12.8 C 0 km/h
2149 13-01-2011 21:38:01 13 C 8.39 g/m*3 13 C 0 km/h
2150 13-01-2011 21:50:01 12.9 C 8.45 g/m*3 12.9 C 0 km/h
Sensor: Nr:Datum:Temp:Abs-Feuchte:Windchill:Wind:
Aussen-T/F 2151 13-01-2011 22:02:01 12.9 C 8.45 g/m*3 12.9 C 0 km/h
2152 13-01-2011 22:14:01 12.8 C 8.4 g/m*3 12.8 C 0 km/h
2153 13-01-2011 22:26:01 12.8 C 8.29 g/m*3 12.8 C 0 km/h
2154 13-01-2011 22:38:02 12.8 C 8.29 g/m*3 12.8 C 0 km/h
2155 13-01-2011 22:50:01 12.8 C 8.29 g/m*3 12.8 C 0 km/h
2156 13-01-2011 23:02:02 12.9 C 8.34 g/m*3 12.9 C 0 km/h
2157 13-01-2011 23:14:02 12.7 C 8.24 g/m*3 12.7 C 0 km/h
2158 13-01-2011 23:26:01 12.7 C 8.24 g/m*3 12.7 C 0 km/h
2159 13-01-2011 23:38:02 12.7 C 8.24 g/m*3 12.7 C 0 km/h
2160 13-01-2011 23:50:01 12.7 C 8.24 g/m*3 12.7 C 0 km/h
2161 14-01-2011 00:02:02 12.7 C 8.24 g/m*3 12.7 C 0 km/h
2162 14-01-2011 00:14:02 12.5 C 8.14 g/m*3 12.5 C 0 km/h
2163 14-01-2011 00:26:01 12.4 C 8.09 g/m*3 12.4 C 0 km/h
2164 14-01-2011 00:38:02 12.5 C 8.14 g/m*3 12.5 C 0 km/h
2165 14-01-2011 00:50:01 12.7 C 8.13 g/m*3 12.7 C 0 km/h
2166 14-01-2011 01:02:02 12.5 C 8.14 g/m*3 12.5 C 0 km/h
2167 14-01-2011 01:14:02 12.4 C 8.09 g/m*3 12.4 C 0 km/h
2168 14-01-2011 01:26:01 12.5 C 8.14 g/m*3 12.5 C 0 km/h
2169 14-01-2011 01:38:02 12.6 C 8.08 g/m*3 12.6 C 0 km/h
2170 14-01-2011 01:50:01 12.5 C 8.03 g/m*3 12.5 C 0 km/h
2171 14-01-2011 02:02:02 12.4 C 7.98 g/m*3 12.4 C 0 km/h
2172 14-01-2011 02:14:02 12.3 C 7.93 g/m*3 12.3 C 0 km/h
2173 14-01-2011 02:26:01 12.3 C 7.93 g/m*3 12.3 C 0 km/h
2174 14-01-2011 02:38:01 12.3 C 7.93 g/m*3 12.3 C 0 km/h
2175 14-01-2011 02:50:01 12.4 C 7.98 g/m*3 12.4 C 0 km/h
Sensor: Nr:Datum:Temp:Abs-Feuchte:Windchill:Wind:
Aussen-T/F 2176 14-01-2011 03:02:01 12.2 C 7.88 g/m*3 12.2 C 0 km/h
2177 14-01-2011 03:14:01 12.4 C 7.98 g/m*3 12.4 C 0 km/h
2178 14-01-2011 03:26:02 12.2 C 7.77 g/m*3 12.2 C 0 km/h
2179 14-01-2011 03:38:01 12.2 C 7.77 g/m*3 12.2 C 0 km/h
2180 14-01-2011 03:50:01 12.2 C 7.77 g/m*3 12.2 C 0 km/h
2181 14-01-2011 04:02:02 12.2 C 7.77 g/m*3 12.2 C 0 km/h
2182 14-01-2011 04:14:02 12.2 C 7.88 g/m*3 12.2 C 0 km/h
2183 14-01-2011 04:26:01 12.4 C 7.87 g/m*3 12.4 C 0 km/h
2184 14-01-2011 04:38:01 12.2 C 7.77 g/m*3 12.2 C 0 km/h
2185 14-01-2011 04:50:01 12.2 C 7.77 g/m*3 12.2 C 0 km/h
2186 14-01-2011 05:02:01 12.1 C 7.83 g/m*3 12.1 C 0 km/h
2187 14-01-2011 05:14:01 12.1 C 7.83 g/m*3 12.1 C 0 km/h
2188 14-01-2011 05:26:01 12.3 C 7.82 g/m*3 12.3 C 0 km/h
2189 14-01-2011 05:38:01 12.5 C 7.81 g/m*3 12.5 C 0 km/h
2190 14-01-2011 05:50:01 12.3 C 7.71 g/m*3 12.3 C 0 km/h
2191 14-01-2011 06:02:01 12.4 C 7.65 g/m*3 12.4 C 0 km/h
2192 14-01-2011 06:14:01 12.6 C 7.63 g/m*3 12.6 C 0 km/h
2193 14-01-2011 06:26:02 12.5 C 7.59 g/m*3 12.5 C 0 km/h
2194 14-01-2011 06:38:01 12.7 C 7.57 g/m*3 12.7 C 0 km/h
2195 14-01-2011 06:50:02 12.6 C 7.63 g/m*3 12.6 C 0 km/h
2196 14-01-2011 07:02:01 12.3 C 7.6 g/m*3 12.3 C 0 km/h
2197 14-01-2011 07:14:01 12.3 C 7.49 g/m*3 12.3 C 0 km/h
2198 14-01-2011 07:26:02 12.4 C 7.43 g/m*3 12.4 C 0 km/h
2199 14-01-2011 07:38:01 12.2 C 7.12 g/m*3 12.2 C 0 km/h
2200 14-01-2011 07:50:01 12.3 C 7.17 g/m*3 12.3 C 0 km/h
Sensor: Nr:Datum:Temp:Abs-Feuchte:Windchill:Wind:
Aussen-T/F 2201 14-01-2011 08:02:01 12.1 C 7.08 g/m*3 12.1 C 0 km/h
2202 14-01-2011 08:14:01 12.2 C 7.01 g/m*3 12.2 C 0 km/h
2203 14-01-2011 08:26:02 11.7 C 7.01 g/m*3 11.7 C 0 km/h
2204 14-01-2011 08:38:01 11.2 C 6.89 g/m*3 11.2 C 0 km/h
2205 14-01-2011 08:50:02 11.1 C 6.95 g/m*3 11.1 C 0 km/h
2206 14-01-2011 09:02:01 11.2 C 6.99 g/m*3 11.2 C 0 km/h
2207 14-01-2011 09:14:01 11.4 C 6.77 g/m*3 11.4 C 0 km/h
2208 14-01-2011 09:26:01 11.6 C 6.86 g/m*3 11.6 C 0 km/h
2209 14-01-2011 09:38:01 11.6 C 6.76 g/m*3 11.6 C 0 km/h
2210 14-01-2011 09:50:01 11.5 C 6.82 g/m*3 11.5 C 0 km/h
2211 14-01-2011 10:02:01 11.8 C 6.84 g/m*3 11.8 C 0 km/h
2212 14-01-2011 10:14:01 11.9 C 6.78 g/m*3 11.9 C 0 km/h
2213 14-01-2011 10:26:01 11.9 C 6.78 g/m*3 11.9 C 0 km/h
2214 14-01-2011 10:38:02 11.3 C 6.53 g/m*3 11.3 C 0 km/h
2215 14-01-2011 10:50:01 11.8 C 6.63 g/m*3 11.8 C 0 km/h
2216 14-01-2011 11:02:02 12 C 6.61 g/m*3 12 C 0 km/h
2217 14-01-2011 11:14:02 11.9 C 6.67 g/m*3 11.9 C 0 km/h
2218 14-01-2011 11:26:01 12 C 6.61 g/m*3 12 C 0 km/h
2219 14-01-2011 11:38:02 12 C 6.61 g/m*3 12 C 0 km/h
2220 14-01-2011 11:50:01 12.2 C 6.58 g/m*3 12.2 C 0 km/h
2221 14-01-2011 12:02:01 12 C 6.5 g/m*3 12 C 0 km/h
2222 14-01-2011 12:14:02 12.2 C 6.58 g/m*3 12.2 C 0 km/h
2223 14-01-2011 12:26:01 12.3 C 6.52 g/m*3 12.3 C 0 km/h
2224 14-01-2011 12:38:01 12.2 C 6.58 g/m*3 12.2 C 0 km/h
2225 14-01-2011 12:50:01 12 C 6.5 g/m*3 12 C 0 km/h
Sensor: Nr:Datum:Temp:Abs-Feuchte:Windchill:Wind:
Aussen-T/F 2226 14-01-2011 13:02:01 12 C 6.61 g/m*3 12 C 0 km/h
2227 14-01-2011 13:14:01 12 C 6.71 g/m*3 12 C 0 km/h
2228 14-01-2011 13:26:02 12 C 6.61 g/m*3 12 C 0 km/h
2229 14-01-2011 13:38:01 12 C 6.61 g/m*3 12 C 0 km/h
2230 14-01-2011 13:50:02 12 C 6.61 g/m*3 12 C 0 km/h
2231 14-01-2011 14:02:01 11.8 C 6.74 g/m*3 11.8 C 0 km/h
2232 14-01-2011 14:14:01 11.7 C 6.8 g/m*3 11.7 C 0 km/h
2233 14-01-2011 14:26:02 11.6 C 6.86 g/m*3 11.6 C 0 km/h
2234 14-01-2011 14:38:01 11.5 C 6.82 g/m*3 11.5 C 0 km/h
2235 14-01-2011 14:50:02 11.6 C 6.86 g/m*3 11.6 C 0 km/h
2236 14-01-2011 15:02:01 11.8 C 6.74 g/m*3 11.8 C 0 km/h
2237 14-01-2011 15:14:01 12 C 6.61 g/m*3 12 C 0 km/h
2238 14-01-2011 15:26:01 12.2 C 6.47 g/m*3 12.2 C 0 km/h
2239 14-01-2011 15:38:02 12.4 C 6.45 g/m*3 12.4 C 0 km/h
2240 14-01-2011 15:50:01 12.2 C 6.47 g/m*3 12.2 C 0 km/h
2241 14-01-2011 16:02:02 12.2 C 6.37 g/m*3 12.2 C 0 km/h
2242 14-01-2011 16:14:02 12.1 C 6.43 g/m*3 12.1 C 0 km/h
2243 14-01-2011 16:26:01 12 C 6.39 g/m*3 12 C 0 km/h
2244 14-01-2011 16:38:01 11.9 C 6.46 g/m*3 11.9 C 0 km/h
2245 14-01-2011 16:50:01 11.6 C 6.34 g/m*3 11.6 C 0 km/h
2246 14-01-2011 17:02:01 11.6 C 6.34 g/m*3 11.6 C 0 km/h
2247 14-01-2011 17:14:01 11.6 C 6.44 g/m*3 11.6 C 0 km/h
2248 14-01-2011 17:26:01 11.5 C 6.3 g/m*3 11.5 C 0 km/h
2249 14-01-2011 17:38:01 11.5 C 6.3 g/m*3 11.5 C 0 km/h
2250 14-01-2011 17:50:01 11.4 C 6.26 g/m*3 11.4 C 0 km/h
Sensor: Nr:Datum:Temp:Abs-Feuchte:Windchill:Wind:
Aussen-T/F 2251 14-01-2011 18:02:01 11.2 C 6.28 g/m*3 11.2 C 0 km/h
2252 14-01-2011 18:14:01 11 C 6.31 g/m*3 11 C 0 km/h
2253 14-01-2011 18:26:02 11.3 C 6.32 g/m*3 11.3 C 0 km/h
2254 14-01-2011 18:38:01 10.8 C 6.33 g/m*3 10.8 C 0 km/h
2255 14-01-2011 18:50:02 10.9 C 6.37 g/m*3 10.9 C 0 km/h
2256 14-01-2011 19:02:01 10.8 C 6.33 g/m*3 10.8 C 0 km/h
2257 14-01-2011 19:14:01 10.7 C 6.29 g/m*3 10.7 C 0 km/h
2258 14-01-2011 19:26:01 11 C 6.21 g/m*3 11 C 0 km/h
2259 14-01-2011 19:38:01 11.3 C 6.22 g/m*3 11.3 C 0 km/h
2260 14-01-2011 19:50:01 11.9 C 6.14 g/m*3 11.9 C 0 km/h
2261 14-01-2011 20:02:01 11.9 C 6.04 g/m*3 11.9 C 0 km/h
2262 14-01-2011 20:14:01 11.8 C 6.1 g/m*3 11.8 C 0 km/h
2263 14-01-2011 20:26:01 11.8 C 6.1 g/m*3 11.8 C 0 km/h
2264 14-01-2011 20:38:02 11.5 C 6.09 g/m*3 11.5 C 0 km/h
2265 14-01-2011 20:50:01 11.4 C 6.06 g/m*3 11.4 C 0 km/h
2266 14-01-2011 21:02:02 11.4 C 6.06 g/m*3 11.4 C 0 km/h
2267 14-01-2011 21:14:02 11.4 C 5.95 g/m*3 11.4 C 0 km/h
2268 14-01-2011 21:26:01 11.4 C 6.06 g/m*3 11.4 C 0 km/h
2269 14-01-2011 21:38:01 11.4 C 5.95 g/m*3 11.4 C 0 km/h
2270 14-01-2011 21:50:01 11.4 C 6.06 g/m*3 11.4 C 0 km/h
2271 14-01-2011 22:04:03 11.2 C 6.08 g/m*3 11.2 C 0 km/h
2272 14-01-2011 22:16:03 11.1 C 6.14 g/m*3 11.1 C 0 km/h
2273 14-01-2011 22:28:03 11.1 C 6.25 g/m*3 11.1 C 0 km/h
2274 14-01-2011 22:40:03 10.6 C 6.34 g/m*3 10.6 C 0 km/h
2275 14-01-2011 22:52:03 10.1 C 6.43 g/m*3 10.1 C 0 km/h
Sensor: Nr:Datum:Temp:Abs-Feuchte:Windchill:Wind:
Aussen-T/F 2276 14-01-2011 23:04:03 10 C 6.58 g/m*3 10 C 0 km/h
2277 14-01-2011 23:16:03 9.5 C 6.74 g/m*3 9.5 C 0 km/h
2278 14-01-2011 23:28:03 9.1 C 6.92 g/m*3 9.1 C 0 km/h
2279 14-01-2011 23:40:03 9.1 C 6.92 g/m*3 9.1 C 0 km/h
2280 14-01-2011 23:52:03 8.5 C 6.66 g/m*3 8.5 C 0 km/h
2281 15-01-2011 00:04:03 8.3 C 6.74 g/m*3 8.3 C 0 km/h
2282 15-01-2011 00:16:03 8 C 6.7 g/m*3 8 C 0 km/h
2283 15-01-2011 00:28:03 8.5 C 6.74 g/m*3 8.5 C 0 km/h
2284 15-01-2011 00:40:03 8.1 C 6.49 g/m*3 8.1 C 0 km/h
2285 15-01-2011 00:52:03 8.2 C 6.53 g/m*3 8.2 C 0 km/h
2286 15-01-2011 01:04:03 8.1 C 6.49 g/m*3 8.1 C 0 km/h
2287 15-01-2011 01:16:03 8.3 C 6.49 g/m*3 8.3 C 0 km/h
2288 15-01-2011 01:28:03 8.5 C 6.32 g/m*3 8.5 C 0 km/h
2289 15-01-2011 01:40:03 8.2 C 6.36 g/m*3 8.2 C 0 km/h
2290 15-01-2011 01:52:03 8 C 6.37 g/m*3 8 C 0 km/h
2291 15-01-2011 02:04:04 8.4 C 6.45 g/m*3 8.4 C 0 km/h
2292 15-01-2011 02:16:04 8.3 C 6.41 g/m*3 8.3 C 0 km/h
2293 15-01-2011 02:28:04 8.1 C 6.32 g/m*3 8.1 C 0 km/h
2294 15-01-2011 02:40:04 7.6 C 6.36 g/m*3 7.6 C 0 km/h
2295 15-01-2011 02:52:04 7.8 C 6.61 g/m*3 7.8 C 0 km/h
2296 15-01-2011 03:04:04 8 C 6.45 g/m*3 8 C 0 km/h
2297 15-01-2011 03:16:04 8.1 C 6.41 g/m*3 8.1 C 0 km/h
2298 15-01-2011 03:28:04 8.4 C 6.62 g/m*3 8.4 C 0 km/h
2299 15-01-2011 03:40:04 8.1 C 6.41 g/m*3 8.1 C 0 km/h
2300 15-01-2011 03:52:04 8 C 6.45 g/m*3 8 C 0 km/h
Sensor: Nr:Datum:Temp:Abs-Feuchte:Windchill:Wind:
Aussen-T/F 2301 15-01-2011 04:04:04 7.8 C 6.45 g/m*3 7.8 C 0 km/h
2302 15-01-2011 04:16:04 8 C 6.53 g/m*3 8 C 0 km/h
2303 15-01-2011 04:28:04 8.2 C 6.36 g/m*3 8.2 C 0 km/h
2304 15-01-2011 04:40:04 8.7 C 6.4 g/m*3 8.7 C 0 km/h
2305 15-01-2011 04:52:04 8.4 C 6.28 g/m*3 8.4 C 0 km/h
2306 15-01-2011 05:04:04 8.3 C 6.15 g/m*3 8.3 C 0 km/h
2307 15-01-2011 05:16:04 8.1 C 6.07 g/m*3 8.1 C 0 km/h
2308 15-01-2011 05:28:04 7.7 C 6.24 g/m*3 7.7 C 0 km/h
2309 15-01-2011 05:40:04 8 C 6.12 g/m*3 8 C 0 km/h
2310 15-01-2011 05:52:04 7.7 C 6.08 g/m*3 7.7 C 0 km/h
2311 15-01-2011 06:04:05 7.5 C 6.24 g/m*3 7.5 C 0 km/h
2312 15-01-2011 06:16:05 6.9 C 6.24 g/m*3 6.9 C 0 km/h
2313 15-01-2011 06:28:05 7.3 C 6.24 g/m*3 7.3 C 0 km/h
2314 15-01-2011 06:40:05 7.6 C 6.2 g/m*3 7.6 C 0 km/h
2315 15-01-2011 06:52:05 7.9 C 6.16 g/m*3 7.9 C 0 km/h
2316 15-01-2011 07:04:05 7.1 C 6.01 g/m*3 7.1 C 0 km/h
2317 15-01-2011 07:16:05 7.3 C 6.24 g/m*3 7.3 C 0 km/h
2318 15-01-2011 07:28:05 7 C 6.2 g/m*3 7 C 0 km/h
2319 15-01-2011 07:40:05 7 C 6.12 g/m*3 7 C 0 km/h
2320 15-01-2011 07:52:05 7 C 6.12 g/m*3 7 C 0 km/h
2321 15-01-2011 08:04:02 7 C 6.12 g/m*3 7 C 0 km/h
2322 15-01-2011 08:16:03 7.1 C 6.08 g/m*3 7.1 C 0 km/h
2323 15-01-2011 08:28:03 8 C 6.28 g/m*3 8 C 0 km/h
2324 15-01-2011 08:40:02 8 C 6.04 g/m*3 8 C 0 km/h
2325 15-01-2011 08:52:03 8.3 C 6.15 g/m*3 8.3 C 0 km/h
Sensor: Nr:Datum:Temp:Abs-Feuchte:Windchill:Wind:
Aussen-T/F 2326 15-01-2011 09:04:02 8.2 C 5.95 g/m*3 8.2 C 0 km/h
2327 15-01-2011 09:16:02 7.9 C 5.91 g/m*3 7.9 C 0 km/h
2328 15-01-2011 09:28:02 8.2 C 6.03 g/m*3 8.2 C 0 km/h
2329 15-01-2011 09:40:02 8.5 C 5.98 g/m*3 8.5 C 0 km/h
2330 15-01-2011 09:52:02 8.7 C 6.05 g/m*3 8.7 C 0 km/h
2331 15-01-2011 10:04:01 9.1 C 5.94 g/m*3 9.1 C 0 km/h
2332 15-01-2011 10:16:02 8.9 C 5.96 g/m*3 8.9 C 0 km/h
2333 15-01-2011 10:28:02 9 C 5.91 g/m*3 9 C 0 km/h
2334 15-01-2011 10:40:02 9.1 C 5.86 g/m*3 9.1 C 0 km/h
2335 15-01-2011 10:52:02 9.2 C 5.89 g/m*3 9.2 C 0 km/h
2336 15-01-2011 11:04:02 9.4 C 5.97 g/m*3 9.4 C 0 km/h
2337 15-01-2011 11:16:02 9.5 C 6.01 g/m*3 9.5 C 0 km/h
2338 15-01-2011 11:28:02 10.1 C 5.96 g/m*3 10.1 C 0 km/h
2339 15-01-2011 11:40:02 10.1 C 5.77 g/m*3 10.1 C 0 km/h
2340 15-01-2011 11:52:02 10.2 C 5.71 g/m*3 10.2 C 0 km/h
2341 15-01-2011 12:04:02 10.2 C 5.8 g/m*3 10.2 C 0 km/h
2342 15-01-2011 12:16:03 10.2 C 5.71 g/m*3 10.2 C 0 km/h
2343 15-01-2011 12:28:03 10.3 C 5.75 g/m*3 10.3 C 0 km/h
2344 15-01-2011 12:40:02 10.2 C 5.71 g/m*3 10.2 C 0 km/h
2345 15-01-2011 12:52:01 10.1 C 5.67 g/m*3 10.1 C 0 km/h
2346 15-01-2011 13:04:01 10.1 C 5.58 g/m*3 10.1 C 0 km/h
2347 15-01-2011 13:16:02 10 C 5.64 g/m*3 10 C 0 km/h
2348 15-01-2011 13:28:02 10 C 5.54 g/m*3 10 C 0 km/h
2349 15-01-2011 13:40:01 10 C 5.54 g/m*3 10 C 0 km/h
2350 15-01-2011 13:52:01 10.1 C 5.58 g/m*3 10.1 C 0 km/h
Sensor: Nr:Datum:Temp:Abs-Feuchte:Windchill:Wind:
Aussen-T/F 2351 15-01-2011 14:04:01 10.2 C 5.61 g/m*3 10.2 C 0 km/h
2352 15-01-2011 14:16:02 10 C 5.54 g/m*3 10 C 0 km/h
2353 15-01-2011 14:28:02 10 C 5.54 g/m*3 10 C 0 km/h
2354 15-01-2011 14:40:01 10 C 5.54 g/m*3 10 C 0 km/h
2355 15-01-2011 14:52:01 10 C 5.45 g/m*3 10 C 0 km/h
2356 15-01-2011 15:04:01 9.9 C 5.42 g/m*3 9.9 C 0 km/h
2357 15-01-2011 15:16:02 9.8 C 5.57 g/m*3 9.8 C 0 km/h
2358 15-01-2011 15:28:02 9.6 C 5.5 g/m*3 9.6 C 0 km/h
2359 15-01-2011 15:40:01 9.7 C 5.53 g/m*3 9.7 C 0 km/h
2360 15-01-2011 15:52:02 9.1 C 5.59 g/m*3 9.1 C 0 km/h
2361 15-01-2011 16:04:02 8.8 C 5.83 g/m*3 8.8 C 0 km/h
2362 15-01-2011 16:16:03 8.7 C 5.71 g/m*3 8.7 C 0 km/h
2363 15-01-2011 16:28:03 8.9 C 5.69 g/m*3 8.9 C 0 km/h
2364 15-01-2011 16:40:02 8.9 C 5.69 g/m*3 8.9 C 0 km/h
2365 15-01-2011 16:52:02 9.2 C 5.63 g/m*3 9.2 C 0 km/h
2366 15-01-2011 17:04:01 8.7 C 5.79 g/m*3 8.7 C 0 km/h
2367 15-01-2011 17:16:01 9.1 C 5.59 g/m*3 9.1 C 0 km/h
2368 15-01-2011 17:28:01 9.2 C 5.54 g/m*3 9.2 C 0 km/h
2369 15-01-2011 17:40:02 9 C 5.64 g/m*3 9 C 0 km/h
2370 15-01-2011 17:52:03 9.1 C 5.68 g/m*3 9.1 C 0 km/h
2371 15-01-2011 18:04:03 9.2 C 5.71 g/m*3 9.2 C 0 km/h
2372 15-01-2011 18:16:01 9.1 C 5.68 g/m*3 9.1 C 0 km/h
2373 15-01-2011 18:28:01 9 C 5.82 g/m*3 9 C 0 km/h
2374 15-01-2011 18:40:02 9 C 5.82 g/m*3 9 C 0 km/h
2375 15-01-2011 18:52:02 8.6 C 5.84 g/m*3 8.6 C 0 km/h
Sensor: Nr:Datum:Temp:Abs-Feuchte:Windchill:Wind:
Aussen-T/F 2376 15-01-2011 19:04:02 9.1 C 5.77 g/m*3 9.1 C 0 km/h
2377 15-01-2011 19:16:02 9.3 C 5.66 g/m*3 9.3 C 0 km/h
2378 15-01-2011 19:28:02 9.1 C 5.59 g/m*3 9.1 C 0 km/h
2379 15-01-2011 19:40:02 9.3 C 5.75 g/m*3 9.3 C 0 km/h
2380 15-01-2011 19:52:01 9.1 C 5.68 g/m*3 9.1 C 0 km/h
2381 15-01-2011 20:04:01 9.4 C 5.7 g/m*3 9.4 C 0 km/h
2382 15-01-2011 20:16:02 9.1 C 5.59 g/m*3 9.1 C 0 km/h
2383 15-01-2011 20:28:02 8.6 C 5.67 g/m*3 8.6 C 0 km/h
2384 15-01-2011 20:40:01 8.9 C 5.69 g/m*3 8.9 C 0 km/h
2385 15-01-2011 20:52:01 8.6 C 5.76 g/m*3 8.6 C 0 km/h
2386 15-01-2011 21:04:01 8.2 C 5.53 g/m*3 8.2 C 0 km/h
2387 15-01-2011 21:16:02 8.1 C 5.57 g/m*3 8.1 C 0 km/h
2388 15-01-2011 21:28:02 8 C 5.54 g/m*3 8 C 0 km/h
2389 15-01-2011 21:40:01 7.8 C 5.71 g/m*3 7.8 C 0 km/h
2390 15-01-2011 21:52:01 8.1 C 5.74 g/m*3 8.1 C 0 km/h
2391 15-01-2011 22:04:01 8.3 C 5.82 g/m*3 8.3 C 0 km/h
2392 15-01-2011 22:16:02 8.5 C 5.98 g/m*3 8.5 C 0 km/h
2393 15-01-2011 22:28:02 8.9 C 5.96 g/m*3 8.9 C 0 km/h
2394 15-01-2011 22:41:03 8.6 C 5.84 g/m*3 8.6 C 0 km/h
2395 15-01-2011 22:53:03 8.7 C 5.88 g/m*3 8.7 C 0 km/h
2396 15-01-2011 23:05:03 8.5 C 5.89 g/m*3 8.5 C 0 km/h
2397 15-01-2011 23:17:03 8.2 C 5.86 g/m*3 8.2 C 0 km/h
2398 15-01-2011 23:29:03 8.7 C 5.88 g/m*3 8.7 C 0 km/h
2399 15-01-2011 23:41:03 8.8 C 5.92 g/m*3 8.8 C 0 km/h
2400 15-01-2011 23:53:03 8.9 C 5.87 g/m*3 8.9 C 0 km/h
Sensor: Nr:Datum:Temp:Abs-Feuchte:Windchill:Wind:
Aussen-T/F 2401 16-01-2011 00:05:03 8.7 C 5.97 g/m*3 8.7 C 0 km/h
2402 16-01-2011 00:17:03 8.8 C 5.92 g/m*3 8.8 C 0 km/h
2403 16-01-2011 00:29:03 9 C 5.82 g/m*3 9 C 0 km/h
2404 16-01-2011 00:41:03 9 C 5.73 g/m*3 9 C 0 km/h
2405 16-01-2011 00:53:04 9 C 5.73 g/m*3 9 C 0 km/h
2406 16-01-2011 01:05:04 8.5 C 5.64 g/m*3 8.5 C 0 km/h
2407 16-01-2011 01:17:04 8.6 C 5.76 g/m*3 8.6 C 0 km/h
2408 16-01-2011 01:29:04 8 C 5.7 g/m*3 8 C 0 km/h
2409 16-01-2011 01:41:04 8 C 5.7 g/m*3 8 C 0 km/h
2410 16-01-2011 01:53:04 8.1 C 5.66 g/m*3 8.1 C 0 km/h
2411 16-01-2011 02:05:04 8.1 C 5.66 g/m*3 8.1 C 0 km/h
2412 16-01-2011 02:17:04 7.8 C 5.71 g/m*3 7.8 C 0 km/h
2413 16-01-2011 02:29:04 7.8 C 5.79 g/m*3 7.8 C 0 km/h
2414 16-01-2011 02:41:04 7.8 C 5.88 g/m*3 7.8 C 0 km/h
2415 16-01-2011 02:53:04 8.3 C 5.82 g/m*3 8.3 C 0 km/h
2416 16-01-2011 03:05:04 8.4 C 5.77 g/m*3 8.4 C 0 km/h
2417 16-01-2011 03:17:04 8.3 C 5.65 g/m*3 8.3 C 0 km/h
2418 16-01-2011 03:29:04 8.2 C 5.69 g/m*3 8.2 C 0 km/h
2419 16-01-2011 03:41:04 7.8 C 5.71 g/m*3 7.8 C 0 km/h
2420 16-01-2011 03:53:04 8 C 5.7 g/m*3 8 C 0 km/h
2421 16-01-2011 04:05:04 7.9 C 5.75 g/m*3 7.9 C 0 km/h
2422 16-01-2011 04:17:04 8.2 C 5.78 g/m*3 8.2 C 0 km/h
2423 16-01-2011 04:29:04 8.5 C 5.72 g/m*3 8.5 C 0 km/h
2424 16-01-2011 04:41:04 8.4 C 5.77 g/m*3 8.4 C 0 km/h
2425 16-01-2011 04:53:05 8.1 C 5.74 g/m*3 8.1 C 0 km/h
Sensor: Nr:Datum:Temp:Abs-Feuchte:Windchill:Wind:
Aussen-T/F 2426 16-01-2011 05:05:05 7.9 C 5.83 g/m*3 7.9 C 0 km/h
2427 16-01-2011 05:17:05 7.3 C 5.85 g/m*3 7.3 C 0 km/h
2428 16-01-2011 05:29:05 6.8 C 5.97 g/m*3 6.8 C 0 km/h
2429 16-01-2011 05:41:05 7 C 6.12 g/m*3 7 C 0 km/h
2430 16-01-2011 05:53:05 6.8 C 6.12 g/m*3 6.8 C 0 km/h
2431 16-01-2011 06:05:05 7 C 6.2 g/m*3 7 C 0 km/h
2432 16-01-2011 06:17:05 7.1 C 6.16 g/m*3 7.1 C 0 km/h
2433 16-01-2011 06:29:05 7.5 C 6.16 g/m*3 7.5 C 0 km/h
2434 16-01-2011 06:41:05 7 C 5.89 g/m*3 7 C 0 km/h
2435 16-01-2011 06:53:05 6.7 C 6 g/m*3 6.7 C 0 km/h
2436 16-01-2011 07:05:05 7.5 C 6.16 g/m*3 7.5 C 0 km/h
2437 16-01-2011 07:17:05 7.8 C 6.12 g/m*3 7.8 C 0 km/h
2438 16-01-2011 07:29:05 7.9 C 6.08 g/m*3 7.9 C 0 km/h
2439 16-01-2011 07:41:05 7.8 C 6.04 g/m*3 7.8 C 0 km/h
2440 16-01-2011 07:53:05 8.4 C 5.94 g/m*3 8.4 C 0 km/h
2441 16-01-2011 08:05:05 8.2 C 5.86 g/m*3 8.2 C 0 km/h
2442 16-01-2011 08:17:05 8.3 C 5.9 g/m*3 8.3 C 0 km/h
2443 16-01-2011 08:29:05 8.3 C 5.82 g/m*3 8.3 C 0 km/h
2444 16-01-2011 08:41:05 8.1 C 5.82 g/m*3 8.1 C 0 km/h
2445 16-01-2011 08:53:05 8.2 C 5.95 g/m*3 8.2 C 0 km/h
2446 16-01-2011 09:05:02 8.3 C 5.98 g/m*3 8.3 C 0 km/h
2447 16-01-2011 09:17:02 8 C 5.87 g/m*3 8 C 0 km/h
2448 16-01-2011 09:29:02 8 C 5.87 g/m*3 8 C 0 km/h
2449 16-01-2011 09:41:02 8 C 5.87 g/m*3 8 C 0 km/h
2450 16-01-2011 09:53:01 7.9 C 5.91 g/m*3 7.9 C 0 km/h
Sensor: Nr:Datum:Temp:Abs-Feuchte:Windchill:Wind:
Aussen-T/F 2451 16-01-2011 10:05:02 7.9 C 5.91 g/m*3 7.9 C 0 km/h
2452 16-01-2011 10:17:01 7.9 C 5.91 g/m*3 7.9 C 0 km/h
2453 16-01-2011 10:29:01 7.9 C 5.91 g/m*3 7.9 C 0 km/h
2454 16-01-2011 10:41:01 8 C 5.95 g/m*3 8 C 0 km/h
2455 16-01-2011 10:53:01 8.2 C 5.86 g/m*3 8.2 C 0 km/h
2456 16-01-2011 11:05:02 8.1 C 5.91 g/m*3 8.1 C 0 km/h
2457 16-01-2011 11:17:01 8.1 C 5.91 g/m*3 8.1 C 0 km/h
2458 16-01-2011 11:29:01 8.3 C 5.98 g/m*3 8.3 C 0 km/h
2459 16-01-2011 11:41:02 8.6 C 6.1 g/m*3 8.6 C 0 km/h
2460 16-01-2011 11:53:01 8.7 C 6.05 g/m*3 8.7 C 0 km/h
2461 16-01-2011 12:05:02 8.6 C 6.1 g/m*3 8.6 C 0 km/h
2462 16-01-2011 12:17:01 8.6 C 6.19 g/m*3 8.6 C 0 km/h
2463 16-01-2011 12:29:01 8.6 C 6.19 g/m*3 8.6 C 0 km/h
2464 16-01-2011 12:41:02 8.7 C 6.14 g/m*3 8.7 C 0 km/h
2465 16-01-2011 12:53:01 8.7 C 6.14 g/m*3 8.7 C 0 km/h
2466 16-01-2011 13:05:02 8.9 C 6.22 g/m*3 8.9 C 0 km/h
2467 16-01-2011 13:17:02 8.9 C 6.22 g/m*3 8.9 C 0 km/h
2468 16-01-2011 13:29:02 8.8 C 6.18 g/m*3 8.8 C 0 km/h
2469 16-01-2011 13:41:01 8.7 C 6.14 g/m*3 8.7 C 0 km/h
2470 16-01-2011 13:53:02 8.8 C 6.18 g/m*3 8.8 C 0 km/h
2471 16-01-2011 14:05:01 8.6 C 6.1 g/m*3 8.6 C 0 km/h
2472 16-01-2011 14:17:02 7.8 C 6.04 g/m*3 7.8 C 0 km/h
2473 16-01-2011 14:29:02 7.5 C 6.24 g/m*3 7.5 C 0 km/h
2474 16-01-2011 14:41:01 8.7 C 6.57 g/m*3 8.7 C 0 km/h
2475 16-01-2011 14:53:02 9.7 C 6.36 g/m*3 9.7 C 0 km/h
Sensor: Nr:Datum:Temp:Abs-Feuchte:Windchill:Wind:
Aussen-T/F 2476 16-01-2011 15:05:01 9.9 C 6.26 g/m*3 9.9 C 0 km/h
2477 16-01-2011 15:17:02 10 C 6.11 g/m*3 10 C 0 km/h
2478 16-01-2011 15:29:02 10 C 6.11 g/m*3 10 C 0 km/h
2479 16-01-2011 15:41:01 9.9 C 6.26 g/m*3 9.9 C 0 km/h
2480 16-01-2011 15:53:02 9.8 C 6.4 g/m*3 9.8 C 0 km/h
2481 16-01-2011 16:05:02 9.3 C 6.38 g/m*3 9.3 C 0 km/h
2482 16-01-2011 16:17:02 8.7 C 6.4 g/m*3 8.7 C 0 km/h
2483 16-01-2011 16:29:02 8 C 6.28 g/m*3 8 C 0 km/h
2484 16-01-2011 16:41:02 7.4 C 6.36 g/m*3 7.4 C 0 km/h
2485 16-01-2011 16:53:02 6.8 C 6.27 g/m*3 6.8 C 0 km/h
2486 16-01-2011 17:05:01 6.3 C 6.14 g/m*3 6.3 C 0 km/h
2487 16-01-2011 17:17:02 6.2 C 6.18 g/m*3 6.2 C 0 km/h
2488 16-01-2011 17:29:02 6 C 6.17 g/m*3 6 C 0 km/h
2489 16-01-2011 17:41:02 5.6 C 6.08 g/m*3 5.6 C 0 km/h
2490 16-01-2011 17:53:02 5.5 C 6.11 g/m*3 5.5 C 0 km/h
2491 16-01-2011 18:05:03 5.1 C 5.95 g/m*3 5.1 C 0 km/h
2492 16-01-2011 18:17:02 5 C 5.91 g/m*3 5 C 0 km/h
2493 16-01-2011 18:29:02 4.8 C 5.9 g/m*3 4.8 C 0 km/h
2494 16-01-2011 18:41:02 4.7 C 5.93 g/m*3 4.7 C 0 km/h
2495 16-01-2011 18:53:02 4.6 C 5.89 g/m*3 4.6 C 0 km/h
2496 16-01-2011 19:05:01 4.5 C 5.85 g/m*3 4.5 C 0 km/h
2497 16-01-2011 19:17:02 4.4 C 5.81 g/m*3 4.4 C 0 km/h
2498 16-01-2011 19:29:03 4.4 C 5.81 g/m*3 4.4 C 0 km/h
2499 16-01-2011 19:41:01 3.9 C 5.68 g/m*3 3.9 C 0 km/h
2500 16-01-2011 19:53:02 3.9 C 5.68 g/m*3 3.9 C 0 km/h
Sensor: Nr:Datum:Temp:Abs-Feuchte:Windchill:Wind:
Aussen-T/F 2501 16-01-2011 20:05:02 3.4 C 5.5 g/m*3 3.4 C 0 km/h
2502 16-01-2011 20:17:02 3.7 C 5.61 g/m*3 3.7 C 0 km/h
2503 16-01-2011 20:29:02 3.5 C 5.53 g/m*3 3.5 C 0 km/h
2504 16-01-2011 20:41:03 2.9 C 5.37 g/m*3 2.9 C 0 km/h
2505 16-01-2011 20:53:02 2.8 C 5.34 g/m*3 2.8 C 0 km/h
2506 16-01-2011 21:05:01 2.7 C 5.3 g/m*3 2.7 C 0 km/h
2507 16-01-2011 21:17:02 2.2 C 5.13 g/m*3 2.2 C 0 km/h
2508 16-01-2011 21:29:02 2.7 C 5.3 g/m*3 2.7 C 0 km/h
2509 16-01-2011 21:41:02 2.2 C 5.13 g/m*3 2.2 C 0 km/h
2510 16-01-2011 21:53:02 2.2 C 5.13 g/m*3 2.2 C 0 km/h
2511 16-01-2011 22:06:04 1.8 C 5.04 g/m*3 1.8 C 0 km/h
2512 16-01-2011 22:18:04 2.8 C 5.4 g/m*3 2.8 C 0 km/h
2513 16-01-2011 22:30:04 1.9 C 5.08 g/m*3 1.9 C 0 km/h
2514 16-01-2011 22:42:04 2.1 C 5.09 g/m*3 2.1 C 0 km/h
2515 16-01-2011 22:54:04 2.2 C 5.18 g/m*3 2.2 C 0 km/h
2516 16-01-2011 23:06:04 2.1 C 5.15 g/m*3 2.1 C 0 km/h
2517 16-01-2011 23:18:04 1.5 C 4.94 g/m*3 1.5 C 0 km/h
2518 16-01-2011 23:30:04 1.5 C 4.94 g/m*3 1.5 C 0 km/h
2519 16-01-2011 23:42:04 1.1 C 4.81 g/m*3 1.1 C 0 km/h
2520 16-01-2011 23:54:04 0.6 C 4.65 g/m*3 0.6 C 0 km/h

Legende:
   Min
   Max


Maximal/Minimal-Werte vom 27.12.2010 - 16.01.2011

Sensor Min Max Avg
Temp
(Aussen-T/F)
-9.3 °C
30-12-2010  05:49:01
14.7 °C
08-01-2011  14:22:02
3.03 °C
Abs-Feuchte
(Aussen-T/F)
2.01 g/m*3
30-12-2010  05:49:01
8.57 g/m*3
13-01-2011  16:50:01
4.92 g/m*3
Windchill
(Aussen-T/F)
-9.3 C
30-12-2010  05:49:01
14.7 C
08-01-2011  14:22:02
3.02 C

Die Daten stammen von einer Davis Vantage Pro 2 Wetter-Station und werden unter Linux mit der Software wview2wettercgi und aufbereitet. Alle Angaben erfolgen ohne Gewähr für ihre Vollständigkeit oder Richtigkeit.
Kontakt: Rainer Krienke krienke@uni-koblenz.de . Meine Webseiten an der Uni Koblenz oder privat.
Version: $Revision: 0.78 $